﻿<?xml version="1.0" encoding="utf-8"?><gpx creator="Garmin Desktop App" version="1.1" xsi:schemaLocation="http://www.topografix.com/GPX/1/1 http://www.topografix.com/GPX/1/1/gpx.xsd http://www.garmin.com/xmlschemas/WaypointExtension/v1 http://www8.garmin.com/xmlschemas/WaypointExtensionv1.xsd http://www.garmin.com/xmlschemas/TrackPointExtension/v1 http://www.garmin.com/xmlschemas/TrackPointExtensionv1.xsd http://www.garmin.com/xmlschemas/GpxExtensions/v3 http://www8.garmin.com/xmlschemas/GpxExtensionsv3.xsd http://www.garmin.com/xmlschemas/ActivityExtension/v1 http://www8.garmin.com/xmlschemas/ActivityExtensionv1.xsd http://www.garmin.com/xmlschemas/AdventuresExtensions/v1 http://www8.garmin.com/xmlschemas/AdventuresExtensionv1.xsd http://www.garmin.com/xmlschemas/PressureExtension/v1 http://www.garmin.com/xmlschemas/PressureExtensionv1.xsd http://www.garmin.com/xmlschemas/TripExtensions/v1 http://www.garmin.com/xmlschemas/TripExtensionsv1.xsd http://www.garmin.com/xmlschemas/TripMetaDataExtensions/v1 http://www.garmin.com/xmlschemas/TripMetaDataExtensionsv1.xsd http://www.garmin.com/xmlschemas/ViaPointTransportationModeExtensions/v1 http://www.garmin.com/xmlschemas/ViaPointTransportationModeExtensionsv1.xsd http://www.garmin.com/xmlschemas/CreationTimeExtensions/v1 http://www.garmin.com/xmlschemas/CreationTimeExtensionsv1.xsd" xmlns="http://www.topografix.com/GPX/1/1" xmlns:xsi="http://www.w3.org/2001/XMLSchema-instance" xmlns:wptx1="http://www.garmin.com/xmlschemas/WaypointExtension/v1" xmlns:gpxtrx="http://www.garmin.com/xmlschemas/GpxExtensions/v3" xmlns:gpxtpx="http://www.garmin.com/xmlschemas/TrackPointExtension/v1" xmlns:gpxx="http://www.garmin.com/xmlschemas/GpxExtensions/v3" xmlns:trp="http://www.garmin.com/xmlschemas/TripExtensions/v1" xmlns:adv="http://www.garmin.com/xmlschemas/AdventuresExtensions/v1" xmlns:prs="http://www.garmin.com/xmlschemas/PressureExtension/v1" xmlns:tmd="http://www.garmin.com/xmlschemas/TripMetaDataExtensions/v1" xmlns:vptm="http://www.garmin.com/xmlschemas/ViaPointTransportationModeExtensions/v1" xmlns:ctx="http://www.garmin.com/xmlschemas/CreationTimeExtension/v1">

  <metadata>
    <link href="http://www.garmin.com">
      <text>Garmin International</text>
    </link>
    <time>2014-02-03T07:19:47Z</time>
    <bounds maxlat="46.032051835209131" maxlon="8.629768453538418" minlat="46.009395886212587" minlon="8.612100575119257" />
  </metadata>

  <trk>
    <name>monte spalavera2014-02-02</name>
    <extensions>
      <gpxx:TrackExtension>
        <gpxx:DisplayColor>Yellow</gpxx:DisplayColor>
      </gpxx:TrackExtension>
    </extensions>
    <trkseg>
      <trkpt lat="46.009571235626936" lon="8.627816727384925">
        <ele>1248.4100000000001</ele>
        <time>2014-02-02T08:04:16Z</time>
      </trkpt>
      <trkpt lat="46.009550616145134" lon="8.627821505069733">
        <ele>1247.45</ele>
        <time>2014-02-02T08:04:54Z</time>
      </trkpt>
      <trkpt lat="46.009542318060994" lon="8.627824857831001">
        <ele>1246.97</ele>
        <time>2014-02-02T08:05:08Z</time>
      </trkpt>
      <trkpt lat="46.009543910622597" lon="8.62785167992115">
        <ele>1247.45</ele>
        <time>2014-02-02T08:05:23Z</time>
      </trkpt>
      <trkpt lat="46.009561512619257" lon="8.627854948863387">
        <ele>1247.45</ele>
        <time>2014-02-02T08:05:45Z</time>
      </trkpt>
      <trkpt lat="46.009669052436948" lon="8.62791370600462">
        <ele>1247.45</ele>
        <time>2014-02-02T08:06:01Z</time>
      </trkpt>
      <trkpt lat="46.009694449603558" lon="8.628073465079069">
        <ele>1246.97</ele>
        <time>2014-02-02T08:06:14Z</time>
      </trkpt>
      <trkpt lat="46.009694952517748" lon="8.628086540848017">
        <ele>1246.97</ele>
        <time>2014-02-02T08:06:15Z</time>
      </trkpt>
      <trkpt lat="46.009753290563822" lon="8.628275049850345">
        <ele>1246.97</ele>
        <time>2014-02-02T08:06:33Z</time>
      </trkpt>
      <trkpt lat="46.009743819013238" lon="8.628281839191914">
        <ele>1247.45</ele>
        <time>2014-02-02T08:06:34Z</time>
      </trkpt>
      <trkpt lat="46.0095782764256" lon="8.628310170024633">
        <ele>1246.97</ele>
        <time>2014-02-02T08:06:48Z</time>
      </trkpt>
      <trkpt lat="46.009496552869678" lon="8.628320815041661">
        <ele>1246.97</ele>
        <time>2014-02-02T08:06:55Z</time>
      </trkpt>
      <trkpt lat="46.009395886212587" lon="8.628383344039321">
        <ele>1246.97</ele>
        <time>2014-02-02T08:07:08Z</time>
      </trkpt>
      <trkpt lat="46.009400747716427" lon="8.628417123109102">
        <ele>1246.97</ele>
        <time>2014-02-02T08:07:11Z</time>
      </trkpt>
      <trkpt lat="46.009414494037628" lon="8.628471437841654">
        <ele>1246.97</ele>
        <time>2014-02-02T08:07:14Z</time>
      </trkpt>
      <trkpt lat="46.009606355801225" lon="8.628454003483057">
        <ele>1246.97</ele>
        <time>2014-02-02T08:07:31Z</time>
      </trkpt>
      <trkpt lat="46.009682966396213" lon="8.628464313223958">
        <ele>1246.97</ele>
        <time>2014-02-02T08:07:38Z</time>
      </trkpt>
      <trkpt lat="46.009752117097378" lon="8.628538912162185">
        <ele>1247.45</ele>
        <time>2014-02-02T08:07:47Z</time>
      </trkpt>
      <trkpt lat="46.009798888117075" lon="8.62858165986836">
        <ele>1247.45</ele>
        <time>2014-02-02T08:07:53Z</time>
      </trkpt>
      <trkpt lat="46.009890167042613" lon="8.628667490556836">
        <ele>1247.9300000000001</ele>
        <time>2014-02-02T08:08:07Z</time>
      </trkpt>
      <trkpt lat="46.009969878941774" lon="8.628801014274359">
        <ele>1248.8900000000001</ele>
        <time>2014-02-02T08:08:19Z</time>
      </trkpt>
      <trkpt lat="46.010073814541101" lon="8.628976363688707">
        <ele>1250.8099999999999</ele>
        <time>2014-02-02T08:08:33Z</time>
      </trkpt>
      <trkpt lat="46.010136846452951" lon="8.629049705341458">
        <ele>1251.29</ele>
        <time>2014-02-02T08:08:40Z</time>
      </trkpt>
      <trkpt lat="46.010241452604532" lon="8.629155568778515">
        <ele>1252.74</ele>
        <time>2014-02-02T08:08:51Z</time>
      </trkpt>
      <trkpt lat="46.010279757902026" lon="8.629181049764156">
        <ele>1253.22</ele>
        <time>2014-02-02T08:08:55Z</time>
      </trkpt>
      <trkpt lat="46.010380759835243" lon="8.629232849925757">
        <ele>1254.6600000000001</ele>
        <time>2014-02-02T08:09:08Z</time>
      </trkpt>
      <trkpt lat="46.01043339818716" lon="8.629251876845956">
        <ele>1255.1400000000001</ele>
        <time>2014-02-02T08:09:15Z</time>
      </trkpt>
      <trkpt lat="46.01055552251637" lon="8.629302922636271">
        <ele>1256.5799999999999</ele>
        <time>2014-02-02T08:09:28Z</time>
      </trkpt>
      <trkpt lat="46.010603131726384" lon="8.629351872950792">
        <ele>1257.54</ele>
        <time>2014-02-02T08:09:32Z</time>
      </trkpt>
      <trkpt lat="46.010751742869616" lon="8.629422867670655">
        <ele>1258.98</ele>
        <time>2014-02-02T08:09:46Z</time>
      </trkpt>
      <trkpt lat="46.010900856927037" lon="8.629376012831926">
        <ele>1260.9100000000001</ele>
        <time>2014-02-02T08:10:02Z</time>
      </trkpt>
      <trkpt lat="46.011034464463592" lon="8.629312813282013">
        <ele>1262.3499999999999</ele>
        <time>2014-02-02T08:10:16Z</time>
      </trkpt>
      <trkpt lat="46.011148625984788" lon="8.629299234598875">
        <ele>1263.3099999999999</ele>
        <time>2014-02-02T08:10:29Z</time>
      </trkpt>
      <trkpt lat="46.011158851906657" lon="8.629302838817239">
        <ele>1263.3099999999999</ele>
        <time>2014-02-02T08:10:30Z</time>
      </trkpt>
      <trkpt lat="46.011280138045549" lon="8.629417084157467">
        <ele>1264.75</ele>
        <time>2014-02-02T08:10:44Z</time>
      </trkpt>
      <trkpt lat="46.011373344808817" lon="8.629545578733087">
        <ele>1266.1900000000001</ele>
        <time>2014-02-02T08:10:56Z</time>
      </trkpt>
      <trkpt lat="46.011460432782769" lon="8.629629146307707">
        <ele>1267.6400000000001</ele>
        <time>2014-02-02T08:11:07Z</time>
      </trkpt>
      <trkpt lat="46.011555399745703" lon="8.62974020652473">
        <ele>1268.5999999999999</ele>
        <time>2014-02-02T08:11:20Z</time>
      </trkpt>
      <trkpt lat="46.011688755825162" lon="8.629758479073644">
        <ele>1269.5599999999999</ele>
        <time>2014-02-02T08:11:30Z</time>
      </trkpt>
      <trkpt lat="46.011804426088929" lon="8.629749175161123">
        <ele>1270.04</ele>
        <time>2014-02-02T08:11:39Z</time>
      </trkpt>
      <trkpt lat="46.011930573731661" lon="8.629708103835583">
        <ele>1270.52</ele>
        <time>2014-02-02T08:11:52Z</time>
      </trkpt>
      <trkpt lat="46.011938033625484" lon="8.629688322544098">
        <ele>1270.04</ele>
        <time>2014-02-02T08:12:04Z</time>
      </trkpt>
      <trkpt lat="46.011959742754698" lon="8.629676923155785">
        <ele>1270.52</ele>
        <time>2014-02-02T08:12:06Z</time>
      </trkpt>
      <trkpt lat="46.012029480189085" lon="8.629650855436921">
        <ele>1270.52</ele>
        <time>2014-02-02T08:12:12Z</time>
      </trkpt>
      <trkpt lat="46.012114053592086" lon="8.629594361409545">
        <ele>1270.04</ele>
        <time>2014-02-02T08:12:20Z</time>
      </trkpt>
      <trkpt lat="46.012303400784731" lon="8.629458826035261">
        <ele>1271</ele>
        <time>2014-02-02T08:12:38Z</time>
      </trkpt>
      <trkpt lat="46.012312872335315" lon="8.629430662840605">
        <ele>1271</ele>
        <time>2014-02-02T08:12:40Z</time>
      </trkpt>
      <trkpt lat="46.012354027479887" lon="8.629369977861643">
        <ele>1271</ele>
        <time>2014-02-02T08:12:45Z</time>
      </trkpt>
      <trkpt lat="46.012404905632138" lon="8.629303090274334">
        <ele>1271.48</ele>
        <time>2014-02-02T08:12:51Z</time>
      </trkpt>
      <trkpt lat="46.012446144595742" lon="8.629256654530764">
        <ele>1271.96</ele>
        <time>2014-02-02T08:12:56Z</time>
      </trkpt>
      <trkpt lat="46.012575812637806" lon="8.629186078906059">
        <ele>1272.9200000000001</ele>
        <time>2014-02-02T08:13:10Z</time>
      </trkpt>
      <trkpt lat="46.012695170938969" lon="8.629135703667998">
        <ele>1273.4000000000001</ele>
        <time>2014-02-02T08:13:23Z</time>
      </trkpt>
      <trkpt lat="46.012818468734622" lon="8.629143750295043">
        <ele>1274.3599999999999</ele>
        <time>2014-02-02T08:13:36Z</time>
      </trkpt>
      <trkpt lat="46.0129405092448" lon="8.629140565171838">
        <ele>1276.29</ele>
        <time>2014-02-02T08:13:49Z</time>
      </trkpt>
      <trkpt lat="46.013056682422757" lon="8.629137296229601">
        <ele>1277.73</ele>
        <time>2014-02-02T08:14:01Z</time>
      </trkpt>
      <trkpt lat="46.01313010789454" lon="8.629138134419918">
        <ele>1278.6900000000001</ele>
        <time>2014-02-02T08:14:08Z</time>
      </trkpt>
      <trkpt lat="46.013220213353634" lon="8.629126567393541">
        <ele>1279.6500000000001</ele>
        <time>2014-02-02T08:14:19Z</time>
      </trkpt>
      <trkpt lat="46.013233540579677" lon="8.629138888791204">
        <ele>1279.1700000000001</ele>
        <time>2014-02-02T08:14:32Z</time>
      </trkpt>
      <trkpt lat="46.013253824785352" lon="8.629147438332439">
        <ele>1279.6500000000001</ele>
        <time>2014-02-02T08:14:51Z</time>
      </trkpt>
      <trkpt lat="46.013237563893199" lon="8.629152467474341">
        <ele>1279.1700000000001</ele>
        <time>2014-02-02T08:15:15Z</time>
      </trkpt>
      <trkpt lat="46.013236977159977" lon="8.629163866862655">
        <ele>1279.6500000000001</ele>
        <time>2014-02-02T08:15:39Z</time>
      </trkpt>
      <trkpt lat="46.013256423175335" lon="8.629182390868664">
        <ele>1278.6900000000001</ele>
        <time>2014-02-02T08:16:00Z</time>
      </trkpt>
      <trkpt lat="46.013238988816738" lon="8.629154646769166">
        <ele>1278.6900000000001</ele>
        <time>2014-02-02T08:16:21Z</time>
      </trkpt>
      <trkpt lat="46.013245359063148" lon="8.629206949844956">
        <ele>1279.6500000000001</ele>
        <time>2014-02-02T08:16:40Z</time>
      </trkpt>
      <trkpt lat="46.01323027163744" lon="8.629230000078678">
        <ele>1279.6500000000001</ele>
        <time>2014-02-02T08:17:08Z</time>
      </trkpt>
      <trkpt lat="46.013210071250796" lon="8.629244333133102">
        <ele>1279.6500000000001</ele>
        <time>2014-02-02T08:17:26Z</time>
      </trkpt>
      <trkpt lat="46.013196241110563" lon="8.629262270405889">
        <ele>1280.1300000000001</ele>
        <time>2014-02-02T08:17:45Z</time>
      </trkpt>
      <trkpt lat="46.013190457597375" lon="8.629263862967491">
        <ele>1280.1300000000001</ele>
        <time>2014-02-02T08:18:06Z</time>
      </trkpt>
      <trkpt lat="46.013197917491198" lon="8.629278112202883">
        <ele>1280.1300000000001</ele>
        <time>2014-02-02T08:18:25Z</time>
      </trkpt>
      <trkpt lat="46.01318433880806" lon="8.629282638430595">
        <ele>1280.1300000000001</ele>
        <time>2014-02-02T08:18:50Z</time>
      </trkpt>
      <trkpt lat="46.013180399313569" lon="8.629223210737109">
        <ele>1280.6099999999999</ele>
        <time>2014-02-02T08:19:18Z</time>
      </trkpt>
      <trkpt lat="46.013151314109564" lon="8.629173925146461">
        <ele>1280.6099999999999</ele>
        <time>2014-02-02T08:19:43Z</time>
      </trkpt>
      <trkpt lat="46.013200934976339" lon="8.629191275686026">
        <ele>1280.6099999999999</ele>
        <time>2014-02-02T08:20:08Z</time>
      </trkpt>
      <trkpt lat="46.013193307444453" lon="8.629109552130103">
        <ele>1281.0899999999999</ele>
        <time>2014-02-02T08:20:39Z</time>
      </trkpt>
      <trkpt lat="46.013271678239107" lon="8.629119945690036">
        <ele>1282.0599999999999</ele>
        <time>2014-02-02T08:21:03Z</time>
      </trkpt>
      <trkpt lat="46.013295147567987" lon="8.629196891561151">
        <ele>1282.54</ele>
        <time>2014-02-02T08:21:17Z</time>
      </trkpt>
      <trkpt lat="46.013313923031092" lon="8.629170656204224">
        <ele>1282.54</ele>
        <time>2014-02-02T08:21:36Z</time>
      </trkpt>
      <trkpt lat="46.013335380703211" lon="8.629175266250968">
        <ele>1282.54</ele>
        <time>2014-02-02T08:21:55Z</time>
      </trkpt>
      <trkpt lat="46.013355497270823" lon="8.629142241552472">
        <ele>1282.54</ele>
        <time>2014-02-02T08:22:13Z</time>
      </trkpt>
      <trkpt lat="46.013383157551289" lon="8.62915582023561">
        <ele>1282.54</ele>
        <time>2014-02-02T08:22:46Z</time>
      </trkpt>
      <trkpt lat="46.013486674055457" lon="8.629115838557482">
        <ele>1284.46</ele>
        <time>2014-02-02T08:23:03Z</time>
      </trkpt>
      <trkpt lat="46.013500252738595" lon="8.62911474891007">
        <ele>1284.46</ele>
        <time>2014-02-02T08:23:05Z</time>
      </trkpt>
      <trkpt lat="46.013641823083162" lon="8.629120532423258">
        <ele>1286.3800000000001</ele>
        <time>2014-02-02T08:23:18Z</time>
      </trkpt>
      <trkpt lat="46.013778280466795" lon="8.62913771532476">
        <ele>1287.8199999999999</ele>
        <time>2014-02-02T08:23:31Z</time>
      </trkpt>
      <trkpt lat="46.013870649039745" lon="8.629144756123424">
        <ele>1288.78</ele>
        <time>2014-02-02T08:23:44Z</time>
      </trkpt>
      <trkpt lat="46.014017416164279" lon="8.629127992317081">
        <ele>1290.23</ele>
        <time>2014-02-02T08:24:01Z</time>
      </trkpt>
      <trkpt lat="46.014142390340567" lon="8.629116341471672">
        <ele>1291.6700000000001</ele>
        <time>2014-02-02T08:24:15Z</time>
      </trkpt>
      <trkpt lat="46.014289744198322" lon="8.629106115549803">
        <ele>1293.1099999999999</ele>
        <time>2014-02-02T08:24:31Z</time>
      </trkpt>
      <trkpt lat="46.01441765204072" lon="8.629055488854647">
        <ele>1294.55</ele>
        <time>2014-02-02T08:24:45Z</time>
      </trkpt>
      <trkpt lat="46.014524521306157" lon="8.628986505791545">
        <ele>1295.99</ele>
        <time>2014-02-02T08:24:58Z</time>
      </trkpt>
      <trkpt lat="46.014634072780609" lon="8.628929173573852">
        <ele>1297.4400000000001</ele>
        <time>2014-02-02T08:25:11Z</time>
      </trkpt>
      <trkpt lat="46.014683274552226" lon="8.628929425030947">
        <ele>1297.9200000000001</ele>
        <time>2014-02-02T08:25:26Z</time>
      </trkpt>
      <trkpt lat="46.014675814658403" lon="8.628896148875356">
        <ele>1298.4000000000001</ele>
        <time>2014-02-02T08:25:43Z</time>
      </trkpt>
      <trkpt lat="46.014740187674761" lon="8.628835547715426">
        <ele>1298.8800000000001</ele>
        <time>2014-02-02T08:25:58Z</time>
      </trkpt>
      <trkpt lat="46.014819648116827" lon="8.628763044252992">
        <ele>1299.8399999999999</ele>
        <time>2014-02-02T08:26:11Z</time>
      </trkpt>
      <trkpt lat="46.014885697513819" lon="8.628715937957168">
        <ele>1300.8</ele>
        <time>2014-02-02T08:26:26Z</time>
      </trkpt>
      <trkpt lat="46.014916207641363" lon="8.62869749777019">
        <ele>1300.8</ele>
        <time>2014-02-02T08:26:30Z</time>
      </trkpt>
      <trkpt lat="46.015012431889772" lon="8.628600016236305">
        <ele>1302.24</ele>
        <time>2014-02-02T08:26:43Z</time>
      </trkpt>
      <trkpt lat="46.015036990866065" lon="8.628575121983886">
        <ele>1302.72</ele>
        <time>2014-02-02T08:26:56Z</time>
      </trkpt>
      <trkpt lat="46.01504847407341" lon="8.628577217459679">
        <ele>1302.24</ele>
        <time>2014-02-02T08:27:07Z</time>
      </trkpt>
      <trkpt lat="46.015067333355546" lon="8.628545198589563">
        <ele>1302.24</ele>
        <time>2014-02-02T08:27:10Z</time>
      </trkpt>
      <trkpt lat="46.015083929523826" lon="8.628532877191901">
        <ele>1302.24</ele>
        <time>2014-02-02T08:27:12Z</time>
      </trkpt>
      <trkpt lat="46.015109913423657" lon="8.628494488075376">
        <ele>1302.72</ele>
        <time>2014-02-02T08:27:16Z</time>
      </trkpt>
      <trkpt lat="46.015168083831668" lon="8.628393402323127">
        <ele>1303.2</ele>
        <time>2014-02-02T08:27:25Z</time>
      </trkpt>
      <trkpt lat="46.015214771032333" lon="8.628308912739158">
        <ele>1303.6900000000001</ele>
        <time>2014-02-02T08:27:32Z</time>
      </trkpt>
      <trkpt lat="46.015289705246687" lon="8.628181591629982">
        <ele>1303.2</ele>
        <time>2014-02-02T08:27:44Z</time>
      </trkpt>
      <trkpt lat="46.015312587842345" lon="8.628151416778565">
        <ele>1303.2</ele>
        <time>2014-02-02T08:27:47Z</time>
      </trkpt>
      <trkpt lat="46.015411745756865" lon="8.628017725422978">
        <ele>1302.72</ele>
        <time>2014-02-02T08:28:00Z</time>
      </trkpt>
      <trkpt lat="46.015440076589584" lon="8.627970702946186">
        <ele>1302.72</ele>
        <time>2014-02-02T08:28:05Z</time>
      </trkpt>
      <trkpt lat="46.015442088246346" lon="8.627924351021648">
        <ele>1302.72</ele>
        <time>2014-02-02T08:28:19Z</time>
      </trkpt>
      <trkpt lat="46.015448961406946" lon="8.627891493961215">
        <ele>1302.72</ele>
        <time>2014-02-02T08:28:35Z</time>
      </trkpt>
      <trkpt lat="46.0154496319592" lon="8.627863498404622">
        <ele>1302.72</ele>
        <time>2014-02-02T08:28:37Z</time>
      </trkpt>
      <trkpt lat="46.015471927821636" lon="8.627776158973575">
        <ele>1301.76</ele>
        <time>2014-02-02T08:28:49Z</time>
      </trkpt>
      <trkpt lat="46.015470419079065" lon="8.627693932503462">
        <ele>1302.24</ele>
        <time>2014-02-02T08:29:00Z</time>
      </trkpt>
      <trkpt lat="46.015496486797929" lon="8.627538532018662">
        <ele>1301.76</ele>
        <time>2014-02-02T08:29:11Z</time>
      </trkpt>
      <trkpt lat="46.015517441555858" lon="8.627459239214659">
        <ele>1301.28</ele>
        <time>2014-02-02T08:29:16Z</time>
      </trkpt>
      <trkpt lat="46.015528002753854" lon="8.627419257536531">
        <ele>1301.28</ele>
        <time>2014-02-02T08:29:19Z</time>
      </trkpt>
      <trkpt lat="46.015557674691081" lon="8.627373659983277">
        <ele>1300.8</ele>
        <time>2014-02-02T08:29:23Z</time>
      </trkpt>
      <trkpt lat="46.015608552843332" lon="8.627274418249726">
        <ele>1300.8</ele>
        <time>2014-02-02T08:29:37Z</time>
      </trkpt>
      <trkpt lat="46.015596650540829" lon="8.627250110730529">
        <ele>1301.28</ele>
        <time>2014-02-02T08:29:51Z</time>
      </trkpt>
      <trkpt lat="46.015623304992914" lon="8.627200992777944">
        <ele>1300.3199999999999</ele>
        <time>2014-02-02T08:30:12Z</time>
      </trkpt>
      <trkpt lat="46.015641242265701" lon="8.627138799056411">
        <ele>1300.8</ele>
        <time>2014-02-02T08:30:16Z</time>
      </trkpt>
      <trkpt lat="46.015650043264031" lon="8.626901926472783">
        <ele>1300.3199999999999</ele>
        <time>2014-02-02T08:30:30Z</time>
      </trkpt>
      <trkpt lat="46.015602853149176" lon="8.626661701127887">
        <ele>1299.3599999999999</ele>
        <time>2014-02-02T08:30:45Z</time>
      </trkpt>
      <trkpt lat="46.015549963340163" lon="8.626438742503524">
        <ele>1298.8800000000001</ele>
        <time>2014-02-02T08:30:59Z</time>
      </trkpt>
      <trkpt lat="46.015503024682403" lon="8.626218298450112">
        <ele>1298.8800000000001</ele>
        <time>2014-02-02T08:31:12Z</time>
      </trkpt>
      <trkpt lat="46.015460444614291" lon="8.625985784456134">
        <ele>1298.4000000000001</ele>
        <time>2014-02-02T08:31:27Z</time>
      </trkpt>
      <trkpt lat="46.015433873981237" lon="8.625759053975344">
        <ele>1297.9200000000001</ele>
        <time>2014-02-02T08:31:41Z</time>
      </trkpt>
      <trkpt lat="46.0154202952981" lon="8.625502400100231">
        <ele>1297.9200000000001</ele>
        <time>2014-02-02T08:31:56Z</time>
      </trkpt>
      <trkpt lat="46.015433287248015" lon="8.625344317406416">
        <ele>1297.4400000000001</ele>
        <time>2014-02-02T08:32:08Z</time>
      </trkpt>
      <trkpt lat="46.015442926436663" lon="8.625287069007754">
        <ele>1297.4400000000001</ele>
        <time>2014-02-02T08:32:11Z</time>
      </trkpt>
      <trkpt lat="46.015486512333155" lon="8.625056482851505">
        <ele>1296.96</ele>
        <time>2014-02-02T08:32:25Z</time>
      </trkpt>
      <trkpt lat="46.015488021075726" lon="8.624866800382733">
        <ele>1295.99</ele>
        <time>2014-02-02T08:32:37Z</time>
      </trkpt>
      <trkpt lat="46.015452146530151" lon="8.624630933627486">
        <ele>1295.03</ele>
        <time>2014-02-02T08:32:52Z</time>
      </trkpt>
      <trkpt lat="46.015441082417965" lon="8.624562872573733">
        <ele>1295.03</ele>
        <time>2014-02-02T08:32:56Z</time>
      </trkpt>
      <trkpt lat="46.015417445451021" lon="8.624340165406466">
        <ele>1293.5899999999999</ele>
        <time>2014-02-02T08:33:10Z</time>
      </trkpt>
      <trkpt lat="46.015521045774221" lon="8.624129611998797">
        <ele>1293.5899999999999</ele>
        <time>2014-02-02T08:33:25Z</time>
      </trkpt>
      <trkpt lat="46.015633111819625" lon="8.624013941735029">
        <ele>1292.6300000000001</ele>
        <time>2014-02-02T08:33:37Z</time>
      </trkpt>
      <trkpt lat="46.015678877010942" lon="8.623964320868254">
        <ele>1292.1500000000001</ele>
        <time>2014-02-02T08:33:42Z</time>
      </trkpt>
      <trkpt lat="46.015721289440989" lon="8.623901959508658">
        <ele>1292.1500000000001</ele>
        <time>2014-02-02T08:33:48Z</time>
      </trkpt>
      <trkpt lat="46.015724809840322" lon="8.623869773000479">
        <ele>1292.1500000000001</ele>
        <time>2014-02-02T08:33:50Z</time>
      </trkpt>
      <trkpt lat="46.015757918357849" lon="8.623671540990472">
        <ele>1291.6700000000001</ele>
        <time>2014-02-02T08:34:02Z</time>
      </trkpt>
      <trkpt lat="46.015747524797916" lon="8.623602809384465">
        <ele>1291.1900000000001</ele>
        <time>2014-02-02T08:34:06Z</time>
      </trkpt>
      <trkpt lat="46.015720786526799" lon="8.623375492170453">
        <ele>1291.1900000000001</ele>
        <time>2014-02-02T08:34:21Z</time>
      </trkpt>
      <trkpt lat="46.015710728242993" lon="8.623175416141748">
        <ele>1290.23</ele>
        <time>2014-02-02T08:34:34Z</time>
      </trkpt>
      <trkpt lat="46.015710141509771" lon="8.622982297092676">
        <ele>1289.75</ele>
        <time>2014-02-02T08:34:49Z</time>
      </trkpt>
      <trkpt lat="46.015712823718786" lon="8.622993109747767">
        <ele>1288.3</ele>
        <time>2014-02-02T08:35:00Z</time>
      </trkpt>
      <trkpt lat="46.01573009043932" lon="8.623013813048601">
        <ele>1288.78</ele>
        <time>2014-02-02T08:35:29Z</time>
      </trkpt>
      <trkpt lat="46.015744507312775" lon="8.623017081990838">
        <ele>1288.78</ele>
        <time>2014-02-02T08:35:36Z</time>
      </trkpt>
      <trkpt lat="46.015721037983894" lon="8.62302890047431">
        <ele>1289.75</ele>
        <time>2014-02-02T08:35:48Z</time>
      </trkpt>
      <trkpt lat="46.015725396573544" lon="8.623013729229569">
        <ele>1289.27</ele>
        <time>2014-02-02T08:35:50Z</time>
      </trkpt>
      <trkpt lat="46.015795720741153" lon="8.622760260477662">
        <ele>1288.78</ele>
        <time>2014-02-02T08:36:04Z</time>
      </trkpt>
      <trkpt lat="46.015861351042986" lon="8.622592119500041">
        <ele>1288.3</ele>
        <time>2014-02-02T08:36:19Z</time>
      </trkpt>
      <trkpt lat="46.015942487865686" lon="8.622424062341452">
        <ele>1287.3399999999999</ele>
        <time>2014-02-02T08:36:38Z</time>
      </trkpt>
      <trkpt lat="46.016043238341808" lon="8.622210742905736">
        <ele>1286.3800000000001</ele>
        <time>2014-02-02T08:36:53Z</time>
      </trkpt>
      <trkpt lat="46.016193274408579" lon="8.622040925547481">
        <ele>1285.9000000000001</ele>
        <time>2014-02-02T08:37:09Z</time>
      </trkpt>
      <trkpt lat="46.01628472097218" lon="8.621997591108084">
        <ele>1285.4200000000001</ele>
        <time>2014-02-02T08:37:17Z</time>
      </trkpt>
      <trkpt lat="46.016331827268004" lon="8.621981078758836">
        <ele>1284.9400000000001</ele>
        <time>2014-02-02T08:37:21Z</time>
      </trkpt>
      <trkpt lat="46.016365103423595" lon="8.621967248618603">
        <ele>1284.9400000000001</ele>
        <time>2014-02-02T08:37:24Z</time>
      </trkpt>
      <trkpt lat="46.016528885811567" lon="8.621975546702743">
        <ele>1283.98</ele>
        <time>2014-02-02T08:37:38Z</time>
      </trkpt>
      <trkpt lat="46.016670120880008" lon="8.622063053771853">
        <ele>1283.5</ele>
        <time>2014-02-02T08:37:52Z</time>
      </trkpt>
      <trkpt lat="46.016782270744443" lon="8.62222071737051">
        <ele>1282.54</ele>
        <time>2014-02-02T08:38:05Z</time>
      </trkpt>
      <trkpt lat="46.016867849975824" lon="8.622363712638617">
        <ele>1282.0599999999999</ele>
        <time>2014-02-02T08:38:17Z</time>
      </trkpt>
      <trkpt lat="46.016997518017888" lon="8.622560184448957">
        <ele>1281.0899999999999</ele>
        <time>2014-02-02T08:38:32Z</time>
      </trkpt>
      <trkpt lat="46.017135567963123" lon="8.622684488072991">
        <ele>1280.1300000000001</ele>
        <time>2014-02-02T08:38:46Z</time>
      </trkpt>
      <trkpt lat="46.017300020903349" lon="8.622801918536425">
        <ele>1279.6500000000001</ele>
        <time>2014-02-02T08:38:59Z</time>
      </trkpt>
      <trkpt lat="46.017449051141739" lon="8.622896550223231">
        <ele>1278.6900000000001</ele>
        <time>2014-02-02T08:39:13Z</time>
      </trkpt>
      <trkpt lat="46.017571343109012" lon="8.622979866340756">
        <ele>1278.21</ele>
        <time>2014-02-02T08:39:25Z</time>
      </trkpt>
      <trkpt lat="46.017702100798488" lon="8.623093860223889">
        <ele>1277.73</ele>
        <time>2014-02-02T08:39:37Z</time>
      </trkpt>
      <trkpt lat="46.017834953963757" lon="8.623206680640578">
        <ele>1277.25</ele>
        <time>2014-02-02T08:39:51Z</time>
      </trkpt>
      <trkpt lat="46.017977865412831" lon="8.623321428894997">
        <ele>1276.77</ele>
        <time>2014-02-02T08:40:06Z</time>
      </trkpt>
      <trkpt lat="46.018118346109986" lon="8.6233816947788">
        <ele>1275.8099999999999</ele>
        <time>2014-02-02T08:40:19Z</time>
      </trkpt>
      <trkpt lat="46.018199985846877" lon="8.62343592569232">
        <ele>1275.8099999999999</ele>
        <time>2014-02-02T08:40:34Z</time>
      </trkpt>
      <trkpt lat="46.018211049959064" lon="8.623454198241234">
        <ele>1275.8099999999999</ele>
        <time>2014-02-02T08:40:53Z</time>
      </trkpt>
      <trkpt lat="46.018379107117653" lon="8.623503735288978">
        <ele>1274.8499999999999</ele>
        <time>2014-02-02T08:41:06Z</time>
      </trkpt>
      <trkpt lat="46.018528640270233" lon="8.623618818819523">
        <ele>1273.8800000000001</ele>
        <time>2014-02-02T08:41:20Z</time>
      </trkpt>
      <trkpt lat="46.018651351332664" lon="8.623688304796815">
        <ele>1273.4000000000001</ele>
        <time>2014-02-02T08:41:32Z</time>
      </trkpt>
      <trkpt lat="46.018791999667883" lon="8.623829791322351">
        <ele>1272.4400000000001</ele>
        <time>2014-02-02T08:41:47Z</time>
      </trkpt>
      <trkpt lat="46.018885625526309" lon="8.624015031382442">
        <ele>1271.48</ele>
        <time>2014-02-02T08:42:01Z</time>
      </trkpt>
      <trkpt lat="46.018931223079562" lon="8.624249137938023">
        <ele>1270.52</ele>
        <time>2014-02-02T08:42:15Z</time>
      </trkpt>
      <trkpt lat="46.019008839502931" lon="8.624447956681252">
        <ele>1270.52</ele>
        <time>2014-02-02T08:42:29Z</time>
      </trkpt>
      <trkpt lat="46.019022753462195" lon="8.624506546184421">
        <ele>1270.04</ele>
        <time>2014-02-02T08:42:33Z</time>
      </trkpt>
      <trkpt lat="46.019038511440158" lon="8.624533032998443">
        <ele>1270.04</ele>
        <time>2014-02-02T08:42:35Z</time>
      </trkpt>
      <trkpt lat="46.019115122035146" lon="8.624702598899603">
        <ele>1269.5599999999999</ele>
        <time>2014-02-02T08:42:47Z</time>
      </trkpt>
      <trkpt lat="46.019150828942657" lon="8.624820783734322">
        <ele>1268.5999999999999</ele>
        <time>2014-02-02T08:42:55Z</time>
      </trkpt>
      <trkpt lat="46.01922919973731" lon="8.625018931925297">
        <ele>1268.1199999999999</ele>
        <time>2014-02-02T08:43:09Z</time>
      </trkpt>
      <trkpt lat="46.019244370982051" lon="8.625048771500588">
        <ele>1267.6400000000001</ele>
        <time>2014-02-02T08:43:11Z</time>
      </trkpt>
      <trkpt lat="46.019327854737639" lon="8.625258570536971">
        <ele>1267.1600000000001</ele>
        <time>2014-02-02T08:43:25Z</time>
      </trkpt>
      <trkpt lat="46.019421312958002" lon="8.625447414815426">
        <ele>1265.71</ele>
        <time>2014-02-02T08:43:38Z</time>
      </trkpt>
      <trkpt lat="46.019491218030453" lon="8.625557469204068">
        <ele>1266.1900000000001</ele>
        <time>2014-02-02T08:43:49Z</time>
      </trkpt>
      <trkpt lat="46.019552489742637" lon="8.62574321217835">
        <ele>1265.71</ele>
        <time>2014-02-02T08:44:02Z</time>
      </trkpt>
      <trkpt lat="46.019593812525272" lon="8.625885872170329">
        <ele>1265.23</ele>
        <time>2014-02-02T08:44:13Z</time>
      </trkpt>
      <trkpt lat="46.019598003476858" lon="8.625988215208054">
        <ele>1264.75</ele>
        <time>2014-02-02T08:44:20Z</time>
      </trkpt>
      <trkpt lat="46.019621640443802" lon="8.626158786937594">
        <ele>1264.27</ele>
        <time>2014-02-02T08:44:31Z</time>
      </trkpt>
      <trkpt lat="46.019635554403067" lon="8.626224501058459">
        <ele>1263.79</ele>
        <time>2014-02-02T08:44:36Z</time>
      </trkpt>
      <trkpt lat="46.019664304330945" lon="8.626393815502524">
        <ele>1262.8299999999999</ele>
        <time>2014-02-02T08:44:49Z</time>
      </trkpt>
      <trkpt lat="46.019653575494885" lon="8.626597998663783">
        <ele>1262.3499999999999</ele>
        <time>2014-02-02T08:45:03Z</time>
      </trkpt>
      <trkpt lat="46.019594231620431" lon="8.626767564564943">
        <ele>1261.3900000000001</ele>
        <time>2014-02-02T08:45:16Z</time>
      </trkpt>
      <trkpt lat="46.019567493349314" lon="8.62683336250484">
        <ele>1261.3900000000001</ele>
        <time>2014-02-02T08:45:22Z</time>
      </trkpt>
      <trkpt lat="46.019573444500566" lon="8.626967640593648">
        <ele>1261.3900000000001</ele>
        <time>2014-02-02T08:45:33Z</time>
      </trkpt>
      <trkpt lat="46.019653156399727" lon="8.627074928954244">
        <ele>1260.9100000000001</ele>
        <time>2014-02-02T08:45:44Z</time>
      </trkpt>
      <trkpt lat="46.019763462245464" lon="8.627083729952574">
        <ele>1259.9400000000001</ele>
        <time>2014-02-02T08:45:54Z</time>
      </trkpt>
      <trkpt lat="46.019904194399714" lon="8.627089345827699">
        <ele>1258.98</ele>
        <time>2014-02-02T08:46:10Z</time>
      </trkpt>
      <trkpt lat="46.020029587671161" lon="8.627091608941555">
        <ele>1258.98</ele>
        <time>2014-02-02T08:46:25Z</time>
      </trkpt>
      <trkpt lat="46.02018691599369" lon="8.62709186039865">
        <ele>1258.02</ele>
        <time>2014-02-02T08:46:39Z</time>
      </trkpt>
      <trkpt lat="46.020316751673818" lon="8.627198729664087">
        <ele>1256.5799999999999</ele>
        <time>2014-02-02T08:46:54Z</time>
      </trkpt>
      <trkpt lat="46.020452287048101" lon="8.627298474311829">
        <ele>1256.0999999999999</ele>
        <time>2014-02-02T08:47:07Z</time>
      </trkpt>
      <trkpt lat="46.020557312294841" lon="8.627381287515163">
        <ele>1255.6199999999999</ele>
        <time>2014-02-02T08:47:20Z</time>
      </trkpt>
      <trkpt lat="46.020617829635739" lon="8.627498717978597">
        <ele>1255.1400000000001</ele>
        <time>2014-02-02T08:47:30Z</time>
      </trkpt>
      <trkpt lat="46.020637108013034" lon="8.627553535625339">
        <ele>1255.1400000000001</ele>
        <time>2014-02-02T08:47:34Z</time>
      </trkpt>
      <trkpt lat="46.020762333646417" lon="8.627699883654714">
        <ele>1254.1800000000001</ele>
        <time>2014-02-02T08:47:48Z</time>
      </trkpt>
      <trkpt lat="46.020846990868449" lon="8.627767190337181">
        <ele>1254.1800000000001</ele>
        <time>2014-02-02T08:48:03Z</time>
      </trkpt>
      <trkpt lat="46.020978083834052" lon="8.627739362418652">
        <ele>1253.22</ele>
        <time>2014-02-02T08:48:18Z</time>
      </trkpt>
      <trkpt lat="46.021007085219026" lon="8.627730561420322">
        <ele>1253.22</ele>
        <time>2014-02-02T08:48:21Z</time>
      </trkpt>
      <trkpt lat="46.021222164854407" lon="8.627589242532849">
        <ele>1252.74</ele>
        <time>2014-02-02T08:48:39Z</time>
      </trkpt>
      <trkpt lat="46.021361807361245" lon="8.627457898110151">
        <ele>1252.25</ele>
        <time>2014-02-02T08:48:54Z</time>
      </trkpt>
      <trkpt lat="46.021443447098136" lon="8.62731465138495">
        <ele>1251.29</ele>
        <time>2014-02-02T08:49:06Z</time>
      </trkpt>
      <trkpt lat="46.021615276113153" lon="8.627240555360913">
        <ele>1250.8099999999999</ele>
        <time>2014-02-02T08:49:22Z</time>
      </trkpt>
      <trkpt lat="46.021763971075416" lon="8.627195712178946">
        <ele>1249.8499999999999</ele>
        <time>2014-02-02T08:49:39Z</time>
      </trkpt>
      <trkpt lat="46.021914761513472" lon="8.627141732722521">
        <ele>1249.8499999999999</ele>
        <time>2014-02-02T08:49:53Z</time>
      </trkpt>
      <trkpt lat="46.02203730493784" lon="8.627064367756248">
        <ele>1249.3699999999999</ele>
        <time>2014-02-02T08:50:07Z</time>
      </trkpt>
      <trkpt lat="46.022114418447018" lon="8.627002593129873">
        <ele>1248.8900000000001</ele>
        <time>2014-02-02T08:50:14Z</time>
      </trkpt>
      <trkpt lat="46.022254060953856" lon="8.626814838498831">
        <ele>1247.9300000000001</ele>
        <time>2014-02-02T08:50:30Z</time>
      </trkpt>
      <trkpt lat="46.022306866943836" lon="8.626661701127887">
        <ele>1247.45</ele>
        <time>2014-02-02T08:50:43Z</time>
      </trkpt>
      <trkpt lat="46.022316925227642" lon="8.626638818532229">
        <ele>1247.45</ele>
        <time>2014-02-02T08:50:56Z</time>
      </trkpt>
      <trkpt lat="46.022326229140162" lon="8.626600932329893">
        <ele>1247.45</ele>
        <time>2014-02-02T08:51:13Z</time>
      </trkpt>
      <trkpt lat="46.022390434518456" lon="8.626419715583324">
        <ele>1246.97</ele>
        <time>2014-02-02T08:51:26Z</time>
      </trkpt>
      <trkpt lat="46.022470984607935" lon="8.626230200752616">
        <ele>1246.01</ele>
        <time>2014-02-02T08:51:41Z</time>
      </trkpt>
      <trkpt lat="46.022523706778884" lon="8.626054767519236">
        <ele>1245.53</ele>
        <time>2014-02-02T08:51:54Z</time>
      </trkpt>
      <trkpt lat="46.022555055096745" lon="8.625956531614065">
        <ele>1244.0799999999999</ele>
        <time>2014-02-02T08:52:01Z</time>
      </trkpt>
      <trkpt lat="46.022585649043322" lon="8.625714462250471">
        <ele>1243.5999999999999</ele>
        <time>2014-02-02T08:52:17Z</time>
      </trkpt>
      <trkpt lat="46.022592773661017" lon="8.625525869429112">
        <ele>1243.1199999999999</ele>
        <time>2014-02-02T08:52:29Z</time>
      </trkpt>
      <trkpt lat="46.022648932412267" lon="8.625369882211089">
        <ele>1242.6400000000001</ele>
        <time>2014-02-02T08:52:39Z</time>
      </trkpt>
      <trkpt lat="46.022789916023612" lon="8.625307939946652">
        <ele>1242.1600000000001</ele>
        <time>2014-02-02T08:52:53Z</time>
      </trkpt>
      <trkpt lat="46.022945987060666" lon="8.625332498922944">
        <ele>1240.72</ele>
        <time>2014-02-02T08:53:07Z</time>
      </trkpt>
      <trkpt lat="46.022982196882367" lon="8.625350771471858">
        <ele>1241.2</ele>
        <time>2014-02-02T08:53:10Z</time>
      </trkpt>
      <trkpt lat="46.023118067532778" lon="8.625421766191721">
        <ele>1239.76</ele>
        <time>2014-02-02T08:53:24Z</time>
      </trkpt>
      <trkpt lat="46.023227283731103" lon="8.625507764518261">
        <ele>1240.24</ele>
        <time>2014-02-02T08:53:36Z</time>
      </trkpt>
      <trkpt lat="46.023367010056973" lon="8.625596864148974">
        <ele>1239.28</ele>
        <time>2014-02-02T08:53:49Z</time>
      </trkpt>
      <trkpt lat="46.023498186841607" lon="8.625701554119587">
        <ele>1238.3199999999999</ele>
        <time>2014-02-02T08:54:02Z</time>
      </trkpt>
      <trkpt lat="46.023640427738428" lon="8.625788390636444">
        <ele>1238.3199999999999</ele>
        <time>2014-02-02T08:54:16Z</time>
      </trkpt>
      <trkpt lat="46.023731287568808" lon="8.625824600458145">
        <ele>1237.8299999999999</ele>
        <time>2014-02-02T08:54:25Z</time>
      </trkpt>
      <trkpt lat="46.023857267573476" lon="8.625862235203385">
        <ele>1237.3499999999999</ele>
        <time>2014-02-02T08:54:38Z</time>
      </trkpt>
      <trkpt lat="46.023976793512702" lon="8.625890985131264">
        <ele>1236.8699999999999</ele>
        <time>2014-02-02T08:54:50Z</time>
      </trkpt>
      <trkpt lat="46.024090955033898" lon="8.625873299315572">
        <ele>1236.8699999999999</ele>
        <time>2014-02-02T08:55:02Z</time>
      </trkpt>
      <trkpt lat="46.024161530658603" lon="8.625876987352967">
        <ele>1236.3900000000001</ele>
        <time>2014-02-02T08:55:08Z</time>
      </trkpt>
      <trkpt lat="46.024292204529047" lon="8.62585368566215">
        <ele>1236.3900000000001</ele>
        <time>2014-02-02T08:55:21Z</time>
      </trkpt>
      <trkpt lat="46.024346435442567" lon="8.625863408669829">
        <ele>1236.3900000000001</ele>
        <time>2014-02-02T08:55:27Z</time>
      </trkpt>
      <trkpt lat="46.024359008297324" lon="8.625871203839779">
        <ele>1236.3900000000001</ele>
        <time>2014-02-02T08:55:29Z</time>
      </trkpt>
      <trkpt lat="46.024389518424869" lon="8.625900624319911">
        <ele>1236.3900000000001</ele>
        <time>2014-02-02T08:55:33Z</time>
      </trkpt>
      <trkpt lat="46.024520862847567" lon="8.625949993729591">
        <ele>1236.3900000000001</ele>
        <time>2014-02-02T08:55:46Z</time>
      </trkpt>
      <trkpt lat="46.024592276662588" lon="8.625927614048123">
        <ele>1236.3900000000001</ele>
        <time>2014-02-02T08:55:59Z</time>
      </trkpt>
      <trkpt lat="46.024614656344056" lon="8.625913616269827">
        <ele>1236.3900000000001</ele>
        <time>2014-02-02T08:56:15Z</time>
      </trkpt>
      <trkpt lat="46.02459772489965" lon="8.625901378691196">
        <ele>1236.3900000000001</ele>
        <time>2014-02-02T08:56:36Z</time>
      </trkpt>
      <trkpt lat="46.024601999670267" lon="8.625932224094868">
        <ele>1236.8699999999999</ele>
        <time>2014-02-02T08:56:41Z</time>
      </trkpt>
      <trkpt lat="46.024728482589126" lon="8.626047810539603">
        <ele>1236.8699999999999</ele>
        <time>2014-02-02T08:56:56Z</time>
      </trkpt>
      <trkpt lat="46.024766452610493" lon="8.626067927107215">
        <ele>1236.8699999999999</ele>
        <time>2014-02-02T08:57:00Z</time>
      </trkpt>
      <trkpt lat="46.024826299399137" lon="8.62603347748518">
        <ele>1237.3499999999999</ele>
        <time>2014-02-02T08:57:15Z</time>
      </trkpt>
      <trkpt lat="46.024864185601473" lon="8.62598268315196">
        <ele>1238.3199999999999</ele>
        <time>2014-02-02T08:57:31Z</time>
      </trkpt>
      <trkpt lat="46.024879440665245" lon="8.625911772251129">
        <ele>1239.28</ele>
        <time>2014-02-02T08:57:46Z</time>
      </trkpt>
      <trkpt lat="46.0248713940382" lon="8.625841615721583">
        <ele>1240.24</ele>
        <time>2014-02-02T08:58:01Z</time>
      </trkpt>
      <trkpt lat="46.02488019503653" lon="8.625830048695207">
        <ele>1240.72</ele>
        <time>2014-02-02T08:58:18Z</time>
      </trkpt>
      <trkpt lat="46.024903832003474" lon="8.625853350386024">
        <ele>1240.72</ele>
        <time>2014-02-02T08:58:43Z</time>
      </trkpt>
      <trkpt lat="46.024915482848883" lon="8.625887213274837">
        <ele>1240.72</ele>
        <time>2014-02-02T08:59:01Z</time>
      </trkpt>
      <trkpt lat="46.024900814518332" lon="8.625827366486192">
        <ele>1240.72</ele>
        <time>2014-02-02T08:59:14Z</time>
      </trkpt>
      <trkpt lat="46.024876590818167" lon="8.625815296545625">
        <ele>1240.72</ele>
        <time>2014-02-02T08:59:35Z</time>
      </trkpt>
      <trkpt lat="46.024869717657566" lon="8.625808758661151">
        <ele>1240.72</ele>
        <time>2014-02-02T08:59:52Z</time>
      </trkpt>
      <trkpt lat="46.024886230006814" lon="8.625855278223753">
        <ele>1241.2</ele>
        <time>2014-02-02T09:00:14Z</time>
      </trkpt>
      <trkpt lat="46.024953369051218" lon="8.625819487497211">
        <ele>1241.2</ele>
        <time>2014-02-02T09:00:27Z</time>
      </trkpt>
      <trkpt lat="46.025014389306307" lon="8.625688226893544">
        <ele>1243.1199999999999</ele>
        <time>2014-02-02T09:00:42Z</time>
      </trkpt>
      <trkpt lat="46.025067195296288" lon="8.625585800036788">
        <ele>1244.5599999999999</ele>
        <time>2014-02-02T09:00:55Z</time>
      </trkpt>
      <trkpt lat="46.025108769536018" lon="8.625480774790049">
        <ele>1246.49</ele>
        <time>2014-02-02T09:01:10Z</time>
      </trkpt>
      <trkpt lat="46.025135507807136" lon="8.625373654067516">
        <ele>1248.4100000000001</ele>
        <time>2014-02-02T09:01:23Z</time>
      </trkpt>
      <trkpt lat="46.025135088711977" lon="8.625243064016104">
        <ele>1248.8900000000001</ele>
        <time>2014-02-02T09:01:38Z</time>
      </trkpt>
      <trkpt lat="46.025144811719656" lon="8.625099817290902">
        <ele>1251.29</ele>
        <time>2014-02-02T09:01:55Z</time>
      </trkpt>
      <trkpt lat="46.025148583576083" lon="8.624958414584398">
        <ele>1253.22</ele>
        <time>2014-02-02T09:02:10Z</time>
      </trkpt>
      <trkpt lat="46.025161743164063" lon="8.624765463173389">
        <ele>1254.6600000000001</ele>
        <time>2014-02-02T09:02:26Z</time>
      </trkpt>
      <trkpt lat="46.025128215551376" lon="8.624635124579072">
        <ele>1256.0999999999999</ele>
        <time>2014-02-02T09:02:39Z</time>
      </trkpt>
      <trkpt lat="46.025125281885266" lon="8.624492799863219">
        <ele>1257.0599999999999</ele>
        <time>2014-02-02T09:02:53Z</time>
      </trkpt>
      <trkpt lat="46.025152103975415" lon="8.624375117942691">
        <ele>1258.02</ele>
        <time>2014-02-02T09:03:05Z</time>
      </trkpt>
      <trkpt lat="46.025176579132676" lon="8.624237067997456">
        <ele>1259.46</ele>
        <time>2014-02-02T09:03:19Z</time>
      </trkpt>
      <trkpt lat="46.025230390951037" lon="8.624090887606144">
        <ele>1260.4300000000001</ele>
        <time>2014-02-02T09:03:32Z</time>
      </trkpt>
      <trkpt lat="46.025273390114307" lon="8.6240120138973">
        <ele>1261.8699999999999</ele>
        <time>2014-02-02T09:03:42Z</time>
      </trkpt>
      <trkpt lat="46.025316137820482" lon="8.623902881518006">
        <ele>1261.8699999999999</ele>
        <time>2014-02-02T09:03:55Z</time>
      </trkpt>
      <trkpt lat="46.025356203317642" lon="8.623861139640212">
        <ele>1262.3499999999999</ele>
        <time>2014-02-02T09:04:18Z</time>
      </trkpt>
      <trkpt lat="46.025454187765718" lon="8.623816631734371">
        <ele>1263.79</ele>
        <time>2014-02-02T09:04:31Z</time>
      </trkpt>
      <trkpt lat="46.025524511933327" lon="8.623801041394472">
        <ele>1265.23</ele>
        <time>2014-02-02T09:04:42Z</time>
      </trkpt>
      <trkpt lat="46.025627525523305" lon="8.623776901513338">
        <ele>1266.1900000000001</ele>
        <time>2014-02-02T09:04:56Z</time>
      </trkpt>
      <trkpt lat="46.025655437260866" lon="8.623734153807163">
        <ele>1266.6700000000001</ele>
        <time>2014-02-02T09:05:09Z</time>
      </trkpt>
      <trkpt lat="46.025679660961032" lon="8.623711941763759">
        <ele>1266.6700000000001</ele>
        <time>2014-02-02T09:05:23Z</time>
      </trkpt>
      <trkpt lat="46.025734227150679" lon="8.623644383624196">
        <ele>1267.6400000000001</ele>
        <time>2014-02-02T09:05:38Z</time>
      </trkpt>
      <trkpt lat="46.02580857463181" lon="8.623498287051916">
        <ele>1268.5999999999999</ele>
        <time>2014-02-02T09:05:55Z</time>
      </trkpt>
      <trkpt lat="46.025864230468869" lon="8.623438524082303">
        <ele>1269.5599999999999</ele>
        <time>2014-02-02T09:06:07Z</time>
      </trkpt>
      <trkpt lat="46.025927932932973" lon="8.623328385874629">
        <ele>1270.52</ele>
        <time>2014-02-02T09:06:20Z</time>
      </trkpt>
      <trkpt lat="46.025975709781051" lon="8.623230904340744">
        <ele>1271.96</ele>
        <time>2014-02-02T09:06:36Z</time>
      </trkpt>
      <trkpt lat="46.025974536314607" lon="8.62322386354208">
        <ele>1272.4400000000001</ele>
        <time>2014-02-02T09:07:00Z</time>
      </trkpt>
      <trkpt lat="46.025964645668864" lon="8.623233083635569">
        <ele>1271.48</ele>
        <time>2014-02-02T09:07:13Z</time>
      </trkpt>
      <trkpt lat="46.025959365069866" lon="8.623238280415535">
        <ele>1271.96</ele>
        <time>2014-02-02T09:07:33Z</time>
      </trkpt>
      <trkpt lat="46.025973530486226" lon="8.623221684247255">
        <ele>1271.48</ele>
        <time>2014-02-02T09:07:56Z</time>
      </trkpt>
      <trkpt lat="46.025967244058847" lon="8.623212967067957">
        <ele>1271</ele>
        <time>2014-02-02T09:08:14Z</time>
      </trkpt>
      <trkpt lat="46.026032455265522" lon="8.623118083924055">
        <ele>1271.48</ele>
        <time>2014-02-02T09:08:27Z</time>
      </trkpt>
      <trkpt lat="46.026086937636137" lon="8.623001743108034">
        <ele>1272.9200000000001</ele>
        <time>2014-02-02T09:08:42Z</time>
      </trkpt>
      <trkpt lat="46.026110993698239" lon="8.622946925461292">
        <ele>1273.4000000000001</ele>
        <time>2014-02-02T09:08:55Z</time>
      </trkpt>
      <trkpt lat="46.026107808575034" lon="8.622871907427907">
        <ele>1274.3599999999999</ele>
        <time>2014-02-02T09:09:09Z</time>
      </trkpt>
      <trkpt lat="46.026087692007422" lon="8.62278750166297">
        <ele>1275.3299999999999</ele>
        <time>2014-02-02T09:09:22Z</time>
      </trkpt>
      <trkpt lat="46.026093307882547" lon="8.622750705108047">
        <ele>1275.8099999999999</ele>
        <time>2014-02-02T09:09:26Z</time>
      </trkpt>
      <trkpt lat="46.026081573218107" lon="8.622620869427919">
        <ele>1276.29</ele>
        <time>2014-02-02T09:09:38Z</time>
      </trkpt>
      <trkpt lat="46.026058522984385" lon="8.622515005990863">
        <ele>1277.25</ele>
        <time>2014-02-02T09:09:50Z</time>
      </trkpt>
      <trkpt lat="46.026073526591063" lon="8.622400593012571">
        <ele>1278.21</ele>
        <time>2014-02-02T09:10:03Z</time>
      </trkpt>
      <trkpt lat="46.026085512712598" lon="8.622294645756483">
        <ele>1279.1700000000001</ele>
        <time>2014-02-02T09:10:16Z</time>
      </trkpt>
      <trkpt lat="46.026141168549657" lon="8.622208312153816">
        <ele>1279.6500000000001</ele>
        <time>2014-02-02T09:10:30Z</time>
      </trkpt>
      <trkpt lat="46.026203278452158" lon="8.622185681015253">
        <ele>1280.6099999999999</ele>
        <time>2014-02-02T09:10:41Z</time>
      </trkpt>
      <trkpt lat="46.026280056685209" lon="8.622163720428944">
        <ele>1281.0899999999999</ele>
        <time>2014-02-02T09:10:55Z</time>
      </trkpt>
      <trkpt lat="46.026358343660831" lon="8.622157266363502">
        <ele>1282.54</ele>
        <time>2014-02-02T09:11:09Z</time>
      </trkpt>
      <trkpt lat="46.026427242904902" lon="8.622129689902067">
        <ele>1283.02</ele>
        <time>2014-02-02T09:11:21Z</time>
      </trkpt>
      <trkpt lat="46.02647946216166" lon="8.622049307450652">
        <ele>1283.5</ele>
        <time>2014-02-02T09:11:35Z</time>
      </trkpt>
      <trkpt lat="46.026515336707234" lon="8.621958447620273">
        <ele>1283.98</ele>
        <time>2014-02-02T09:11:48Z</time>
      </trkpt>
      <trkpt lat="46.026544338092208" lon="8.621847303584218">
        <ele>1284.46</ele>
        <time>2014-02-02T09:12:02Z</time>
      </trkpt>
      <trkpt lat="46.026560263708234" lon="8.621767843142152">
        <ele>1285.4200000000001</ele>
        <time>2014-02-02T09:12:14Z</time>
      </trkpt>
      <trkpt lat="46.026604184880853" lon="8.621678240597248">
        <ele>1286.8599999999999</ele>
        <time>2014-02-02T09:12:30Z</time>
      </trkpt>
      <trkpt lat="46.026622876524925" lon="8.621577406302095">
        <ele>1287.8199999999999</ele>
        <time>2014-02-02T09:12:44Z</time>
      </trkpt>
      <trkpt lat="46.026649530977011" lon="8.621457628905773">
        <ele>1288.3</ele>
        <time>2014-02-02T09:12:57Z</time>
      </trkpt>
      <trkpt lat="46.026690350845456" lon="8.621378252282739">
        <ele>1289.27</ele>
        <time>2014-02-02T09:13:10Z</time>
      </trkpt>
      <trkpt lat="46.026709964498878" lon="8.621236514300108">
        <ele>1290.23</ele>
        <time>2014-02-02T09:13:25Z</time>
      </trkpt>
      <trkpt lat="46.026742151007056" lon="8.621152443811297">
        <ele>1291.6700000000001</ele>
        <time>2014-02-02T09:13:39Z</time>
      </trkpt>
      <trkpt lat="46.026787078008056" lon="8.621058901771903">
        <ele>1292.1500000000001</ele>
        <time>2014-02-02T09:13:52Z</time>
      </trkpt>
      <trkpt lat="46.026803255081177" lon="8.621022775769234">
        <ele>1292.1500000000001</ele>
        <time>2014-02-02T09:13:56Z</time>
      </trkpt>
      <trkpt lat="46.026834351941943" lon="8.620942141860724">
        <ele>1293.1099999999999</ele>
        <time>2014-02-02T09:14:08Z</time>
      </trkpt>
      <trkpt lat="46.026871986687183" lon="8.62083007581532">
        <ele>1293.5899999999999</ele>
        <time>2014-02-02T09:14:21Z</time>
      </trkpt>
      <trkpt lat="46.026919428259134" lon="8.620729744434357">
        <ele>1295.03</ele>
        <time>2014-02-02T09:14:36Z</time>
      </trkpt>
      <trkpt lat="46.026974078267813" lon="8.620641734451056">
        <ele>1295.51</ele>
        <time>2014-02-02T09:14:51Z</time>
      </trkpt>
      <trkpt lat="46.027001487091184" lon="8.620562944561243">
        <ele>1296.96</ele>
        <time>2014-02-02T09:15:02Z</time>
      </trkpt>
      <trkpt lat="46.027041552588344" lon="8.620455656200647">
        <ele>1297.9200000000001</ele>
        <time>2014-02-02T09:15:16Z</time>
      </trkpt>
      <trkpt lat="46.027085138484836" lon="8.620345685631037">
        <ele>1298.8800000000001</ele>
        <time>2014-02-02T09:15:28Z</time>
      </trkpt>
      <trkpt lat="46.027119755744934" lon="8.620264381170273">
        <ele>1299.3599999999999</ele>
        <time>2014-02-02T09:15:42Z</time>
      </trkpt>
      <trkpt lat="46.027124784886837" lon="8.620260776951909">
        <ele>1299.3599999999999</ele>
        <time>2014-02-02T09:15:43Z</time>
      </trkpt>
      <trkpt lat="46.027170969173312" lon="8.620196655392647">
        <ele>1300.3199999999999</ele>
        <time>2014-02-02T09:15:56Z</time>
      </trkpt>
      <trkpt lat="46.027226289734244" lon="8.620148627087474">
        <ele>1300.8</ele>
        <time>2014-02-02T09:16:10Z</time>
      </trkpt>
      <trkpt lat="46.027257386595011" lon="8.620123062282801">
        <ele>1301.28</ele>
        <time>2014-02-02T09:16:22Z</time>
      </trkpt>
      <trkpt lat="46.027362076565623" lon="8.620009319856763">
        <ele>1302.24</ele>
        <time>2014-02-02T09:16:40Z</time>
      </trkpt>
      <trkpt lat="46.027373056858778" lon="8.619962967932224">
        <ele>1303.2</ele>
        <time>2014-02-02T09:16:52Z</time>
      </trkpt>
      <trkpt lat="46.02737951092422" lon="8.619871605187655">
        <ele>1304.1700000000001</ele>
        <time>2014-02-02T09:17:05Z</time>
      </trkpt>
      <trkpt lat="46.027390658855438" lon="8.619792144745588">
        <ele>1304.6500000000001</ele>
        <time>2014-02-02T09:17:17Z</time>
      </trkpt>
      <trkpt lat="46.027398956939578" lon="8.619707906618714">
        <ele>1305.6099999999999</ele>
        <time>2014-02-02T09:17:28Z</time>
      </trkpt>
      <trkpt lat="46.02741421200335" lon="8.619616711512208">
        <ele>1305.6099999999999</ele>
        <time>2014-02-02T09:17:40Z</time>
      </trkpt>
      <trkpt lat="46.027434580028057" lon="8.619514871388674">
        <ele>1306.0899999999999</ele>
        <time>2014-02-02T09:17:53Z</time>
      </trkpt>
      <trkpt lat="46.027453942224383" lon="8.619449827820063">
        <ele>1306.5699999999999</ele>
        <time>2014-02-02T09:18:05Z</time>
      </trkpt>
      <trkpt lat="46.027498533949256" lon="8.619346478953958">
        <ele>1308.01</ele>
        <time>2014-02-02T09:18:20Z</time>
      </trkpt>
      <trkpt lat="46.027502724900842" lon="8.619311442598701">
        <ele>1308.49</ele>
        <time>2014-02-02T09:18:31Z</time>
      </trkpt>
      <trkpt lat="46.027500042691827" lon="8.619299624115229">
        <ele>1308.97</ele>
        <time>2014-02-02T09:18:54Z</time>
      </trkpt>
      <trkpt lat="46.027505239471793" lon="8.619222426787019">
        <ele>1309.45</ele>
        <time>2014-02-02T09:19:07Z</time>
      </trkpt>
      <trkpt lat="46.027495013549924" lon="8.619199292734265">
        <ele>1309.45</ele>
        <time>2014-02-02T09:19:23Z</time>
      </trkpt>
      <trkpt lat="46.027484284713864" lon="8.619104409590364">
        <ele>1309.9300000000001</ele>
        <time>2014-02-02T09:19:36Z</time>
      </trkpt>
      <trkpt lat="46.027441956102848" lon="8.619057470932603">
        <ele>1310.9000000000001</ele>
        <time>2014-02-02T09:19:50Z</time>
      </trkpt>
      <trkpt lat="46.027406416833401" lon="8.61902461387217">
        <ele>1311.3800000000001</ele>
        <time>2014-02-02T09:20:07Z</time>
      </trkpt>
      <trkpt lat="46.027363752946258" lon="8.6189557146281">
        <ele>1312.3399999999999</ele>
        <time>2014-02-02T09:20:20Z</time>
      </trkpt>
      <trkpt lat="46.027343887835741" lon="8.618878433480859">
        <ele>1312.3399999999999</ele>
        <time>2014-02-02T09:20:31Z</time>
      </trkpt>
      <trkpt lat="46.027338355779648" lon="8.618858568370342">
        <ele>1312.8199999999999</ele>
        <time>2014-02-02T09:20:33Z</time>
      </trkpt>
      <trkpt lat="46.027284543961287" lon="8.618762847036123">
        <ele>1313.78</ele>
        <time>2014-02-02T09:20:46Z</time>
      </trkpt>
      <trkpt lat="46.027251435443759" lon="8.618685146793723">
        <ele>1314.26</ele>
        <time>2014-02-02T09:20:59Z</time>
      </trkpt>
      <trkpt lat="46.027206927537918" lon="8.618606273084879">
        <ele>1315.22</ele>
        <time>2014-02-02T09:21:11Z</time>
      </trkpt>
      <trkpt lat="46.027169628068805" lon="8.618532847613096">
        <ele>1316.1800000000001</ele>
        <time>2014-02-02T09:21:23Z</time>
      </trkpt>
      <trkpt lat="46.027163341641426" lon="8.618477191776037">
        <ele>1316.6600000000001</ele>
        <time>2014-02-02T09:21:37Z</time>
      </trkpt>
      <trkpt lat="46.027154289186001" lon="8.618452632799745">
        <ele>1317.1400000000001</ele>
        <time>2014-02-02T09:21:48Z</time>
      </trkpt>
      <trkpt lat="46.027124868705869" lon="8.618402676656842">
        <ele>1317.6199999999999</ele>
        <time>2014-02-02T09:22:05Z</time>
      </trkpt>
      <trkpt lat="46.027117911726236" lon="8.618379207327962">
        <ele>1317.1400000000001</ele>
        <time>2014-02-02T09:22:10Z</time>
      </trkpt>
      <trkpt lat="46.027100142091513" lon="8.618258172646165">
        <ele>1318.0999999999999</ele>
        <time>2014-02-02T09:22:25Z</time>
      </trkpt>
      <trkpt lat="46.0270921792835" lon="8.618183406069875">
        <ele>1319.0699999999999</ele>
        <time>2014-02-02T09:22:36Z</time>
      </trkpt>
      <trkpt lat="46.027102908119559" lon="8.618183489888907">
        <ele>1318.5899999999999</ele>
        <time>2014-02-02T09:22:49Z</time>
      </trkpt>
      <trkpt lat="46.027100142091513" lon="8.61809422262013">
        <ele>1319.55</ele>
        <time>2014-02-02T09:23:02Z</time>
      </trkpt>
      <trkpt lat="46.027090083807707" lon="8.618076620623469">
        <ele>1319.0699999999999</ele>
        <time>2014-02-02T09:23:16Z</time>
      </trkpt>
      <trkpt lat="46.027085306122899" lon="8.618082739412785">
        <ele>1319.55</ele>
        <time>2014-02-02T09:23:31Z</time>
      </trkpt>
      <trkpt lat="46.027105087414384" lon="8.617972349748015">
        <ele>1320.03</ele>
        <time>2014-02-02T09:23:52Z</time>
      </trkpt>
      <trkpt lat="46.027097040787339" lon="8.617855757474899">
        <ele>1320.51</ele>
        <time>2014-02-02T09:24:04Z</time>
      </trkpt>
      <trkpt lat="46.02709804661572" lon="8.617768082767725">
        <ele>1321.95</ele>
        <time>2014-02-02T09:24:17Z</time>
      </trkpt>
      <trkpt lat="46.027097795158625" lon="8.617662470787764">
        <ele>1321.95</ele>
        <time>2014-02-02T09:24:31Z</time>
      </trkpt>
      <trkpt lat="46.027109613642097" lon="8.61766473390162">
        <ele>1321.95</ele>
        <time>2014-02-02T09:24:49Z</time>
      </trkpt>
      <trkpt lat="46.02711221203208" lon="8.617558032274246">
        <ele>1322.9100000000001</ele>
        <time>2014-02-02T09:25:03Z</time>
      </trkpt>
      <trkpt lat="46.027119923382998" lon="8.61747220158577">
        <ele>1323.3900000000001</ele>
        <time>2014-02-02T09:25:17Z</time>
      </trkpt>
      <trkpt lat="46.027112882584333" lon="8.61742333509028">
        <ele>1323.8699999999999</ele>
        <time>2014-02-02T09:25:30Z</time>
      </trkpt>
      <trkpt lat="46.027087736874819" lon="8.617423586547375">
        <ele>1324.3499999999999</ele>
        <time>2014-02-02T09:25:44Z</time>
      </trkpt>
      <trkpt lat="46.027125455439091" lon="8.617334319278598">
        <ele>1324.8299999999999</ele>
        <time>2014-02-02T09:25:55Z</time>
      </trkpt>
      <trkpt lat="46.027126461267471" lon="8.617353932932019">
        <ele>1324.3499999999999</ele>
        <time>2014-02-02T09:26:14Z</time>
      </trkpt>
      <trkpt lat="46.027144063264132" lon="8.617357620969415">
        <ele>1324.8299999999999</ele>
        <time>2014-02-02T09:26:31Z</time>
      </trkpt>
      <trkpt lat="46.027133837342262" lon="8.617371702566743">
        <ele>1324.8299999999999</ele>
        <time>2014-02-02T09:26:50Z</time>
      </trkpt>
      <trkpt lat="46.027161413803697" lon="8.617291152477264">
        <ele>1324.8299999999999</ele>
        <time>2014-02-02T09:27:10Z</time>
      </trkpt>
      <trkpt lat="46.027166526764631" lon="8.617284949868918">
        <ele>1324.8299999999999</ele>
        <time>2014-02-02T09:27:28Z</time>
      </trkpt>
      <trkpt lat="46.027178009971976" lon="8.617218732833862">
        <ele>1325.8</ele>
        <time>2014-02-02T09:27:39Z</time>
      </trkpt>
      <trkpt lat="46.02718940936029" lon="8.617119155824184">
        <ele>1326.28</ele>
        <time>2014-02-02T09:27:50Z</time>
      </trkpt>
      <trkpt lat="46.027198545634747" lon="8.617028295993805">
        <ele>1326.76</ele>
        <time>2014-02-02T09:28:04Z</time>
      </trkpt>
      <trkpt lat="46.027217321097851" lon="8.61693374812603">
        <ele>1327.72</ele>
        <time>2014-02-02T09:28:17Z</time>
      </trkpt>
      <trkpt lat="46.027226625010371" lon="8.616905920207501">
        <ele>1328.2</ele>
        <time>2014-02-02T09:28:29Z</time>
      </trkpt>
      <trkpt lat="46.027250345796347" lon="8.616830818355084">
        <ele>1328.6800000000001</ele>
        <time>2014-02-02T09:28:40Z</time>
      </trkpt>
      <trkpt lat="46.027269540354609" lon="8.616753201931715">
        <ele>1329.6400000000001</ele>
        <time>2014-02-02T09:28:51Z</time>
      </trkpt>
      <trkpt lat="46.027285801246762" lon="8.616606183350086">
        <ele>1331.0799999999999</ele>
        <time>2014-02-02T09:29:06Z</time>
      </trkpt>
      <trkpt lat="46.027294937521219" lon="8.616522448137403">
        <ele>1331.0799999999999</ele>
        <time>2014-02-02T09:29:17Z</time>
      </trkpt>
      <trkpt lat="46.027336344122887" lon="8.616443071514368">
        <ele>1331.0799999999999</ele>
        <time>2014-02-02T09:29:30Z</time>
      </trkpt>
      <trkpt lat="46.027364591136575" lon="8.616330586373806">
        <ele>1332.52</ele>
        <time>2014-02-02T09:29:44Z</time>
      </trkpt>
      <trkpt lat="46.027395771816373" lon="8.61623109318316">
        <ele>1333.97</ele>
        <time>2014-02-02T09:29:57Z</time>
      </trkpt>
      <trkpt lat="46.027409937232733" lon="8.616214329376817">
        <ele>1333.97</ele>
        <time>2014-02-02T09:30:01Z</time>
      </trkpt>
      <trkpt lat="46.027465760707855" lon="8.616119865328074">
        <ele>1334.9300000000001</ele>
        <time>2014-02-02T09:30:14Z</time>
      </trkpt>
      <trkpt lat="46.027525942772627" lon="8.616027748212218">
        <ele>1335.4100000000001</ele>
        <time>2014-02-02T09:30:26Z</time>
      </trkpt>
      <trkpt lat="46.027534659951925" lon="8.615985838696361">
        <ele>1334.9300000000001</ele>
        <time>2014-02-02T09:30:40Z</time>
      </trkpt>
      <trkpt lat="46.027577072381973" lon="8.61589347012341">
        <ele>1336.3699999999999</ele>
        <time>2014-02-02T09:30:53Z</time>
      </trkpt>
      <trkpt lat="46.027612276375294" lon="8.615785678848624">
        <ele>1337.3299999999999</ele>
        <time>2014-02-02T09:31:09Z</time>
      </trkpt>
      <trkpt lat="46.027653766795993" lon="8.615688113495708">
        <ele>1337.8099999999999</ele>
        <time>2014-02-02T09:31:25Z</time>
      </trkpt>
      <trkpt lat="46.027665752917528" lon="8.615691466256976">
        <ele>1337.8099999999999</ele>
        <time>2014-02-02T09:31:45Z</time>
      </trkpt>
      <trkpt lat="46.027666088193655" lon="8.615694986656308">
        <ele>1337.8099999999999</ele>
        <time>2014-02-02T09:31:46Z</time>
      </trkpt>
      <trkpt lat="46.027691820636392" lon="8.615618795156479">
        <ele>1338.29</ele>
        <time>2014-02-02T09:31:56Z</time>
      </trkpt>
      <trkpt lat="46.027742447331548" lon="8.615504633635283">
        <ele>1339.73</ele>
        <time>2014-02-02T09:32:09Z</time>
      </trkpt>
      <trkpt lat="46.02774990722537" lon="8.61548937857151">
        <ele>1339.73</ele>
        <time>2014-02-02T09:32:11Z</time>
      </trkpt>
      <trkpt lat="46.027775136753917" lon="8.615398937836289">
        <ele>1340.7</ele>
        <time>2014-02-02T09:32:26Z</time>
      </trkpt>
      <trkpt lat="46.02784319780767" lon="8.615292487666011">
        <ele>1341.6600000000001</ele>
        <time>2014-02-02T09:32:40Z</time>
      </trkpt>
      <trkpt lat="46.027898015454412" lon="8.615218559280038">
        <ele>1343.0999999999999</ele>
        <time>2014-02-02T09:32:53Z</time>
      </trkpt>
      <trkpt lat="46.027932465076447" lon="8.615146139636636">
        <ele>1343.0999999999999</ele>
        <time>2014-02-02T09:33:06Z</time>
      </trkpt>
      <trkpt lat="46.027979739010334" lon="8.615084197372198">
        <ele>1344.0599999999999</ele>
        <time>2014-02-02T09:33:24Z</time>
      </trkpt>
      <trkpt lat="46.028025168925524" lon="8.615011190995574">
        <ele>1345.02</ele>
        <time>2014-02-02T09:33:37Z</time>
      </trkpt>
      <trkpt lat="46.028024749830365" lon="8.614983782172203">
        <ele>1344.54</ele>
        <time>2014-02-02T09:33:39Z</time>
      </trkpt>
      <trkpt lat="46.028052996844053" lon="8.614877248182893">
        <ele>1345.5</ele>
        <time>2014-02-02T09:33:52Z</time>
      </trkpt>
      <trkpt lat="46.028063390403986" lon="8.614776665344834">
        <ele>1346.46</ele>
        <time>2014-02-02T09:34:04Z</time>
      </trkpt>
      <trkpt lat="46.028074286878109" lon="8.614675998687744">
        <ele>1347.9100000000001</ele>
        <time>2014-02-02T09:34:18Z</time>
      </trkpt>
      <trkpt lat="46.028051907196641" lon="8.614641549065709">
        <ele>1347.9100000000001</ele>
        <time>2014-02-02T09:34:32Z</time>
      </trkpt>
      <trkpt lat="46.028002789244056" lon="8.614585474133492">
        <ele>1348.8699999999999</ele>
        <time>2014-02-02T09:34:47Z</time>
      </trkpt>
      <trkpt lat="46.02797613479197" lon="8.614546582102776">
        <ele>1349.3499999999999</ele>
        <time>2014-02-02T09:35:00Z</time>
      </trkpt>
      <trkpt lat="46.027938416227698" lon="8.614458907395601">
        <ele>1349.8299999999999</ele>
        <time>2014-02-02T09:35:19Z</time>
      </trkpt>
      <trkpt lat="46.0279262624681" lon="8.614471228793263">
        <ele>1350.3099999999999</ele>
        <time>2014-02-02T09:35:40Z</time>
      </trkpt>
      <trkpt lat="46.027895333245397" lon="8.614431666210294">
        <ele>1350.79</ele>
        <time>2014-02-02T09:36:00Z</time>
      </trkpt>
      <trkpt lat="46.027838420122862" lon="8.61431666649878">
        <ele>1351.75</ele>
        <time>2014-02-02T09:36:15Z</time>
      </trkpt>
      <trkpt lat="46.027838755398989" lon="8.614346170797944">
        <ele>1351.27</ele>
        <time>2014-02-02T09:36:31Z</time>
      </trkpt>
      <trkpt lat="46.027825931087136" lon="8.614304512739182">
        <ele>1351.27</ele>
        <time>2014-02-02T09:36:52Z</time>
      </trkpt>
      <trkpt lat="46.027818471193314" lon="8.61414953134954">
        <ele>1352.23</ele>
        <time>2014-02-02T09:37:08Z</time>
      </trkpt>
      <trkpt lat="46.027827691286802" lon="8.614037968218327">
        <ele>1353.1900000000001</ele>
        <time>2014-02-02T09:37:22Z</time>
      </trkpt>
      <trkpt lat="46.027846969664097" lon="8.613923219963908">
        <ele>1354.1500000000001</ele>
        <time>2014-02-02T09:37:36Z</time>
      </trkpt>
      <trkpt lat="46.027832804247737" lon="8.613952472805977">
        <ele>1354.6300000000001</ele>
        <time>2014-02-02T09:37:52Z</time>
      </trkpt>
      <trkpt lat="46.027846299111843" lon="8.613929338753223">
        <ele>1354.6300000000001</ele>
        <time>2014-02-02T09:38:17Z</time>
      </trkpt>
      <trkpt lat="46.0278847720474" lon="8.613796150311828">
        <ele>1355.5999999999999</ele>
        <time>2014-02-02T09:38:32Z</time>
      </trkpt>
      <trkpt lat="46.027895417064428" lon="8.613735800608993">
        <ele>1355.1199999999999</ele>
        <time>2014-02-02T09:38:44Z</time>
      </trkpt>
      <trkpt lat="46.027895752340555" lon="8.613748792558909">
        <ele>1355.5999999999999</ele>
        <time>2014-02-02T09:39:02Z</time>
      </trkpt>
      <trkpt lat="46.027912180870771" lon="8.613675618544221">
        <ele>1355.5999999999999</ele>
        <time>2014-02-02T09:39:23Z</time>
      </trkpt>
      <trkpt lat="46.027944618836045" lon="8.613607557490468">
        <ele>1357.04</ele>
        <time>2014-02-02T09:39:39Z</time>
      </trkpt>
      <trkpt lat="46.027966579422355" lon="8.613618286326528">
        <ele>1356.5599999999999</ele>
        <time>2014-02-02T09:39:54Z</time>
      </trkpt>
      <trkpt lat="46.027961047366261" lon="8.61355684697628">
        <ele>1357.04</ele>
        <time>2014-02-02T09:40:07Z</time>
      </trkpt>
      <trkpt lat="46.027981918305159" lon="8.613520301878452">
        <ele>1357.04</ele>
        <time>2014-02-02T09:40:19Z</time>
      </trkpt>
      <trkpt lat="46.0280073992908" lon="8.613495239987969">
        <ele>1357.52</ele>
        <time>2014-02-02T09:40:33Z</time>
      </trkpt>
      <trkpt lat="46.028022151440382" lon="8.613447295501828">
        <ele>1358.96</ele>
        <time>2014-02-02T09:40:47Z</time>
      </trkpt>
      <trkpt lat="46.028015445917845" lon="8.613447044044733">
        <ele>1358.48</ele>
        <time>2014-02-02T09:41:01Z</time>
      </trkpt>
      <trkpt lat="46.028028186410666" lon="8.613417455926538">
        <ele>1358.48</ele>
        <time>2014-02-02T09:41:15Z</time>
      </trkpt>
      <trkpt lat="46.028043692931533" lon="8.613383006304503">
        <ele>1359.9200000000001</ele>
        <time>2014-02-02T09:41:30Z</time>
      </trkpt>
      <trkpt lat="46.028023744001985" lon="8.613356435671449">
        <ele>1358.48</ele>
        <time>2014-02-02T09:41:43Z</time>
      </trkpt>
      <trkpt lat="46.028023241087794" lon="8.613339001312852">
        <ele>1358.48</ele>
        <time>2014-02-02T09:41:56Z</time>
      </trkpt>
      <trkpt lat="46.028018211945891" lon="8.613309329375625">
        <ele>1359.4400000000001</ele>
        <time>2014-02-02T09:42:07Z</time>
      </trkpt>
      <trkpt lat="46.027988959103823" lon="8.613271107897162">
        <ele>1360.8800000000001</ele>
        <time>2014-02-02T09:42:19Z</time>
      </trkpt>
      <trkpt lat="46.027999352663755" lon="8.613249734044075">
        <ele>1360.4000000000001</ele>
        <time>2014-02-02T09:42:32Z</time>
      </trkpt>
      <trkpt lat="46.028013015165925" lon="8.613246297463775">
        <ele>1360.4000000000001</ele>
        <time>2014-02-02T09:42:49Z</time>
      </trkpt>
      <trkpt lat="46.028002621605992" lon="8.613255182281137">
        <ele>1361.3599999999999</ele>
        <time>2014-02-02T09:43:05Z</time>
      </trkpt>
      <trkpt lat="46.027981080114841" lon="8.613181505352259">
        <ele>1362.3299999999999</ele>
        <time>2014-02-02T09:43:19Z</time>
      </trkpt>
      <trkpt lat="46.027920562773943" lon="8.613105984404683">
        <ele>1362.8099999999999</ele>
        <time>2014-02-02T09:43:33Z</time>
      </trkpt>
      <trkpt lat="46.027854010462761" lon="8.61303105019033">
        <ele>1363.77</ele>
        <time>2014-02-02T09:43:47Z</time>
      </trkpt>
      <trkpt lat="46.027804054319859" lon="8.612972041592002">
        <ele>1364.25</ele>
        <time>2014-02-02T09:44:00Z</time>
      </trkpt>
      <trkpt lat="46.027761474251747" lon="8.612905824556947">
        <ele>1365.21</ele>
        <time>2014-02-02T09:44:13Z</time>
      </trkpt>
      <trkpt lat="46.027724845334888" lon="8.61281898804009">
        <ele>1365.6900000000001</ele>
        <time>2014-02-02T09:44:27Z</time>
      </trkpt>
      <trkpt lat="46.027704896405339" lon="8.612753441557288">
        <ele>1366.1700000000001</ele>
        <time>2014-02-02T09:44:39Z</time>
      </trkpt>
      <trkpt lat="46.02768000215292" lon="8.612637436017394">
        <ele>1366.6500000000001</ele>
        <time>2014-02-02T09:44:53Z</time>
      </trkpt>
      <trkpt lat="46.027671955525875" lon="8.612534757703543">
        <ele>1367.6099999999999</ele>
        <time>2014-02-02T09:45:06Z</time>
      </trkpt>
      <trkpt lat="46.027669105678797" lon="8.612480023875833">
        <ele>1368.0899999999999</ele>
        <time>2014-02-02T09:45:25Z</time>
      </trkpt>
      <trkpt lat="46.027665669098496" lon="8.612456973642111">
        <ele>1368.5699999999999</ele>
        <time>2014-02-02T09:45:42Z</time>
      </trkpt>
      <trkpt lat="46.027650246396661" lon="8.612341051921248">
        <ele>1369.05</ele>
        <time>2014-02-02T09:45:56Z</time>
      </trkpt>
      <trkpt lat="46.027647648006678" lon="8.612238708883524">
        <ele>1369.54</ele>
        <time>2014-02-02T09:46:10Z</time>
      </trkpt>
      <trkpt lat="46.027648486196995" lon="8.612100575119257">
        <ele>1370.98</ele>
        <time>2014-02-02T09:46:28Z</time>
      </trkpt>
      <trkpt lat="46.027689222246408" lon="8.612103424966335">
        <ele>1370.98</ele>
        <time>2014-02-02T09:46:43Z</time>
      </trkpt>
      <trkpt lat="46.027718223631382" lon="8.612164109945297">
        <ele>1370.98</ele>
        <time>2014-02-02T09:47:02Z</time>
      </trkpt>
      <trkpt lat="46.027762563899159" lon="8.6122434027493">
        <ele>1371.9400000000001</ele>
        <time>2014-02-02T09:47:16Z</time>
      </trkpt>
      <trkpt lat="46.027805898338556" lon="8.61236116848886">
        <ele>1372.4200000000001</ele>
        <time>2014-02-02T09:47:32Z</time>
      </trkpt>
      <trkpt lat="46.027822410687804" lon="8.612388912588358">
        <ele>1372.9000000000001</ele>
        <time>2014-02-02T09:47:46Z</time>
      </trkpt>
      <trkpt lat="46.027829619124532" lon="8.612402742728591">
        <ele>1372.4200000000001</ele>
        <time>2014-02-02T09:48:05Z</time>
      </trkpt>
      <trkpt lat="46.027887873351574" lon="8.612447250634432">
        <ele>1373.8599999999999</ele>
        <time>2014-02-02T09:48:22Z</time>
      </trkpt>
      <trkpt lat="46.027950989082456" lon="8.61247792840004">
        <ele>1374.8199999999999</ele>
        <time>2014-02-02T09:48:38Z</time>
      </trkpt>
      <trkpt lat="46.028030030429363" lon="8.612524196505547">
        <ele>1375.3</ele>
        <time>2014-02-02T09:48:54Z</time>
      </trkpt>
      <trkpt lat="46.028088619932532" lon="8.612567028030753">
        <ele>1376.26</ele>
        <time>2014-02-02T09:49:08Z</time>
      </trkpt>
      <trkpt lat="46.028115944936872" lon="8.612601142376661">
        <ele>1376.26</ele>
        <time>2014-02-02T09:49:20Z</time>
      </trkpt>
      <trkpt lat="46.028144275769591" lon="8.612630814313889">
        <ele>1376.26</ele>
        <time>2014-02-02T09:49:33Z</time>
      </trkpt>
      <trkpt lat="46.028193477541208" lon="8.612652020528913">
        <ele>1377.23</ele>
        <time>2014-02-02T09:49:46Z</time>
      </trkpt>
      <trkpt lat="46.02817889302969" lon="8.612645315006375">
        <ele>1377.23</ele>
        <time>2014-02-02T09:50:08Z</time>
      </trkpt>
      <trkpt lat="46.028217198327184" lon="8.612670795992017">
        <ele>1377.71</ele>
        <time>2014-02-02T09:50:26Z</time>
      </trkpt>
      <trkpt lat="46.028267908841372" lon="8.612732067704201">
        <ele>1377.71</ele>
        <time>2014-02-02T09:50:40Z</time>
      </trkpt>
      <trkpt lat="46.028292132541537" lon="8.612785460427404">
        <ele>1378.6700000000001</ele>
        <time>2014-02-02T09:50:51Z</time>
      </trkpt>
      <trkpt lat="46.028326833620667" lon="8.61284002661705">
        <ele>1379.1500000000001</ele>
        <time>2014-02-02T09:51:03Z</time>
      </trkpt>
      <trkpt lat="46.028344016522169" lon="8.612886965274811">
        <ele>1379.6300000000001</ele>
        <time>2014-02-02T09:51:16Z</time>
      </trkpt>
      <trkpt lat="46.028387770056725" lon="8.612935412675142">
        <ele>1380.1099999999999</ele>
        <time>2014-02-02T09:51:30Z</time>
      </trkpt>
      <trkpt lat="46.028429931029677" lon="8.612994253635407">
        <ele>1381.0699999999999</ele>
        <time>2014-02-02T09:51:42Z</time>
      </trkpt>
      <trkpt lat="46.028451891615987" lon="8.613046891987324">
        <ele>1381.55</ele>
        <time>2014-02-02T09:51:54Z</time>
      </trkpt>
      <trkpt lat="46.028459351509809" lon="8.613094417378306">
        <ele>1382.03</ele>
        <time>2014-02-02T09:52:07Z</time>
      </trkpt>
      <trkpt lat="46.028481563553214" lon="8.613162478432059">
        <ele>1382.03</ele>
        <time>2014-02-02T09:52:19Z</time>
      </trkpt>
      <trkpt lat="46.028491957113147" lon="8.61319474875927">
        <ele>1382.51</ele>
        <time>2014-02-02T09:52:30Z</time>
      </trkpt>
      <trkpt lat="46.028511989861727" lon="8.613247219473124">
        <ele>1382.99</ele>
        <time>2014-02-02T09:52:44Z</time>
      </trkpt>
      <trkpt lat="46.028530262410641" lon="8.613296505063772">
        <ele>1382.99</ele>
        <time>2014-02-02T09:52:55Z</time>
      </trkpt>
      <trkpt lat="46.028559179976583" lon="8.613352831453085">
        <ele>1383.47</ele>
        <time>2014-02-02T09:53:06Z</time>
      </trkpt>
      <trkpt lat="46.028568902984262" lon="8.613392980769277">
        <ele>1384.4400000000001</ele>
        <time>2014-02-02T09:53:18Z</time>
      </trkpt>
      <trkpt lat="46.028575524687767" lon="8.613429525867105">
        <ele>1384.9200000000001</ele>
        <time>2014-02-02T09:53:33Z</time>
      </trkpt>
      <trkpt lat="46.028568735346198" lon="8.613428603857756">
        <ele>1384.9200000000001</ele>
        <time>2014-02-02T09:53:54Z</time>
      </trkpt>
      <trkpt lat="46.028618607670069" lon="8.61348694190383">
        <ele>1385.4000000000001</ele>
        <time>2014-02-02T09:54:11Z</time>
      </trkpt>
      <trkpt lat="46.028656996786594" lon="8.613603785634041">
        <ele>1386.3599999999999</ele>
        <time>2014-02-02T09:54:28Z</time>
      </trkpt>
      <trkpt lat="46.028687506914139" lon="8.61368240788579">
        <ele>1387.3199999999999</ele>
        <time>2014-02-02T09:54:42Z</time>
      </trkpt>
      <trkpt lat="46.028693625703454" lon="8.613773351535201">
        <ele>1387.8</ele>
        <time>2014-02-02T09:54:57Z</time>
      </trkpt>
      <trkpt lat="46.028712233528495" lon="8.613855494186282">
        <ele>1388.28</ele>
        <time>2014-02-02T09:55:11Z</time>
      </trkpt>
      <trkpt lat="46.028692703694105" lon="8.613930093124509">
        <ele>1388.76</ele>
        <time>2014-02-02T09:55:25Z</time>
      </trkpt>
      <trkpt lat="46.028709383681417" lon="8.61397267319262">
        <ele>1388.76</ele>
        <time>2014-02-02T09:55:39Z</time>
      </trkpt>
      <trkpt lat="46.028728662058711" lon="8.614041237160564">
        <ele>1389.72</ele>
        <time>2014-02-02T09:55:51Z</time>
      </trkpt>
      <trkpt lat="46.028733607381582" lon="8.614046853035688">
        <ele>1389.72</ele>
        <time>2014-02-02T09:56:03Z</time>
      </trkpt>
      <trkpt lat="46.02876084856689" lon="8.614125140011311">
        <ele>1390.6800000000001</ele>
        <time>2014-02-02T09:56:19Z</time>
      </trkpt>
      <trkpt lat="46.028780797496438" lon="8.614203846082091">
        <ele>1391.1700000000001</ele>
        <time>2014-02-02T09:56:34Z</time>
      </trkpt>
      <trkpt lat="46.02879068814218" lon="8.614248186349869">
        <ele>1391.6500000000001</ele>
        <time>2014-02-02T09:56:50Z</time>
      </trkpt>
      <trkpt lat="46.028788005933166" lon="8.614234188571572">
        <ele>1391.6500000000001</ele>
        <time>2014-02-02T09:57:13Z</time>
      </trkpt>
      <trkpt lat="46.028779707849026" lon="8.614254137501121">
        <ele>1391.6500000000001</ele>
        <time>2014-02-02T09:57:30Z</time>
      </trkpt>
      <trkpt lat="46.028788927942514" lon="8.614297974854708">
        <ele>1392.1300000000001</ele>
        <time>2014-02-02T09:57:50Z</time>
      </trkpt>
      <trkpt lat="46.028795130550861" lon="8.614332256838679">
        <ele>1392.1300000000001</ele>
        <time>2014-02-02T09:58:00Z</time>
      </trkpt>
      <trkpt lat="46.028814073652029" lon="8.614377602934837">
        <ele>1392.6099999999999</ele>
        <time>2014-02-02T09:58:14Z</time>
      </trkpt>
      <trkpt lat="46.028819438070059" lon="8.614420853555203">
        <ele>1392.6099999999999</ele>
        <time>2014-02-02T09:58:30Z</time>
      </trkpt>
      <trkpt lat="46.028835279867053" lon="8.614489417523146">
        <ele>1392.6099999999999</ele>
        <time>2014-02-02T09:58:42Z</time>
      </trkpt>
      <trkpt lat="46.028810385614634" lon="8.614475838840008">
        <ele>1393.0899999999999</ele>
        <time>2014-02-02T09:58:59Z</time>
      </trkpt>
      <trkpt lat="46.028810469433665" lon="8.614496709778905">
        <ele>1393.0899999999999</ele>
        <time>2014-02-02T09:59:20Z</time>
      </trkpt>
      <trkpt lat="46.028826897963881" lon="8.614549599587917">
        <ele>1393.0899999999999</ele>
        <time>2014-02-02T09:59:41Z</time>
      </trkpt>
      <trkpt lat="46.028880039229989" lon="8.614697037264705">
        <ele>1394.05</ele>
        <time>2014-02-02T09:59:57Z</time>
      </trkpt>
      <trkpt lat="46.028910633176565" lon="8.614837853237987">
        <ele>1395.49</ele>
        <time>2014-02-02T10:00:15Z</time>
      </trkpt>
      <trkpt lat="46.028915075585246" lon="8.61494698561728">
        <ele>1395.97</ele>
        <time>2014-02-02T10:00:33Z</time>
      </trkpt>
      <trkpt lat="46.02891331538558" lon="8.615044383332133">
        <ele>1396.9300000000001</ele>
        <time>2014-02-02T10:00:48Z</time>
      </trkpt>
      <trkpt lat="46.028918512165546" lon="8.615091154351831">
        <ele>1397.4100000000001</ele>
        <time>2014-02-02T10:01:04Z</time>
      </trkpt>
      <trkpt lat="46.028913902118802" lon="8.615191066637635">
        <ele>1398.3699999999999</ele>
        <time>2014-02-02T10:01:21Z</time>
      </trkpt>
      <trkpt lat="46.028892444446683" lon="8.615275220945478">
        <ele>1399.3399999999999</ele>
        <time>2014-02-02T10:01:34Z</time>
      </trkpt>
      <trkpt lat="46.028889762237668" lon="8.615371696650982">
        <ele>1399.8199999999999</ele>
        <time>2014-02-02T10:01:49Z</time>
      </trkpt>
      <trkpt lat="46.028874758630991" lon="8.615496084094048">
        <ele>1400.3</ele>
        <time>2014-02-02T10:02:05Z</time>
      </trkpt>
      <trkpt lat="46.028866544365883" lon="8.615595493465662">
        <ele>1401.74</ele>
        <time>2014-02-02T10:02:20Z</time>
      </trkpt>
      <trkpt lat="46.028850115835667" lon="8.61570973880589">
        <ele>1402.22</ele>
        <time>2014-02-02T10:02:34Z</time>
      </trkpt>
      <trkpt lat="46.028837375342846" lon="8.615768831223249">
        <ele>1402.7</ele>
        <time>2014-02-02T10:02:47Z</time>
      </trkpt>
      <trkpt lat="46.028825221583247" lon="8.615806633606553">
        <ele>1403.6600000000001</ele>
        <time>2014-02-02T10:02:59Z</time>
      </trkpt>
      <trkpt lat="46.028814408928156" lon="8.61588416621089">
        <ele>1404.1400000000001</ele>
        <time>2014-02-02T10:03:10Z</time>
      </trkpt>
      <trkpt lat="46.028796471655369" lon="8.615993298590183">
        <ele>1404.6199999999999</ele>
        <time>2014-02-02T10:03:23Z</time>
      </trkpt>
      <trkpt lat="46.028772918507457" lon="8.616065802052617">
        <ele>1405.0999999999999</ele>
        <time>2014-02-02T10:03:35Z</time>
      </trkpt>
      <trkpt lat="46.028761519119143" lon="8.616135707125068">
        <ele>1405.5799999999999</ele>
        <time>2014-02-02T10:03:48Z</time>
      </trkpt>
      <trkpt lat="46.028739474713802" lon="8.616205779835582">
        <ele>1406.55</ele>
        <time>2014-02-02T10:03:59Z</time>
      </trkpt>
      <trkpt lat="46.028723632916808" lon="8.616266380995512">
        <ele>1407.03</ele>
        <time>2014-02-02T10:04:10Z</time>
      </trkpt>
      <trkpt lat="46.028706533834338" lon="8.616336705163121">
        <ele>1407.03</ele>
        <time>2014-02-02T10:04:25Z</time>
      </trkpt>
      <trkpt lat="46.028697732836008" lon="8.616396049037576">
        <ele>1408.47</ele>
        <time>2014-02-02T10:04:45Z</time>
      </trkpt>
      <trkpt lat="46.028664959594607" lon="8.616509875282645">
        <ele>1408.95</ele>
        <time>2014-02-02T10:04:58Z</time>
      </trkpt>
      <trkpt lat="46.028646351769567" lon="8.616613140329719">
        <ele>1409.9100000000001</ele>
        <time>2014-02-02T10:05:11Z</time>
      </trkpt>
      <trkpt lat="46.028642999008298" lon="8.616707185283303">
        <ele>1410.3900000000001</ele>
        <time>2014-02-02T10:05:24Z</time>
      </trkpt>
      <trkpt lat="46.028631431981921" lon="8.616809695959091">
        <ele>1411.8299999999999</ele>
        <time>2014-02-02T10:05:37Z</time>
      </trkpt>
      <trkpt lat="46.028632186353207" lon="8.61693374812603">
        <ele>1412.3099999999999</ele>
        <time>2014-02-02T10:05:51Z</time>
      </trkpt>
      <trkpt lat="46.028630426153541" lon="8.61701337620616">
        <ele>1412.79</ele>
        <time>2014-02-02T10:06:05Z</time>
      </trkpt>
      <trkpt lat="46.028637802228332" lon="8.617020081728697">
        <ele>1412.79</ele>
        <time>2014-02-02T10:06:24Z</time>
      </trkpt>
      <trkpt lat="46.02863478474319" lon="8.617029972374439">
        <ele>1413.28</ele>
        <time>2014-02-02T10:06:42Z</time>
      </trkpt>
      <trkpt lat="46.028631934896111" lon="8.617048412561417">
        <ele>1413.28</ele>
        <time>2014-02-02T10:06:59Z</time>
      </trkpt>
      <trkpt lat="46.028644256293774" lon="8.617140613496304">
        <ele>1413.76</ele>
        <time>2014-02-02T10:07:14Z</time>
      </trkpt>
      <trkpt lat="46.028646100312471" lon="8.617166094481945">
        <ele>1414.24</ele>
        <time>2014-02-02T10:07:29Z</time>
      </trkpt>
      <trkpt lat="46.028655152767897" lon="8.617262989282608">
        <ele>1415.2</ele>
        <time>2014-02-02T10:07:42Z</time>
      </trkpt>
      <trkpt lat="46.028663953766227" lon="8.617322836071253">
        <ele>1415.6800000000001</ele>
        <time>2014-02-02T10:07:54Z</time>
      </trkpt>
      <trkpt lat="46.028659176081419" lon="8.617332056164742">
        <ele>1415.6800000000001</ele>
        <time>2014-02-02T10:08:18Z</time>
      </trkpt>
      <trkpt lat="46.028682813048363" lon="8.617397602647543">
        <ele>1416.6400000000001</ele>
        <time>2014-02-02T10:08:35Z</time>
      </trkpt>
      <trkpt lat="46.028735032305121" lon="8.617511847987771">
        <ele>1417.1199999999999</ele>
        <time>2014-02-02T10:08:49Z</time>
      </trkpt>
      <trkpt lat="46.02878917939961" lon="8.617621818557382">
        <ele>1418.0799999999999</ele>
        <time>2014-02-02T10:09:05Z</time>
      </trkpt>
      <trkpt lat="46.028797645121813" lon="8.617632379755378">
        <ele>1419.52</ele>
        <time>2014-02-02T10:09:19Z</time>
      </trkpt>
      <trkpt lat="46.028793873265386" lon="8.617649059742689">
        <ele>1420</ele>
        <time>2014-02-02T10:09:38Z</time>
      </trkpt>
      <trkpt lat="46.02882195264101" lon="8.617663560435176">
        <ele>1420</ele>
        <time>2014-02-02T10:09:51Z</time>
      </trkpt>
      <trkpt lat="46.028864784166217" lon="8.617695746943355">
        <ele>1420</ele>
        <time>2014-02-02T10:10:04Z</time>
      </trkpt>
      <trkpt lat="46.028908789157867" lon="8.617739332839847">
        <ele>1420.49</ele>
        <time>2014-02-02T10:10:19Z</time>
      </trkpt>
      <trkpt lat="46.028962600976229" lon="8.617756515741348">
        <ele>1420.97</ele>
        <time>2014-02-02T10:10:35Z</time>
      </trkpt>
      <trkpt lat="46.029037619009614" lon="8.617797754704952">
        <ele>1421.45</ele>
        <time>2014-02-02T10:10:48Z</time>
      </trkpt>
      <trkpt lat="46.02909461595118" lon="8.617811752483249">
        <ele>1421.9300000000001</ele>
        <time>2014-02-02T10:11:03Z</time>
      </trkpt>
      <trkpt lat="46.02915320545435" lon="8.617851315066218">
        <ele>1422.8900000000001</ele>
        <time>2014-02-02T10:11:17Z</time>
      </trkpt>
      <trkpt lat="46.02915370836854" lon="8.617857601493597">
        <ele>1422.8900000000001</ele>
        <time>2014-02-02T10:11:37Z</time>
      </trkpt>
      <trkpt lat="46.029235515743494" lon="8.617913173511624">
        <ele>1423.8499999999999</ele>
        <time>2014-02-02T10:11:52Z</time>
      </trkpt>
      <trkpt lat="46.029294021427631" lon="8.617926752194762">
        <ele>1424.3299999999999</ele>
        <time>2014-02-02T10:12:06Z</time>
      </trkpt>
      <trkpt lat="46.029376164078712" lon="8.617989281192422">
        <ele>1425.77</ele>
        <time>2014-02-02T10:12:23Z</time>
      </trkpt>
      <trkpt lat="46.029437938705087" lon="8.618032112717629">
        <ele>1425.77</ele>
        <time>2014-02-02T10:12:37Z</time>
      </trkpt>
      <trkpt lat="46.0294752381742" lon="8.61805222928524">
        <ele>1426.73</ele>
        <time>2014-02-02T10:12:49Z</time>
      </trkpt>
      <trkpt lat="46.02948303334415" lon="8.618072513490915">
        <ele>1426.73</ele>
        <time>2014-02-02T10:12:54Z</time>
      </trkpt>
      <trkpt lat="46.029499629512429" lon="8.618119033053517">
        <ele>1427.21</ele>
        <time>2014-02-02T10:13:10Z</time>
      </trkpt>
      <trkpt lat="46.029526367783546" lon="8.618173263967037">
        <ele>1427.21</ele>
        <time>2014-02-02T10:13:24Z</time>
      </trkpt>
      <trkpt lat="46.029538521543145" lon="8.618284910917282">
        <ele>1428.1800000000001</ele>
        <time>2014-02-02T10:13:39Z</time>
      </trkpt>
      <trkpt lat="46.029539359733462" lon="8.618388846516609">
        <ele>1428.6600000000001</ele>
        <time>2014-02-02T10:13:52Z</time>
      </trkpt>
      <trkpt lat="46.02952460758388" lon="8.618484316393733">
        <ele>1429.1400000000001</ele>
        <time>2014-02-02T10:14:04Z</time>
      </trkpt>
      <trkpt lat="46.029545897617936" lon="8.618568470701575">
        <ele>1429.1400000000001</ele>
        <time>2014-02-02T10:14:17Z</time>
      </trkpt>
      <trkpt lat="46.029562326148152" lon="8.618625467643142">
        <ele>1430.0999999999999</ele>
        <time>2014-02-02T10:14:28Z</time>
      </trkpt>
      <trkpt lat="46.029569953680038" lon="8.618706855922937">
        <ele>1431.0599999999999</ele>
        <time>2014-02-02T10:14:41Z</time>
      </trkpt>
      <trkpt lat="46.029582777991891" lon="8.618799895048142">
        <ele>1432.02</ele>
        <time>2014-02-02T10:14:54Z</time>
      </trkpt>
      <trkpt lat="46.02958420291543" lon="8.618881199508905">
        <ele>1432.02</ele>
        <time>2014-02-02T10:15:06Z</time>
      </trkpt>
      <trkpt lat="46.02960423566401" lon="8.618955798447132">
        <ele>1432.5</ele>
        <time>2014-02-02T10:15:18Z</time>
      </trkpt>
      <trkpt lat="46.029607588425279" lon="8.619034001603723">
        <ele>1433.46</ele>
        <time>2014-02-02T10:15:31Z</time>
      </trkpt>
      <trkpt lat="46.029608342796564" lon="8.619104325771332">
        <ele>1433.9400000000001</ele>
        <time>2014-02-02T10:15:43Z</time>
      </trkpt>
      <trkpt lat="46.029620496556163" lon="8.61919904127717">
        <ele>1434.9100000000001</ele>
        <time>2014-02-02T10:15:56Z</time>
      </trkpt>
      <trkpt lat="46.029627453535795" lon="8.619301719591022">
        <ele>1435.8699999999999</ele>
        <time>2014-02-02T10:16:10Z</time>
      </trkpt>
      <trkpt lat="46.029617981985211" lon="8.619365086778998">
        <ele>1436.8299999999999</ele>
        <time>2014-02-02T10:16:26Z</time>
      </trkpt>
      <trkpt lat="46.029616808518767" lon="8.619461143389344">
        <ele>1437.3099999999999</ele>
        <time>2014-02-02T10:16:39Z</time>
      </trkpt>
      <trkpt lat="46.029608761891723" lon="8.619531635195017">
        <ele>1439.23</ele>
        <time>2014-02-02T10:16:54Z</time>
      </trkpt>
      <trkpt lat="46.029594428837299" lon="8.619618471711874">
        <ele>1439.71</ele>
        <time>2014-02-02T10:17:08Z</time>
      </trkpt>
      <trkpt lat="46.029596105217934" lon="8.619657028466463">
        <ele>1440.6700000000001</ele>
        <time>2014-02-02T10:17:23Z</time>
      </trkpt>
      <trkpt lat="46.029585208743811" lon="8.619751995429397">
        <ele>1441.1500000000001</ele>
        <time>2014-02-02T10:17:36Z</time>
      </trkpt>
      <trkpt lat="46.029562996700406" lon="8.619852410629392">
        <ele>1441.6300000000001</ele>
        <time>2014-02-02T10:17:50Z</time>
      </trkpt>
      <trkpt lat="46.029552184045315" lon="8.619947461411357">
        <ele>1442.1099999999999</ele>
        <time>2014-02-02T10:18:05Z</time>
      </trkpt>
      <trkpt lat="46.029511699452996" lon="8.620009319856763">
        <ele>1442.5999999999999</ele>
        <time>2014-02-02T10:18:19Z</time>
      </trkpt>
      <trkpt lat="46.029489571228623" lon="8.620111579075456">
        <ele>1443.0799999999999</ele>
        <time>2014-02-02T10:18:36Z</time>
      </trkpt>
      <trkpt lat="46.029477249830961" lon="8.620205707848072">
        <ele>1443.5599999999999</ele>
        <time>2014-02-02T10:18:50Z</time>
      </trkpt>
      <trkpt lat="46.029473980888724" lon="8.620259016752243">
        <ele>1443.5599999999999</ele>
        <time>2014-02-02T10:19:05Z</time>
      </trkpt>
      <trkpt lat="46.029461743310094" lon="8.620352894067764">
        <ele>1444.04</ele>
        <time>2014-02-02T10:19:17Z</time>
      </trkpt>
      <trkpt lat="46.029443722218275" lon="8.620482813566923">
        <ele>1445.48</ele>
        <time>2014-02-02T10:19:34Z</time>
      </trkpt>
      <trkpt lat="46.029429892078042" lon="8.62058624625206">
        <ele>1446.4400000000001</ele>
        <time>2014-02-02T10:19:51Z</time>
      </trkpt>
      <trkpt lat="46.029467023909092" lon="8.620635699480772">
        <ele>1446.4400000000001</ele>
        <time>2014-02-02T10:20:05Z</time>
      </trkpt>
      <trkpt lat="46.029453529044986" lon="8.620627820491791">
        <ele>1446.4400000000001</ele>
        <time>2014-02-02T10:20:21Z</time>
      </trkpt>
      <trkpt lat="46.029452020302415" lon="8.620630083605647">
        <ele>1445.96</ele>
        <time>2014-02-02T10:20:29Z</time>
      </trkpt>
      <trkpt lat="46.0294493380934" lon="8.620585491880775">
        <ele>1445.96</ele>
        <time>2014-02-02T10:20:55Z</time>
      </trkpt>
      <trkpt lat="46.029470125213265" lon="8.620584653690457">
        <ele>1446.4400000000001</ele>
        <time>2014-02-02T10:21:32Z</time>
      </trkpt>
      <trkpt lat="46.029468532651663" lon="8.620580043643713">
        <ele>1446.9200000000001</ele>
        <time>2014-02-02T10:21:43Z</time>
      </trkpt>
      <trkpt lat="46.029479261487722" lon="8.620578786358237">
        <ele>1446.4400000000001</ele>
        <time>2014-02-02T10:22:00Z</time>
      </trkpt>
      <trkpt lat="46.029437016695738" lon="8.620675848796964">
        <ele>1446.9200000000001</ele>
        <time>2014-02-02T10:22:14Z</time>
      </trkpt>
      <trkpt lat="46.0294752381742" lon="8.620756231248379">
        <ele>1446.9200000000001</ele>
        <time>2014-02-02T10:22:34Z</time>
      </trkpt>
      <trkpt lat="46.029473477974534" lon="8.620780874043703">
        <ele>1446.4400000000001</ele>
        <time>2014-02-02T10:22:59Z</time>
      </trkpt>
      <trkpt lat="46.029486889019608" lon="8.620736449956894">
        <ele>1446.9200000000001</ele>
        <time>2014-02-02T10:23:30Z</time>
      </trkpt>
      <trkpt lat="46.029462749138474" lon="8.620705436915159">
        <ele>1446.9200000000001</ele>
        <time>2014-02-02T10:23:52Z</time>
      </trkpt>
      <trkpt lat="46.029455875977874" lon="8.620662605389953">
        <ele>1446.4400000000001</ele>
        <time>2014-02-02T10:24:07Z</time>
      </trkpt>
      <trkpt lat="46.029477333649993" lon="8.620592700317502">
        <ele>1446.9200000000001</ele>
        <time>2014-02-02T10:24:21Z</time>
      </trkpt>
      <trkpt lat="46.029506837949157" lon="8.620597142726183">
        <ele>1446.9200000000001</ele>
        <time>2014-02-02T10:24:33Z</time>
      </trkpt>
      <trkpt lat="46.029505329206586" lon="8.620544420555234">
        <ele>1446.9200000000001</ele>
        <time>2014-02-02T10:24:47Z</time>
      </trkpt>
      <trkpt lat="46.029509520158172" lon="8.620494967326522">
        <ele>1447.4000000000001</ele>
        <time>2014-02-02T10:24:59Z</time>
      </trkpt>
      <trkpt lat="46.029545059427619" lon="8.620422296226025">
        <ele>1447.8800000000001</ele>
        <time>2014-02-02T10:25:11Z</time>
      </trkpt>
      <trkpt lat="46.02957783266902" lon="8.620295394212008">
        <ele>1448.8399999999999</ele>
        <time>2014-02-02T10:25:28Z</time>
      </trkpt>
      <trkpt lat="46.029639523476362" lon="8.620152901858091">
        <ele>1449.3199999999999</ele>
        <time>2014-02-02T10:25:45Z</time>
      </trkpt>
      <trkpt lat="46.029677912592888" lon="8.620074614882469">
        <ele>1449.8099999999999</ele>
        <time>2014-02-02T10:26:00Z</time>
      </trkpt>
      <trkpt lat="46.029703561216593" lon="8.620034717023373">
        <ele>1450.29</ele>
        <time>2014-02-02T10:26:12Z</time>
      </trkpt>
      <trkpt lat="46.029729880392551" lon="8.619974870234728">
        <ele>1451.25</ele>
        <time>2014-02-02T10:26:26Z</time>
      </trkpt>
      <trkpt lat="46.029772628098726" lon="8.619890045374632">
        <ele>1451.73</ele>
        <time>2014-02-02T10:26:38Z</time>
      </trkpt>
      <trkpt lat="46.029798947274685" lon="8.619804885238409">
        <ele>1452.21</ele>
        <time>2014-02-02T10:26:50Z</time>
      </trkpt>
      <trkpt lat="46.029823338612914" lon="8.619735902175307">
        <ele>1452.6900000000001</ele>
        <time>2014-02-02T10:27:02Z</time>
      </trkpt>
      <trkpt lat="46.029856195673347" lon="8.619707487523556">
        <ele>1453.6500000000001</ele>
        <time>2014-02-02T10:27:16Z</time>
      </trkpt>
      <trkpt lat="46.029887711629272" lon="8.61960656940937">
        <ele>1454.1300000000001</ele>
        <time>2014-02-02T10:27:28Z</time>
      </trkpt>
      <trkpt lat="46.029908498749137" lon="8.619533814489842">
        <ele>1454.1300000000001</ele>
        <time>2014-02-02T10:27:43Z</time>
      </trkpt>
      <trkpt lat="46.029939763247967" lon="8.61946290358901">
        <ele>1454.6099999999999</ele>
        <time>2014-02-02T10:27:58Z</time>
      </trkpt>
      <trkpt lat="46.029971363022923" lon="8.619391825050116">
        <ele>1454.6099999999999</ele>
        <time>2014-02-02T10:28:12Z</time>
      </trkpt>
      <trkpt lat="46.029992569237947" lon="8.619295014068484">
        <ele>1455.5699999999999</ele>
        <time>2014-02-02T10:28:25Z</time>
      </trkpt>
      <trkpt lat="46.029989887028933" lon="8.619274143129587">
        <ele>1456.53</ele>
        <time>2014-02-02T10:28:37Z</time>
      </trkpt>
      <trkpt lat="46.030010255053639" lon="8.619207087904215">
        <ele>1457.02</ele>
        <time>2014-02-02T10:28:53Z</time>
      </trkpt>
      <trkpt lat="46.03002056479454" lon="8.619144558906555">
        <ele>1457.02</ele>
        <time>2014-02-02T10:29:02Z</time>
      </trkpt>
      <trkpt lat="46.030023666098714" lon="8.619144223630428">
        <ele>1457.5</ele>
        <time>2014-02-02T10:29:16Z</time>
      </trkpt>
      <trkpt lat="46.030031377449632" lon="8.619102817028761">
        <ele>1458.46</ele>
        <time>2014-02-02T10:29:31Z</time>
      </trkpt>
      <trkpt lat="46.030049314722419" lon="8.619063924998045">
        <ele>1458.9400000000001</ele>
        <time>2014-02-02T10:29:48Z</time>
      </trkpt>
      <trkpt lat="46.030054008588195" lon="8.619029307737947">
        <ele>1458.9400000000001</ele>
        <time>2014-02-02T10:30:03Z</time>
      </trkpt>
      <trkpt lat="46.030063312500715" lon="8.618930736556649">
        <ele>1460.3800000000001</ele>
        <time>2014-02-02T10:30:18Z</time>
      </trkpt>
      <trkpt lat="46.030072448775172" lon="8.61883744597435">
        <ele>1460.3800000000001</ele>
        <time>2014-02-02T10:30:30Z</time>
      </trkpt>
      <trkpt lat="46.030073286965489" lon="8.618768630549312">
        <ele>1461.3399999999999</ele>
        <time>2014-02-02T10:30:42Z</time>
      </trkpt>
      <trkpt lat="46.030072029680014" lon="8.618664024397731">
        <ele>1461.8199999999999</ele>
        <time>2014-02-02T10:30:56Z</time>
      </trkpt>
      <trkpt lat="46.030077394098043" lon="8.618619851768017">
        <ele>1462.3</ele>
        <time>2014-02-02T10:31:09Z</time>
      </trkpt>
      <trkpt lat="46.030074208974838" lon="8.618570566177368">
        <ele>1462.78</ele>
        <time>2014-02-02T10:31:21Z</time>
      </trkpt>
      <trkpt lat="46.030071778222919" lon="8.618537457659841">
        <ele>1462.78</ele>
        <time>2014-02-02T10:31:32Z</time>
      </trkpt>
      <trkpt lat="46.030080327764153" lon="8.61846512183547">
        <ele>1463.26</ele>
        <time>2014-02-02T10:31:45Z</time>
      </trkpt>
      <trkpt lat="46.030078735202551" lon="8.618424721062183">
        <ele>1463.74</ele>
        <time>2014-02-02T10:31:59Z</time>
      </trkpt>
      <trkpt lat="46.030083177611232" lon="8.618417931720614">
        <ele>1463.74</ele>
        <time>2014-02-02T10:32:01Z</time>
      </trkpt>
      <trkpt lat="46.030084518715739" lon="8.618342243134975">
        <ele>1464.71</ele>
        <time>2014-02-02T10:32:13Z</time>
      </trkpt>
      <trkpt lat="46.03008208796382" lon="8.618304440751672">
        <ele>1465.1900000000001</ele>
        <time>2014-02-02T10:32:23Z</time>
      </trkpt>
      <trkpt lat="46.030088039115071" lon="8.61825599335134">
        <ele>1465.1900000000001</ele>
        <time>2014-02-02T10:32:36Z</time>
      </trkpt>
      <trkpt lat="46.030074460431933" lon="8.618160607293248">
        <ele>1465.6700000000001</ele>
        <time>2014-02-02T10:32:49Z</time>
      </trkpt>
      <trkpt lat="46.03006549179554" lon="8.618102269247174">
        <ele>1465.6700000000001</ele>
        <time>2014-02-02T10:33:02Z</time>
      </trkpt>
      <trkpt lat="46.030047219246626" lon="8.618042254820466">
        <ele>1466.6300000000001</ele>
        <time>2014-02-02T10:33:15Z</time>
      </trkpt>
      <trkpt lat="46.030036490410566" lon="8.617966063320637">
        <ele>1466.6300000000001</ele>
        <time>2014-02-02T10:33:30Z</time>
      </trkpt>
      <trkpt lat="46.030030623078346" lon="8.617880316451192">
        <ele>1467.1099999999999</ele>
        <time>2014-02-02T10:33:44Z</time>
      </trkpt>
      <trkpt lat="46.030029701068997" lon="8.617867492139339">
        <ele>1467.1099999999999</ele>
        <time>2014-02-02T10:33:46Z</time>
      </trkpt>
      <trkpt lat="46.030018050223589" lon="8.617811668664217">
        <ele>1467.1099999999999</ele>
        <time>2014-02-02T10:33:56Z</time>
      </trkpt>
      <trkpt lat="46.029994580894709" lon="8.617757353931665">
        <ele>1468.0699999999999</ele>
        <time>2014-02-02T10:34:09Z</time>
      </trkpt>
      <trkpt lat="46.029980666935444" lon="8.617683760821819">
        <ele>1469.03</ele>
        <time>2014-02-02T10:34:20Z</time>
      </trkpt>
      <trkpt lat="46.029970357194543" lon="8.617617292329669">
        <ele>1469.51</ele>
        <time>2014-02-02T10:34:33Z</time>
      </trkpt>
      <trkpt lat="46.029964657500386" lon="8.617578567937017">
        <ele>1469.99</ele>
        <time>2014-02-02T10:34:43Z</time>
      </trkpt>
      <trkpt lat="46.02994822897017" lon="8.617526013404131">
        <ele>1470.95</ele>
        <time>2014-02-02T10:34:55Z</time>
      </trkpt>
      <trkpt lat="46.02993892505765" lon="8.617497682571411">
        <ele>1470.95</ele>
        <time>2014-02-02T10:35:06Z</time>
      </trkpt>
      <trkpt lat="46.029928866773844" lon="8.61746390350163">
        <ele>1471.4400000000001</ele>
        <time>2014-02-02T10:35:25Z</time>
      </trkpt>
      <trkpt lat="46.02991352789104" lon="8.61742970533669">
        <ele>1472.4000000000001</ele>
        <time>2014-02-02T10:35:38Z</time>
      </trkpt>
      <trkpt lat="46.029891399666667" lon="8.61735736951232">
        <ele>1472.4000000000001</ele>
        <time>2014-02-02T10:35:52Z</time>
      </trkpt>
      <trkpt lat="46.029872875660658" lon="8.617282519116998">
        <ele>1473.3599999999999</ele>
        <time>2014-02-02T10:36:05Z</time>
      </trkpt>
      <trkpt lat="46.029875390231609" lon="8.617265252396464">
        <ele>1473.3599999999999</ele>
        <time>2014-02-02T10:36:21Z</time>
      </trkpt>
      <trkpt lat="46.029865331947803" lon="8.617194341495633">
        <ele>1474.3199999999999</ele>
        <time>2014-02-02T10:36:32Z</time>
      </trkpt>
      <trkpt lat="46.029849909245968" lon="8.617108594626188">
        <ele>1474.8</ele>
        <time>2014-02-02T10:36:44Z</time>
      </trkpt>
      <trkpt lat="46.029850244522095" lon="8.617041120305657">
        <ele>1474.8</ele>
        <time>2014-02-02T10:36:53Z</time>
      </trkpt>
      <trkpt lat="46.029855525121093" lon="8.616989739239216">
        <ele>1475.76</ele>
        <time>2014-02-02T10:37:06Z</time>
      </trkpt>
      <trkpt lat="46.029887963086367" lon="8.616962330415845">
        <ele>1476.24</ele>
        <time>2014-02-02T10:37:19Z</time>
      </trkpt>
      <trkpt lat="46.029906235635281" lon="8.616874068975449">
        <ele>1476.24</ele>
        <time>2014-02-02T10:37:33Z</time>
      </trkpt>
      <trkpt lat="46.029936661943793" lon="8.61683115363121">
        <ele>1476.72</ele>
        <time>2014-02-02T10:37:45Z</time>
      </trkpt>
      <trkpt lat="46.029947390779853" lon="8.616780862212181">
        <ele>1477.6800000000001</ele>
        <time>2014-02-02T10:38:00Z</time>
      </trkpt>
      <trkpt lat="46.029970273375511" lon="8.61670995131135">
        <ele>1478.1600000000001</ele>
        <time>2014-02-02T10:38:13Z</time>
      </trkpt>
      <trkpt lat="46.030003884807229" lon="8.616639208048582">
        <ele>1479.1300000000001</ele>
        <time>2014-02-02T10:38:26Z</time>
      </trkpt>
      <trkpt lat="46.030040429905057" lon="8.616576762869954">
        <ele>1480.0899999999999</ele>
        <time>2014-02-02T10:38:39Z</time>
      </trkpt>
      <trkpt lat="46.030071694403887" lon="8.616523453965783">
        <ele>1480.0899999999999</ele>
        <time>2014-02-02T10:38:51Z</time>
      </trkpt>
      <trkpt lat="46.030113436281681" lon="8.616484645754099">
        <ele>1480.5699999999999</ele>
        <time>2014-02-02T10:39:03Z</time>
      </trkpt>
      <trkpt lat="46.030111173167825" lon="8.616477521136403">
        <ele>1481.53</ele>
        <time>2014-02-02T10:39:21Z</time>
      </trkpt>
      <trkpt lat="46.030118800699711" lon="8.616473162546754">
        <ele>1481.05</ele>
        <time>2014-02-02T10:39:40Z</time>
      </trkpt>
      <trkpt lat="46.030095331370831" lon="8.616484897211194">
        <ele>1482.49</ele>
        <time>2014-02-02T10:39:57Z</time>
      </trkpt>
      <trkpt lat="46.030168840661645" lon="8.6164206918329">
        <ele>1483.9300000000001</ele>
        <time>2014-02-02T10:40:12Z</time>
      </trkpt>
      <trkpt lat="46.030188202857971" lon="8.616396719589829">
        <ele>1483.9300000000001</ele>
        <time>2014-02-02T10:40:15Z</time>
      </trkpt>
      <trkpt lat="46.030242685228586" lon="8.616288593038917">
        <ele>1483.45</ele>
        <time>2014-02-02T10:40:30Z</time>
      </trkpt>
      <trkpt lat="46.030256934463978" lon="8.616278199478984">
        <ele>1483.9300000000001</ele>
        <time>2014-02-02T10:40:33Z</time>
      </trkpt>
      <trkpt lat="46.030300687998533" lon="8.616286413744092">
        <ele>1483.45</ele>
        <time>2014-02-02T10:40:47Z</time>
      </trkpt>
      <trkpt lat="46.030345279723406" lon="8.616284402087331">
        <ele>1484.8900000000001</ele>
        <time>2014-02-02T10:40:59Z</time>
      </trkpt>
      <trkpt lat="46.030387105420232" lon="8.616289682686329">
        <ele>1486.3399999999999</ele>
        <time>2014-02-02T10:41:11Z</time>
      </trkpt>
      <trkpt lat="46.030396912246943" lon="8.616319689899683">
        <ele>1486.3399999999999</ele>
        <time>2014-02-02T10:41:22Z</time>
      </trkpt>
      <trkpt lat="46.030412167310715" lon="8.616345087066293">
        <ele>1487.3</ele>
        <time>2014-02-02T10:41:38Z</time>
      </trkpt>
      <trkpt lat="46.030438905581832" lon="8.616392444819212">
        <ele>1488.26</ele>
        <time>2014-02-02T10:41:49Z</time>
      </trkpt>
      <trkpt lat="46.030443264171481" lon="8.616447430104017">
        <ele>1490.1800000000001</ele>
        <time>2014-02-02T10:42:02Z</time>
      </trkpt>
      <trkpt lat="46.030448041856289" lon="8.61645488999784">
        <ele>1489.7</ele>
        <time>2014-02-02T10:42:24Z</time>
      </trkpt>
      <trkpt lat="46.030464554205537" lon="8.616473916918039">
        <ele>1490.1800000000001</ele>
        <time>2014-02-02T10:42:31Z</time>
      </trkpt>
      <trkpt lat="46.030501266941428" lon="8.616547174751759">
        <ele>1492.0999999999999</ele>
        <time>2014-02-02T10:42:46Z</time>
      </trkpt>
      <trkpt lat="46.030550971627235" lon="8.616658989340067">
        <ele>1494.99</ele>
        <time>2014-02-02T10:43:02Z</time>
      </trkpt>
      <trkpt lat="46.030578464269638" lon="8.616715902462602">
        <ele>1496.4300000000001</ele>
        <time>2014-02-02T10:43:16Z</time>
      </trkpt>
      <trkpt lat="46.030597155913711" lon="8.616781448945403">
        <ele>1497.8699999999999</ele>
        <time>2014-02-02T10:43:29Z</time>
      </trkpt>
      <trkpt lat="46.030611237511039" lon="8.616782370954752">
        <ele>1497.8699999999999</ele>
        <time>2014-02-02T10:43:46Z</time>
      </trkpt>
      <trkpt lat="46.030612243339419" lon="8.616803241893649">
        <ele>1498.3499999999999</ele>
        <time>2014-02-02T10:43:58Z</time>
      </trkpt>
      <trkpt lat="46.030640657991171" lon="8.616843391209841">
        <ele>1499.3099999999999</ele>
        <time>2014-02-02T10:44:18Z</time>
      </trkpt>
      <trkpt lat="46.030682483687997" lon="8.616907596588135">
        <ele>1501.24</ele>
        <time>2014-02-02T10:44:32Z</time>
      </trkpt>
      <trkpt lat="46.030702516436577" lon="8.616931401193142">
        <ele>1502.2</ele>
        <time>2014-02-02T10:44:44Z</time>
      </trkpt>
      <trkpt lat="46.0307099763304" lon="8.616945734247565">
        <ele>1502.2</ele>
        <time>2014-02-02T10:45:03Z</time>
      </trkpt>
      <trkpt lat="46.030709892511368" lon="8.616956379264593">
        <ele>1503.1600000000001</ele>
        <time>2014-02-02T10:45:18Z</time>
      </trkpt>
      <trkpt lat="46.030704192817211" lon="8.616960486397147">
        <ele>1503.1600000000001</ele>
        <time>2014-02-02T10:45:39Z</time>
      </trkpt>
      <trkpt lat="46.030748533084989" lon="8.616999462246895">
        <ele>1504.5999999999999</ele>
        <time>2014-02-02T10:45:53Z</time>
      </trkpt>
      <trkpt lat="46.030773930251598" lon="8.617024440318346">
        <ele>1506.04</ele>
        <time>2014-02-02T10:46:04Z</time>
      </trkpt>
      <trkpt lat="46.030818605795503" lon="8.617075569927692">
        <ele>1508.45</ele>
        <time>2014-02-02T10:46:18Z</time>
      </trkpt>
      <trkpt lat="46.030849535018206" lon="8.617129549384117">
        <ele>1510.3699999999999</ele>
        <time>2014-02-02T10:46:32Z</time>
      </trkpt>
      <trkpt lat="46.030884571373463" lon="8.61716634593904">
        <ele>1511.3299999999999</ele>
        <time>2014-02-02T10:46:46Z</time>
      </trkpt>
      <trkpt lat="46.03091767989099" lon="8.617212781682611">
        <ele>1513.73</ele>
        <time>2014-02-02T10:47:01Z</time>
      </trkpt>
      <trkpt lat="46.030944334343076" lon="8.617234406992793">
        <ele>1515.1800000000001</ele>
        <time>2014-02-02T10:47:14Z</time>
      </trkpt>
      <trkpt lat="46.030961684882641" lon="8.61727287992835">
        <ele>1516.1400000000001</ele>
        <time>2014-02-02T10:47:27Z</time>
      </trkpt>
      <trkpt lat="46.031004432588816" lon="8.617315962910652">
        <ele>1517.5799999999999</ele>
        <time>2014-02-02T10:47:40Z</time>
      </trkpt>
      <trkpt lat="46.031046425923705" lon="8.617389556020498">
        <ele>1519.98</ele>
        <time>2014-02-02T10:47:54Z</time>
      </trkpt>
      <trkpt lat="46.031065620481968" lon="8.617436494678259">
        <ele>1520.46</ele>
        <time>2014-02-02T10:48:08Z</time>
      </trkpt>
      <trkpt lat="46.031113900244236" lon="8.617482595145702">
        <ele>1522.8699999999999</ele>
        <time>2014-02-02T10:48:22Z</time>
      </trkpt>
      <trkpt lat="46.031168298795819" lon="8.617576388642192">
        <ele>1524.3099999999999</ele>
        <time>2014-02-02T10:48:37Z</time>
      </trkpt>
      <trkpt lat="46.031226720660925" lon="8.61765693873167">
        <ele>1526.71</ele>
        <time>2014-02-02T10:48:56Z</time>
      </trkpt>
      <trkpt lat="46.031263098120689" lon="8.617690047249198">
        <ele>1527.6700000000001</ele>
        <time>2014-02-02T10:49:10Z</time>
      </trkpt>
      <trkpt lat="46.031327471137047" lon="8.617752995342016">
        <ele>1528.1500000000001</ele>
        <time>2014-02-02T10:49:22Z</time>
      </trkpt>
      <trkpt lat="46.031383965164423" lon="8.617791887372732">
        <ele>1530.0799999999999</ele>
        <time>2014-02-02T10:49:36Z</time>
      </trkpt>
      <trkpt lat="46.031437190249562" lon="8.617860283702612">
        <ele>1531.04</ele>
        <time>2014-02-02T10:49:49Z</time>
      </trkpt>
      <trkpt lat="46.031455295160413" lon="8.617874030023813">
        <ele>1531.52</ele>
        <time>2014-02-02T10:50:01Z</time>
      </trkpt>
      <trkpt lat="46.031520254909992" lon="8.617949634790421">
        <ele>1532.96</ele>
        <time>2014-02-02T10:50:15Z</time>
      </trkpt>
      <trkpt lat="46.03161882609129" lon="8.618057677522302">
        <ele>1533.9200000000001</ele>
        <time>2014-02-02T10:50:33Z</time>
      </trkpt>
      <trkpt lat="46.031625783070922" lon="8.618082236498594">
        <ele>1534.8800000000001</ele>
        <time>2014-02-02T10:50:45Z</time>
      </trkpt>
      <trkpt lat="46.03161882609129" lon="8.618073184043169">
        <ele>1534.8800000000001</ele>
        <time>2014-02-02T10:50:59Z</time>
      </trkpt>
      <trkpt lat="46.031636763364077" lon="8.618077794089913">
        <ele>1533.9200000000001</ele>
        <time>2014-02-02T10:51:01Z</time>
      </trkpt>
      <trkpt lat="46.031741118058562" lon="8.618133952841163">
        <ele>1535.8399999999999</ele>
        <time>2014-02-02T10:51:17Z</time>
      </trkpt>
      <trkpt lat="46.031860057264566" lon="8.618163289502263">
        <ele>1536.8</ele>
        <time>2014-02-02T10:51:35Z</time>
      </trkpt>
      <trkpt lat="46.031925017014146" lon="8.618205534294248">
        <ele>1538.25</ele>
        <time>2014-02-02T10:51:51Z</time>
      </trkpt>
      <trkpt lat="46.031926274299622" lon="8.618240235373378">
        <ele>1539.21</ele>
        <time>2014-02-02T10:52:02Z</time>
      </trkpt>
      <trkpt lat="46.031926274299622" lon="8.618239732459188">
        <ele>1538.73</ele>
        <time>2014-02-02T10:52:03Z</time>
      </trkpt>
      <trkpt lat="46.031926274299622" lon="8.618232943117619">
        <ele>1537.77</ele>
        <time>2014-02-02T10:52:07Z</time>
      </trkpt>
      <trkpt lat="46.031943876296282" lon="8.618233110755682">
        <ele>1538.73</ele>
        <time>2014-02-02T10:52:25Z</time>
      </trkpt>
      <trkpt lat="46.031939350068569" lon="8.61823495477438">
        <ele>1537.77</ele>
        <time>2014-02-02T10:52:46Z</time>
      </trkpt>
      <trkpt lat="46.031942535191774" lon="8.618236295878887">
        <ele>1537.29</ele>
        <time>2014-02-02T10:52:55Z</time>
      </trkpt>
      <trkpt lat="46.031954605132341" lon="8.618208216503263">
        <ele>1539.21</ele>
        <time>2014-02-02T10:53:15Z</time>
      </trkpt>
      <trkpt lat="46.032051835209131" lon="8.618287676945329">
        <ele>1539.21</ele>
        <time>2014-02-02T10:53:30Z</time>
      </trkpt>
      <trkpt lat="46.032006070017815" lon="8.618274433538318">
        <ele>1541.6099999999999</ele>
        <time>2014-02-02T10:53:45Z</time>
      </trkpt>
      <trkpt lat="46.0320102609694" lon="8.618278121575713">
        <ele>1540.6500000000001</ele>
        <time>2014-02-02T10:53:49Z</time>
      </trkpt>
      <trkpt lat="46.032008500769734" lon="8.618274349719286">
        <ele>1538.73</ele>
        <time>2014-02-02T10:53:53Z</time>
      </trkpt>
      <trkpt lat="46.032001208513975" lon="8.618273930624127">
        <ele>1538.73</ele>
        <time>2014-02-02T10:54:32Z</time>
      </trkpt>
      <trkpt lat="46.032000118866563" lon="8.618269236758351">
        <ele>1539.21</ele>
        <time>2014-02-02T10:55:09Z</time>
      </trkpt>
      <trkpt lat="46.032003303989768" lon="8.618264710530639">
        <ele>1539.21</ele>
        <time>2014-02-02T10:55:37Z</time>
      </trkpt>
      <trkpt lat="46.032003136351705" lon="8.618269320577383">
        <ele>1539.21</ele>
        <time>2014-02-02T10:56:11Z</time>
      </trkpt>
      <trkpt lat="46.032004309818149" lon="8.61826965585351">
        <ele>1538.73</ele>
        <time>2014-02-02T10:56:57Z</time>
      </trkpt>
      <trkpt lat="46.032002130523324" lon="8.618262195959687">
        <ele>1538.25</ele>
        <time>2014-02-02T10:57:35Z</time>
      </trkpt>
      <trkpt lat="46.031999867409468" lon="8.618272924795747">
        <ele>1539.21</ele>
        <time>2014-02-02T10:58:15Z</time>
      </trkpt>
      <trkpt lat="46.031997352838516" lon="8.618256496265531">
        <ele>1538.73</ele>
        <time>2014-02-02T10:58:43Z</time>
      </trkpt>
      <trkpt lat="46.031996347010136" lon="8.618255574256182">
        <ele>1539.21</ele>
        <time>2014-02-02T10:59:19Z</time>
      </trkpt>
      <trkpt lat="46.03199458681047" lon="8.618259429931641">
        <ele>1539.21</ele>
        <time>2014-02-02T10:59:46Z</time>
      </trkpt>
      <trkpt lat="46.031991066411138" lon="8.618255322799087">
        <ele>1538.73</ele>
        <time>2014-02-02T11:00:15Z</time>
      </trkpt>
      <trkpt lat="46.031994251534343" lon="8.618255825713277">
        <ele>1538.25</ele>
        <time>2014-02-02T11:00:46Z</time>
      </trkpt>
      <trkpt lat="46.03199559263885" lon="8.618265045806766">
        <ele>1539.21</ele>
        <time>2014-02-02T11:01:21Z</time>
      </trkpt>
      <trkpt lat="46.032001208513975" lon="8.618256747722626">
        <ele>1538.25</ele>
        <time>2014-02-02T11:01:52Z</time>
      </trkpt>
      <trkpt lat="46.032007830217481" lon="8.618261776864529">
        <ele>1538.25</ele>
        <time>2014-02-02T11:02:19Z</time>
      </trkpt>
      <trkpt lat="46.032002298161387" lon="8.618250042200089">
        <ele>1537.77</ele>
        <time>2014-02-02T11:02:48Z</time>
      </trkpt>
      <trkpt lat="46.032010596245527" lon="8.618233110755682">
        <ele>1537.77</ele>
        <time>2014-02-02T11:03:17Z</time>
      </trkpt>
      <trkpt lat="46.032005399465561" lon="8.618244593963027">
        <ele>1537.77</ele>
        <time>2014-02-02T11:03:40Z</time>
      </trkpt>
      <trkpt lat="46.032009171321988" lon="8.618250461295247">
        <ele>1537.29</ele>
        <time>2014-02-02T11:04:10Z</time>
      </trkpt>
      <trkpt lat="46.032007159665227" lon="8.61825205385685">
        <ele>1538.73</ele>
        <time>2014-02-02T11:04:40Z</time>
      </trkpt>
      <trkpt lat="46.032009925693274" lon="8.61825255677104">
        <ele>1537.77</ele>
        <time>2014-02-02T11:05:11Z</time>
      </trkpt>
      <trkpt lat="46.03200632147491" lon="8.618255658075213">
        <ele>1538.25</ele>
        <time>2014-02-02T11:05:44Z</time>
      </trkpt>
      <trkpt lat="46.0320033878088" lon="8.618256915360689">
        <ele>1537.77</ele>
        <time>2014-02-02T11:06:21Z</time>
      </trkpt>
      <trkpt lat="46.032011853531003" lon="8.618241492658854">
        <ele>1538.73</ele>
        <time>2014-02-02T11:06:43Z</time>
      </trkpt>
      <trkpt lat="46.032023839652538" lon="8.618243588134646">
        <ele>1539.21</ele>
        <time>2014-02-02T11:07:01Z</time>
      </trkpt>
      <trkpt lat="46.032011769711971" lon="8.618245096877217">
        <ele>1539.6900000000001</ele>
        <time>2014-02-02T11:07:15Z</time>
      </trkpt>
      <trkpt lat="46.032005650922656" lon="8.618257166817784">
        <ele>1540.1700000000001</ele>
        <time>2014-02-02T11:07:23Z</time>
      </trkpt>
      <trkpt lat="46.032007662579417" lon="8.618260435760021">
        <ele>1540.6500000000001</ele>
        <time>2014-02-02T11:07:27Z</time>
      </trkpt>
      <trkpt lat="46.031994922086596" lon="8.618299411609769">
        <ele>1540.1700000000001</ele>
        <time>2014-02-02T11:07:38Z</time>
      </trkpt>
      <trkpt lat="46.031998442485929" lon="8.618240067735314">
        <ele>1541.1300000000001</ele>
        <time>2014-02-02T11:07:50Z</time>
      </trkpt>
      <trkpt lat="46.031995760276914" lon="8.61824375577271">
        <ele>1541.1300000000001</ele>
        <time>2014-02-02T11:08:06Z</time>
      </trkpt>
      <trkpt lat="46.031993245705962" lon="8.618277451023459">
        <ele>1539.6900000000001</ele>
        <time>2014-02-02T11:08:29Z</time>
      </trkpt>
      <trkpt lat="46.031994083896279" lon="8.618272254243493">
        <ele>1540.1700000000001</ele>
        <time>2014-02-02T11:08:55Z</time>
      </trkpt>
      <trkpt lat="46.031990898773074" lon="8.61826429143548">
        <ele>1539.6900000000001</ele>
        <time>2014-02-02T11:09:19Z</time>
      </trkpt>
      <trkpt lat="46.031995508819818" lon="8.618265045806766">
        <ele>1540.6500000000001</ele>
        <time>2014-02-02T11:09:42Z</time>
      </trkpt>
      <trkpt lat="46.031963070854545" lon="8.618249706923962">
        <ele>1539.6900000000001</ele>
        <time>2014-02-02T11:09:59Z</time>
      </trkpt>
      <trkpt lat="46.031967932358384" lon="8.61823252402246">
        <ele>1539.21</ele>
        <time>2014-02-02T11:10:14Z</time>
      </trkpt>
      <trkpt lat="46.031961897388101" lon="8.61821299418807">
        <ele>1539.6900000000001</ele>
        <time>2014-02-02T11:10:21Z</time>
      </trkpt>
      <trkpt lat="46.03191252797842" lon="8.618187261745334">
        <ele>1539.21</ele>
        <time>2014-02-02T11:10:26Z</time>
      </trkpt>
      <trkpt lat="46.031709853559732" lon="8.618138143792749">
        <ele>1535.8399999999999</ele>
        <time>2014-02-02T11:10:44Z</time>
      </trkpt>
      <trkpt lat="46.031549843028188" lon="8.618014678359032">
        <ele>1533.9200000000001</ele>
        <time>2014-02-02T11:11:00Z</time>
      </trkpt>
      <trkpt lat="46.031444482505322" lon="8.617900097742677">
        <ele>1532.48</ele>
        <time>2014-02-02T11:11:15Z</time>
      </trkpt>
      <trkpt lat="46.031412966549397" lon="8.61786019988358">
        <ele>1532</ele>
        <time>2014-02-02T11:11:20Z</time>
      </trkpt>
      <trkpt lat="46.03144976310432" lon="8.617847878485918">
        <ele>1531.52</ele>
        <time>2014-02-02T11:11:31Z</time>
      </trkpt>
      <trkpt lat="46.031432999297976" lon="8.617851063609123">
        <ele>1532</ele>
        <time>2014-02-02T11:11:57Z</time>
      </trkpt>
      <trkpt lat="46.031425623223186" lon="8.617834551259875">
        <ele>1532</ele>
        <time>2014-02-02T11:12:05Z</time>
      </trkpt>
      <trkpt lat="46.031327219679952" lon="8.617723993957043">
        <ele>1529.1099999999999</ele>
        <time>2014-02-02T11:12:12Z</time>
      </trkpt>
      <trkpt lat="46.031190175563097" lon="8.617561720311642">
        <ele>1526.23</ele>
        <time>2014-02-02T11:12:23Z</time>
      </trkpt>
      <trkpt lat="46.031177854165435" lon="8.617541519924998">
        <ele>1525.75</ele>
        <time>2014-02-02T11:12:24Z</time>
      </trkpt>
      <trkpt lat="46.031162766739726" lon="8.61754403449595">
        <ele>1524.3099999999999</ele>
        <time>2014-02-02T11:12:37Z</time>
      </trkpt>
      <trkpt lat="46.031148936599493" lon="8.617525259032846">
        <ele>1524.79</ele>
        <time>2014-02-02T11:12:54Z</time>
      </trkpt>
      <trkpt lat="46.031163688749075" lon="8.617486115545034">
        <ele>1524.3099999999999</ele>
        <time>2014-02-02T11:13:15Z</time>
      </trkpt>
      <trkpt lat="46.031181626021862" lon="8.617469016462565">
        <ele>1524.3099999999999</ele>
        <time>2014-02-02T11:13:30Z</time>
      </trkpt>
      <trkpt lat="46.031176261603832" lon="8.617465328425169">
        <ele>1524.3099999999999</ele>
        <time>2014-02-02T11:13:35Z</time>
      </trkpt>
      <trkpt lat="46.031099651008844" lon="8.61734714359045">
        <ele>1521.4200000000001</ele>
        <time>2014-02-02T11:13:41Z</time>
      </trkpt>
      <trkpt lat="46.031071152538061" lon="8.617316884920001">
        <ele>1520.46</ele>
        <time>2014-02-02T11:13:43Z</time>
      </trkpt>
      <trkpt lat="46.030958415940404" lon="8.617194341495633">
        <ele>1516.1400000000001</ele>
        <time>2014-02-02T11:13:50Z</time>
      </trkpt>
      <trkpt lat="46.030884068459272" lon="8.617115467786789">
        <ele>1512.29</ele>
        <time>2014-02-02T11:13:55Z</time>
      </trkpt>
      <trkpt lat="46.030869400128722" lon="8.617102727293968">
        <ele>1511.3299999999999</ele>
        <time>2014-02-02T11:13:56Z</time>
      </trkpt>
      <trkpt lat="46.03086001239717" lon="8.617071378976107">
        <ele>1508.9300000000001</ele>
        <time>2014-02-02T11:13:59Z</time>
      </trkpt>
      <trkpt lat="46.03084584698081" lon="8.617061320692301">
        <ele>1508.45</ele>
        <time>2014-02-02T11:14:08Z</time>
      </trkpt>
      <trkpt lat="46.030760100111365" lon="8.616927964612842">
        <ele>1505.0799999999999</ele>
        <time>2014-02-02T11:14:21Z</time>
      </trkpt>
      <trkpt lat="46.030751718208194" lon="8.616919163614512">
        <ele>1504.1199999999999</ele>
        <time>2014-02-02T11:14:22Z</time>
      </trkpt>
      <trkpt lat="46.030670665204525" lon="8.616803493350744">
        <ele>1500.76</ele>
        <time>2014-02-02T11:14:33Z</time>
      </trkpt>
      <trkpt lat="46.030632946640253" lon="8.616748172789812">
        <ele>1497.8699999999999</ele>
        <time>2014-02-02T11:14:42Z</time>
      </trkpt>
      <trkpt lat="46.030625822022557" lon="8.616759823635221">
        <ele>1496.9100000000001</ele>
        <time>2014-02-02T11:14:56Z</time>
      </trkpt>
      <trkpt lat="46.030559688806534" lon="8.616609955206513">
        <ele>1493.55</ele>
        <time>2014-02-02T11:15:09Z</time>
      </trkpt>
      <trkpt lat="46.030544098466635" lon="8.616586402058601">
        <ele>1493.0599999999999</ele>
        <time>2014-02-02T11:15:11Z</time>
      </trkpt>
      <trkpt lat="46.030487939715385" lon="8.616523705422878">
        <ele>1491.6199999999999</ele>
        <time>2014-02-02T11:15:24Z</time>
      </trkpt>
      <trkpt lat="46.030442761257291" lon="8.6164206918329">
        <ele>1489.22</ele>
        <time>2014-02-02T11:15:35Z</time>
      </trkpt>
      <trkpt lat="46.030397079885006" lon="8.616311978548765">
        <ele>1485.8499999999999</ele>
        <time>2014-02-02T11:15:44Z</time>
      </trkpt>
      <trkpt lat="46.030367994681001" lon="8.616296723484993">
        <ele>1485.3699999999999</ele>
        <time>2014-02-02T11:15:58Z</time>
      </trkpt>
      <trkpt lat="46.030351901426911" lon="8.616266380995512">
        <ele>1485.3699999999999</ele>
        <time>2014-02-02T11:16:12Z</time>
      </trkpt>
      <trkpt lat="46.030347794294357" lon="8.616291610524058">
        <ele>1484.8900000000001</ele>
        <time>2014-02-02T11:16:26Z</time>
      </trkpt>
      <trkpt lat="46.030356092378497" lon="8.61625749617815">
        <ele>1484.8900000000001</ele>
        <time>2014-02-02T11:16:59Z</time>
      </trkpt>
      <trkpt lat="46.030361792072654" lon="8.616300243884325">
        <ele>1485.3699999999999</ele>
        <time>2014-02-02T11:17:35Z</time>
      </trkpt>
      <trkpt lat="46.030347375199199" lon="8.616287587210536">
        <ele>1486.3399999999999</ele>
        <time>2014-02-02T11:18:09Z</time>
      </trkpt>
      <trkpt lat="46.03034452535212" lon="8.616279121488333">
        <ele>1485.3699999999999</ele>
        <time>2014-02-02T11:18:19Z</time>
      </trkpt>
      <trkpt lat="46.030359864234924" lon="8.616257412359119">
        <ele>1484.8900000000001</ele>
        <time>2014-02-02T11:18:35Z</time>
      </trkpt>
      <trkpt lat="46.03034745901823" lon="8.61623645760119">
        <ele>1485.3699999999999</ele>
        <time>2014-02-02T11:18:56Z</time>
      </trkpt>
      <trkpt lat="46.030340082943439" lon="8.616279372945428">
        <ele>1484.8900000000001</ele>
        <time>2014-02-02T11:19:08Z</time>
      </trkpt>
      <trkpt lat="46.030353577807546" lon="8.616250455379486">
        <ele>1485.3699999999999</ele>
        <time>2014-02-02T11:19:19Z</time>
      </trkpt>
      <trkpt lat="46.030350727960467" lon="8.616266129538417">
        <ele>1483.9300000000001</ele>
        <time>2014-02-02T11:19:31Z</time>
      </trkpt>
      <trkpt lat="46.030366905033588" lon="8.616269482299686">
        <ele>1483.9300000000001</ele>
        <time>2014-02-02T11:19:46Z</time>
      </trkpt>
      <trkpt lat="46.030373526737094" lon="8.616275014355779">
        <ele>1483.9300000000001</ele>
        <time>2014-02-02T11:20:14Z</time>
      </trkpt>
      <trkpt lat="46.030346034094691" lon="8.616255819797516">
        <ele>1483.9300000000001</ele>
        <time>2014-02-02T11:20:39Z</time>
      </trkpt>
      <trkpt lat="46.030345698818564" lon="8.616256071254611">
        <ele>1483.45</ele>
        <time>2014-02-02T11:21:12Z</time>
      </trkpt>
      <trkpt lat="46.030376544222236" lon="8.616281636059284">
        <ele>1482.97</ele>
        <time>2014-02-02T11:21:42Z</time>
      </trkpt>
      <trkpt lat="46.030380483716726" lon="8.616280043497682">
        <ele>1483.45</ele>
        <time>2014-02-02T11:22:09Z</time>
      </trkpt>
      <trkpt lat="46.03040118701756" lon="8.616276020184159">
        <ele>1483.9300000000001</ele>
        <time>2014-02-02T11:22:41Z</time>
      </trkpt>
      <trkpt lat="46.03038894943893" lon="8.61627358943224">
        <ele>1483.9300000000001</ele>
        <time>2014-02-02T11:23:15Z</time>
      </trkpt>
      <trkpt lat="46.030388865619898" lon="8.616273170337081">
        <ele>1483.9300000000001</ele>
        <time>2014-02-02T11:23:44Z</time>
      </trkpt>
      <trkpt lat="46.030366905033588" lon="8.616262609139085">
        <ele>1483.9300000000001</ele>
        <time>2014-02-02T11:24:24Z</time>
      </trkpt>
      <trkpt lat="46.030376125127077" lon="8.61626286059618">
        <ele>1483.9300000000001</ele>
        <time>2014-02-02T11:24:57Z</time>
      </trkpt>
      <trkpt lat="46.030399762094021" lon="8.6162721645087">
        <ele>1483.9300000000001</ele>
        <time>2014-02-02T11:25:36Z</time>
      </trkpt>
      <trkpt lat="46.030390625819564" lon="8.616266045719385">
        <ele>1484.8900000000001</ele>
        <time>2014-02-02T11:26:01Z</time>
      </trkpt>
      <trkpt lat="46.030377801507711" lon="8.616263531148434">
        <ele>1484.8900000000001</ele>
        <time>2014-02-02T11:26:27Z</time>
      </trkpt>
      <trkpt lat="46.030382830649614" lon="8.616256155073643">
        <ele>1484.8900000000001</ele>
        <time>2014-02-02T11:26:55Z</time>
      </trkpt>
      <trkpt lat="46.03038165718317" lon="8.616239642724395">
        <ele>1485.3699999999999</ele>
        <time>2014-02-02T11:27:30Z</time>
      </trkpt>
      <trkpt lat="46.0303870216012" lon="8.61625992693007">
        <ele>1484.8900000000001</ele>
        <time>2014-02-02T11:28:02Z</time>
      </trkpt>
      <trkpt lat="46.030404958873987" lon="8.616265542805195">
        <ele>1484.8900000000001</ele>
        <time>2014-02-02T11:28:27Z</time>
      </trkpt>
      <trkpt lat="46.030399510636926" lon="8.61625162884593">
        <ele>1484.8900000000001</ele>
        <time>2014-02-02T11:28:52Z</time>
      </trkpt>
      <trkpt lat="46.03037822060287" lon="8.616221202537417">
        <ele>1484.8900000000001</ele>
        <time>2014-02-02T11:29:19Z</time>
      </trkpt>
      <trkpt lat="46.030354248359799" lon="8.616199661046267">
        <ele>1484.4100000000001</ele>
        <time>2014-02-02T11:29:49Z</time>
      </trkpt>
      <trkpt lat="46.030342010781169" lon="8.616201253607869">
        <ele>1484.8900000000001</ele>
        <time>2014-02-02T11:30:23Z</time>
      </trkpt>
      <trkpt lat="46.030366821214557" lon="8.616236289963126">
        <ele>1484.8900000000001</ele>
        <time>2014-02-02T11:30:53Z</time>
      </trkpt>
      <trkpt lat="46.030378807336092" lon="8.616209216415882">
        <ele>1485.3699999999999</ele>
        <time>2014-02-02T11:31:20Z</time>
      </trkpt>
      <trkpt lat="46.030383836477995" lon="8.616177700459957">
        <ele>1484.8900000000001</ele>
        <time>2014-02-02T11:31:49Z</time>
      </trkpt>
      <trkpt lat="46.030392218381166" lon="8.616122379899025">
        <ele>1485.3699999999999</ele>
        <time>2014-02-02T11:32:24Z</time>
      </trkpt>
      <trkpt lat="46.030388027429581" lon="8.616185998544097">
        <ele>1485.3699999999999</ele>
        <time>2014-02-02T11:32:54Z</time>
      </trkpt>
      <trkpt lat="46.030393475666642" lon="8.616204941645265">
        <ele>1485.3699999999999</ele>
        <time>2014-02-02T11:33:22Z</time>
      </trkpt>
      <trkpt lat="46.030366821214557" lon="8.616222459822893">
        <ele>1485.3699999999999</ele>
        <time>2014-02-02T11:33:43Z</time>
      </trkpt>
      <trkpt lat="46.030369168147445" lon="8.616239139810205">
        <ele>1485.3699999999999</ele>
        <time>2014-02-02T11:34:10Z</time>
      </trkpt>
      <trkpt lat="46.030379226431251" lon="8.616235787048936">
        <ele>1485.3699999999999</ele>
        <time>2014-02-02T11:34:31Z</time>
      </trkpt>
      <trkpt lat="46.030370090156794" lon="8.616220029070973">
        <ele>1484.8900000000001</ele>
        <time>2014-02-02T11:34:57Z</time>
      </trkpt>
      <trkpt lat="46.03038995526731" lon="8.616230422630906">
        <ele>1484.8900000000001</ele>
        <time>2014-02-02T11:35:20Z</time>
      </trkpt>
      <trkpt lat="46.030396074056625" lon="8.616239726543427">
        <ele>1485.3699999999999</ele>
        <time>2014-02-02T11:35:48Z</time>
      </trkpt>
      <trkpt lat="46.030429266393185" lon="8.616259843111038">
        <ele>1485.3699999999999</ele>
        <time>2014-02-02T11:36:09Z</time>
      </trkpt>
      <trkpt lat="46.030401606112719" lon="8.61626579426229">
        <ele>1485.3699999999999</ele>
        <time>2014-02-02T11:36:26Z</time>
      </trkpt>
      <trkpt lat="46.030372688546777" lon="8.616272583603859">
        <ele>1485.3699999999999</ele>
        <time>2014-02-02T11:36:59Z</time>
      </trkpt>
      <trkpt lat="46.030323822051287" lon="8.616242492571473">
        <ele>1485.3699999999999</ele>
        <time>2014-02-02T11:37:25Z</time>
      </trkpt>
      <trkpt lat="46.030329521745443" lon="8.616283480077982">
        <ele>1485.8499999999999</ele>
        <time>2014-02-02T11:37:39Z</time>
      </trkpt>
      <trkpt lat="46.030349805951118" lon="8.616246851161122">
        <ele>1485.8499999999999</ele>
        <time>2014-02-02T11:37:54Z</time>
      </trkpt>
      <trkpt lat="46.030361959710717" lon="8.616273002699018">
        <ele>1485.8499999999999</ele>
        <time>2014-02-02T11:38:15Z</time>
      </trkpt>
      <trkpt lat="46.030359361320734" lon="8.616278115659952">
        <ele>1484.8900000000001</ele>
        <time>2014-02-02T11:38:29Z</time>
      </trkpt>
      <trkpt lat="46.030350057408214" lon="8.616260178387165">
        <ele>1484.8900000000001</ele>
        <time>2014-02-02T11:38:47Z</time>
      </trkpt>
      <trkpt lat="46.030351901426911" lon="8.616260262206197">
        <ele>1484.8900000000001</ele>
        <time>2014-02-02T11:38:55Z</time>
      </trkpt>
      <trkpt lat="46.030369251966476" lon="8.616274679079652">
        <ele>1485.8499999999999</ele>
        <time>2014-02-02T11:39:07Z</time>
      </trkpt>
      <trkpt lat="46.03035525418818" lon="8.616286246106029">
        <ele>1486.3399999999999</ele>
        <time>2014-02-02T11:39:24Z</time>
      </trkpt>
      <trkpt lat="46.030372520908713" lon="8.616256238892674">
        <ele>1486.3399999999999</ele>
        <time>2014-02-02T11:39:40Z</time>
      </trkpt>
      <trkpt lat="46.030364390462637" lon="8.616255903616548">
        <ele>1486.3399999999999</ele>
        <time>2014-02-02T11:40:02Z</time>
      </trkpt>
      <trkpt lat="46.030380399897695" lon="8.616249281913042">
        <ele>1485.8499999999999</ele>
        <time>2014-02-02T11:40:19Z</time>
      </trkpt>
      <trkpt lat="46.030378639698029" lon="8.616271242499352">
        <ele>1485.8499999999999</ele>
        <time>2014-02-02T11:40:37Z</time>
      </trkpt>
      <trkpt lat="46.03037771768868" lon="8.61625162884593">
        <ele>1485.8499999999999</ele>
        <time>2014-02-02T11:40:58Z</time>
      </trkpt>
      <trkpt lat="46.030332371592522" lon="8.616190860047936">
        <ele>1484.8900000000001</ele>
        <time>2014-02-02T11:41:16Z</time>
      </trkpt>
      <trkpt lat="46.030314434319735" lon="8.616143334656954">
        <ele>1482.97</ele>
        <time>2014-02-02T11:41:22Z</time>
      </trkpt>
      <trkpt lat="46.030287779867649" lon="8.616099245846272">
        <ele>1481.53</ele>
        <time>2014-02-02T11:41:28Z</time>
      </trkpt>
      <trkpt lat="46.030252911150455" lon="8.616045350208879">
        <ele>1479.1300000000001</ele>
        <time>2014-02-02T11:41:32Z</time>
      </trkpt>
      <trkpt lat="46.030195914208889" lon="8.615930434316397">
        <ele>1475.76</ele>
        <time>2014-02-02T11:41:44Z</time>
      </trkpt>
      <trkpt lat="46.030180994421244" lon="8.615882406011224">
        <ele>1473.8399999999999</ele>
        <time>2014-02-02T11:41:49Z</time>
      </trkpt>
      <trkpt lat="46.030142270028591" lon="8.615821050480008">
        <ele>1471.9200000000001</ele>
        <time>2014-02-02T11:41:55Z</time>
      </trkpt>
      <trkpt lat="46.030110334977508" lon="8.615800682455301">
        <ele>1470.47</ele>
        <time>2014-02-02T11:41:59Z</time>
      </trkpt>
      <trkpt lat="46.03010262362659" lon="8.615729017183185">
        <ele>1468.55</ele>
        <time>2014-02-02T11:42:12Z</time>
      </trkpt>
      <trkpt lat="46.030105808749795" lon="8.615742595866323">
        <ele>1468.55</ele>
        <time>2014-02-02T11:42:30Z</time>
      </trkpt>
      <trkpt lat="46.030054092407227" lon="8.615718372166157">
        <ele>1467.5899999999999</ele>
        <time>2014-02-02T11:42:37Z</time>
      </trkpt>
      <trkpt lat="46.029992736876011" lon="8.6156125087291">
        <ele>1464.71</ele>
        <time>2014-02-02T11:42:46Z</time>
      </trkpt>
      <trkpt lat="46.029958538711071" lon="8.615507986396551">
        <ele>1461.3399999999999</ele>
        <time>2014-02-02T11:42:55Z</time>
      </trkpt>
      <trkpt lat="46.029946720227599" lon="8.615436991676688">
        <ele>1459.4200000000001</ele>
        <time>2014-02-02T11:43:03Z</time>
      </trkpt>
      <trkpt lat="46.029936745762825" lon="8.615371361374855">
        <ele>1458.46</ele>
        <time>2014-02-02T11:43:08Z</time>
      </trkpt>
      <trkpt lat="46.029926855117083" lon="8.61535401083529">
        <ele>1457.98</ele>
        <time>2014-02-02T11:43:10Z</time>
      </trkpt>
      <trkpt lat="46.029917551204562" lon="8.615333223715425">
        <ele>1457.5</ele>
        <time>2014-02-02T11:43:12Z</time>
      </trkpt>
      <trkpt lat="46.029903637245297" lon="8.61529047600925">
        <ele>1456.05</ele>
        <time>2014-02-02T11:43:16Z</time>
      </trkpt>
      <trkpt lat="46.02985393255949" lon="8.615198275074363">
        <ele>1453.6500000000001</ele>
        <time>2014-02-02T11:43:25Z</time>
      </trkpt>
      <trkpt lat="46.029810095205903" lon="8.615112863481045">
        <ele>1449.8099999999999</ele>
        <time>2014-02-02T11:43:34Z</time>
      </trkpt>
      <trkpt lat="46.029774388298392" lon="8.615021668374538">
        <ele>1447.8800000000001</ele>
        <time>2014-02-02T11:43:46Z</time>
      </trkpt>
      <trkpt lat="46.029765671119094" lon="8.614986632019281">
        <ele>1446.9200000000001</ele>
        <time>2014-02-02T11:43:49Z</time>
      </trkpt>
      <trkpt lat="46.02973666973412" lon="8.614787645637989">
        <ele>1444.52</ele>
        <time>2014-02-02T11:44:02Z</time>
      </trkpt>
      <trkpt lat="46.029714960604906" lon="8.614715309813619">
        <ele>1442.5999999999999</ele>
        <time>2014-02-02T11:44:08Z</time>
      </trkpt>
      <trkpt lat="46.02969073690474" lon="8.614656971767545">
        <ele>1441.1500000000001</ele>
        <time>2014-02-02T11:44:13Z</time>
      </trkpt>
      <trkpt lat="46.029659388586879" lon="8.614555299282074">
        <ele>1437.79</ele>
        <time>2014-02-02T11:44:22Z</time>
      </trkpt>
      <trkpt lat="46.029656287282705" lon="8.614544486626983">
        <ele>1437.79</ele>
        <time>2014-02-02T11:44:23Z</time>
      </trkpt>
      <trkpt lat="46.029574815183878" lon="8.614420518279076">
        <ele>1434.4200000000001</ele>
        <time>2014-02-02T11:44:34Z</time>
      </trkpt>
      <trkpt lat="46.029561823233962" lon="8.614353211596608">
        <ele>1432.98</ele>
        <time>2014-02-02T11:44:40Z</time>
      </trkpt>
      <trkpt lat="46.029565762728453" lon="8.614239972084761">
        <ele>1431.54</ele>
        <time>2014-02-02T11:44:52Z</time>
      </trkpt>
      <trkpt lat="46.029566433280706" lon="8.614198816940188">
        <ele>1430.5799999999999</ele>
        <time>2014-02-02T11:45:14Z</time>
      </trkpt>
      <trkpt lat="46.029559560120106" lon="8.614095635712147">
        <ele>1430.0999999999999</ele>
        <time>2014-02-02T11:45:21Z</time>
      </trkpt>
      <trkpt lat="46.029532989487052" lon="8.613918358460069">
        <ele>1427.7</ele>
        <time>2014-02-02T11:45:35Z</time>
      </trkpt>
      <trkpt lat="46.029522009193897" lon="8.613912826403976">
        <ele>1427.7</ele>
        <time>2014-02-02T11:45:47Z</time>
      </trkpt>
      <trkpt lat="46.029510609805584" lon="8.613919783383608">
        <ele>1427.21</ele>
        <time>2014-02-02T11:46:08Z</time>
      </trkpt>
      <trkpt lat="46.029503988102078" lon="8.613882148638368">
        <ele>1427.21</ele>
        <time>2014-02-02T11:46:28Z</time>
      </trkpt>
      <trkpt lat="46.029500551521778" lon="8.613881310448051">
        <ele>1427.7</ele>
        <time>2014-02-02T11:46:51Z</time>
      </trkpt>
      <trkpt lat="46.029477249830961" lon="8.613765556365252">
        <ele>1426.25</ele>
        <time>2014-02-02T11:47:04Z</time>
      </trkpt>
      <trkpt lat="46.02945763617754" lon="8.613642426207662">
        <ele>1424.3299999999999</ele>
        <time>2014-02-02T11:47:17Z</time>
      </trkpt>
      <trkpt lat="46.029396532103419" lon="8.613507393747568">
        <ele>1421.9300000000001</ele>
        <time>2014-02-02T11:47:29Z</time>
      </trkpt>
      <trkpt lat="46.029332662001252" lon="8.613385353237391">
        <ele>1420.49</ele>
        <time>2014-02-02T11:47:41Z</time>
      </trkpt>
      <trkpt lat="46.029261751100421" lon="8.61324705183506">
        <ele>1418.5599999999999</ele>
        <time>2014-02-02T11:47:55Z</time>
      </trkpt>
      <trkpt lat="46.029234761372209" lon="8.613220984116197">
        <ele>1418.5599999999999</ele>
        <time>2014-02-02T11:48:11Z</time>
      </trkpt>
      <trkpt lat="46.029214980080724" lon="8.613248476758599">
        <ele>1416.6400000000001</ele>
        <time>2014-02-02T11:48:24Z</time>
      </trkpt>
      <trkpt lat="46.029184721410275" lon="8.613268006592989">
        <ele>1416.1600000000001</ele>
        <time>2014-02-02T11:48:30Z</time>
      </trkpt>
      <trkpt lat="46.029105931520462" lon="8.613377390429378">
        <ele>1412.79</ele>
        <time>2014-02-02T11:48:41Z</time>
      </trkpt>
      <trkpt lat="46.029062764719129" lon="8.613503705710173">
        <ele>1409.4300000000001</ele>
        <time>2014-02-02T11:48:53Z</time>
      </trkpt>
      <trkpt lat="46.029027812182903" lon="8.613622142001987">
        <ele>1407.03</ele>
        <time>2014-02-02T11:49:07Z</time>
      </trkpt>
      <trkpt lat="46.029029656201601" lon="8.613612838089466">
        <ele>1406.0699999999999</ele>
        <time>2014-02-02T11:49:23Z</time>
      </trkpt>
      <trkpt lat="46.028997469693422" lon="8.613682826980948">
        <ele>1404.1400000000001</ele>
        <time>2014-02-02T11:49:33Z</time>
      </trkpt>
      <trkpt lat="46.028957823291421" lon="8.613763209432364">
        <ele>1401.74</ele>
        <time>2014-02-02T11:49:45Z</time>
      </trkpt>
      <trkpt lat="46.028944831341505" lon="8.613772094249725">
        <ele>1401.74</ele>
        <time>2014-02-02T11:49:47Z</time>
      </trkpt>
      <trkpt lat="46.028917003422976" lon="8.613807465881109">
        <ele>1400.3</ele>
        <time>2014-02-02T11:49:51Z</time>
      </trkpt>
      <trkpt lat="46.028876435011625" lon="8.613903522491455">
        <ele>1396.45</ele>
        <time>2014-02-02T11:50:00Z</time>
      </trkpt>
      <trkpt lat="46.028810637071729" lon="8.614007709547877">
        <ele>1393.5699999999999</ele>
        <time>2014-02-02T11:50:12Z</time>
      </trkpt>
      <trkpt lat="46.028765458613634" lon="8.614064119756222">
        <ele>1390.6800000000001</ele>
        <time>2014-02-02T11:50:22Z</time>
      </trkpt>
      <trkpt lat="46.028733355924487" lon="8.614073088392615">
        <ele>1389.72</ele>
        <time>2014-02-02T11:50:34Z</time>
      </trkpt>
      <trkpt lat="46.028732433915138" lon="8.614075686782599">
        <ele>1388.28</ele>
        <time>2014-02-02T11:50:47Z</time>
      </trkpt>
      <trkpt lat="46.028725560754538" lon="8.614051965996623">
        <ele>1389.24</ele>
        <time>2014-02-02T11:51:12Z</time>
      </trkpt>
      <trkpt lat="46.028708210214972" lon="8.614050289615989">
        <ele>1389.24</ele>
        <time>2014-02-02T11:51:24Z</time>
      </trkpt>
      <trkpt lat="46.02870125323534" lon="8.614050457254052">
        <ele>1389.24</ele>
        <time>2014-02-02T11:51:43Z</time>
      </trkpt>
      <trkpt lat="46.028681555762887" lon="8.61405037343502">
        <ele>1389.72</ele>
        <time>2014-02-02T11:52:02Z</time>
      </trkpt>
      <trkpt lat="46.028691278770566" lon="8.614027909934521">
        <ele>1389.24</ele>
        <time>2014-02-02T11:52:25Z</time>
      </trkpt>
      <trkpt lat="46.028698990121484" lon="8.614015588536859">
        <ele>1389.72</ele>
        <time>2014-02-02T11:52:39Z</time>
      </trkpt>
      <trkpt lat="46.028679795563221" lon="8.614020282402635">
        <ele>1389.72</ele>
        <time>2014-02-02T11:52:56Z</time>
      </trkpt>
      <trkpt lat="46.028690356761217" lon="8.614065125584602">
        <ele>1389.24</ele>
        <time>2014-02-02T11:53:13Z</time>
      </trkpt>
      <trkpt lat="46.028686249628663" lon="8.614062694832683">
        <ele>1389.24</ele>
        <time>2014-02-02T11:53:35Z</time>
      </trkpt>
      <trkpt lat="46.028702342882752" lon="8.614040985703468">
        <ele>1389.24</ele>
        <time>2014-02-02T11:54:09Z</time>
      </trkpt>
      <trkpt lat="46.028683986514807" lon="8.61403277143836">
        <ele>1389.24</ele>
        <time>2014-02-02T11:54:31Z</time>
      </trkpt>
      <trkpt lat="46.028702259063721" lon="8.614043248817325">
        <ele>1389.24</ele>
        <time>2014-02-02T11:54:44Z</time>
      </trkpt>
      <trkpt lat="46.028669318184257" lon="8.614036627113819">
        <ele>1388.76</ele>
        <time>2014-02-02T11:55:02Z</time>
      </trkpt>
      <trkpt lat="46.028665462508798" lon="8.614039979875088">
        <ele>1388.76</ele>
        <time>2014-02-02T11:55:31Z</time>
      </trkpt>
      <trkpt lat="46.028614332899451" lon="8.614024054259062">
        <ele>1386.8399999999999</ele>
        <time>2014-02-02T11:55:42Z</time>
      </trkpt>
      <trkpt lat="46.02854342199862" lon="8.614030256867409">
        <ele>1382.99</ele>
        <time>2014-02-02T11:55:50Z</time>
      </trkpt>
      <trkpt lat="46.028461195528507" lon="8.614006955176592">
        <ele>1379.6300000000001</ele>
        <time>2014-02-02T11:55:58Z</time>
      </trkpt>
      <trkpt lat="46.028379974886775" lon="8.613990023732185">
        <ele>1376.26</ele>
        <time>2014-02-02T11:56:07Z</time>
      </trkpt>
      <trkpt lat="46.028370670974255" lon="8.613991281017661">
        <ele>1375.78</ele>
        <time>2014-02-02T11:56:08Z</time>
      </trkpt>
      <trkpt lat="46.028348542749882" lon="8.613988598808646">
        <ele>1374.8199999999999</ele>
        <time>2014-02-02T11:56:10Z</time>
      </trkpt>
      <trkpt lat="46.028270423412323" lon="8.613976193591952">
        <ele>1371.9400000000001</ele>
        <time>2014-02-02T11:56:17Z</time>
      </trkpt>
      <trkpt lat="46.02822725661099" lon="8.614012068137527">
        <ele>1369.54</ele>
        <time>2014-02-02T11:56:22Z</time>
      </trkpt>
      <trkpt lat="46.028151568025351" lon="8.61406059935689">
        <ele>1367.1300000000001</ele>
        <time>2014-02-02T11:56:29Z</time>
      </trkpt>
      <trkpt lat="46.028078561648726" lon="8.614182304590941">
        <ele>1363.77</ele>
        <time>2014-02-02T11:56:40Z</time>
      </trkpt>
      <trkpt lat="46.028079902753234" lon="8.614208120852709">
        <ele>1363.29</ele>
        <time>2014-02-02T11:56:42Z</time>
      </trkpt>
      <trkpt lat="46.028081495314837" lon="8.614238882437348">
        <ele>1362.3299999999999</ele>
        <time>2014-02-02T11:56:44Z</time>
      </trkpt>
      <trkpt lat="46.028086021542549" lon="8.614360503852367">
        <ele>1358.48</ele>
        <time>2014-02-02T11:56:55Z</time>
      </trkpt>
      <trkpt lat="46.028085267171264" lon="8.614366119727492">
        <ele>1358.48</ele>
        <time>2014-02-02T11:56:56Z</time>
      </trkpt>
      <trkpt lat="46.028094822540879" lon="8.614419680088759">
        <ele>1356.0799999999999</ele>
        <time>2014-02-02T11:57:07Z</time>
      </trkpt>
      <trkpt lat="46.028100522235036" lon="8.61445052549243">
        <ele>1355.5999999999999</ele>
        <time>2014-02-02T11:57:10Z</time>
      </trkpt>
      <trkpt lat="46.028128517791629" lon="8.614572482183576">
        <ele>1353.1900000000001</ele>
        <time>2014-02-02T11:57:22Z</time>
      </trkpt>
      <trkpt lat="46.028091637417674" lon="8.614577846601605">
        <ele>1351.75</ele>
        <time>2014-02-02T11:57:33Z</time>
      </trkpt>
      <trkpt lat="46.028057858347893" lon="8.614615565165877">
        <ele>1349.3499999999999</ele>
        <time>2014-02-02T11:57:43Z</time>
      </trkpt>
      <trkpt lat="46.028044279664755" lon="8.6146489251405">
        <ele>1347.4300000000001</ele>
        <time>2014-02-02T11:57:48Z</time>
      </trkpt>
      <trkpt lat="46.028072191402316" lon="8.614651607349515">
        <ele>1346.46</ele>
        <time>2014-02-02T11:57:59Z</time>
      </trkpt>
      <trkpt lat="46.028074957430363" lon="8.614667449146509">
        <ele>1346.46</ele>
        <time>2014-02-02T11:58:13Z</time>
      </trkpt>
      <trkpt lat="46.028054002672434" lon="8.614685889333487">
        <ele>1346.9400000000001</ele>
        <time>2014-02-02T11:58:27Z</time>
      </trkpt>
      <trkpt lat="46.028050314635038" lon="8.614643393084407">
        <ele>1347.4300000000001</ele>
        <time>2014-02-02T11:58:47Z</time>
      </trkpt>
      <trkpt lat="46.028048638254404" lon="8.61463425680995">
        <ele>1347.4300000000001</ele>
        <time>2014-02-02T11:58:59Z</time>
      </trkpt>
      <trkpt lat="46.028050314635038" lon="8.614639202132821">
        <ele>1347.9100000000001</ele>
        <time>2014-02-02T11:59:15Z</time>
      </trkpt>
      <trkpt lat="46.028053164482117" lon="8.614642890170217">
        <ele>1347.9100000000001</ele>
        <time>2014-02-02T11:59:33Z</time>
      </trkpt>
      <trkpt lat="46.028071604669094" lon="8.614641213789582">
        <ele>1348.3900000000001</ele>
        <time>2014-02-02T11:59:46Z</time>
      </trkpt>
      <trkpt lat="46.028027515858412" lon="8.614652110263705">
        <ele>1348.8699999999999</ele>
        <time>2014-02-02T12:00:03Z</time>
      </trkpt>
      <trkpt lat="46.028013601899147" lon="8.614626294001937">
        <ele>1349.3499999999999</ele>
        <time>2014-02-02T12:00:16Z</time>
      </trkpt>
      <trkpt lat="46.028061797842383" lon="8.61467381939292">
        <ele>1347.4300000000001</ele>
        <time>2014-02-02T12:00:31Z</time>
      </trkpt>
      <trkpt lat="46.028066575527191" lon="8.614720171317458">
        <ele>1346.9400000000001</ele>
        <time>2014-02-02T12:00:38Z</time>
      </trkpt>
      <trkpt lat="46.028045956045389" lon="8.614773983135819">
        <ele>1346.46</ele>
        <time>2014-02-02T12:00:53Z</time>
      </trkpt>
      <trkpt lat="46.028036987408996" lon="8.614799464121461">
        <ele>1345.98</ele>
        <time>2014-02-02T12:01:21Z</time>
      </trkpt>
      <trkpt lat="46.028008237481117" lon="8.61499241553247">
        <ele>1345.02</ele>
        <time>2014-02-02T12:01:34Z</time>
      </trkpt>
      <trkpt lat="46.027996586635709" lon="8.61501781269908">
        <ele>1344.54</ele>
        <time>2014-02-02T12:01:36Z</time>
      </trkpt>
      <trkpt lat="46.027896758168936" lon="8.615167178213596">
        <ele>1343.5799999999999</ele>
        <time>2014-02-02T12:01:50Z</time>
      </trkpt>
      <trkpt lat="46.027809754014015" lon="8.615306485444307">
        <ele>1341.6600000000001</ele>
        <time>2014-02-02T12:02:02Z</time>
      </trkpt>
      <trkpt lat="46.027736999094486" lon="8.61549524590373">
        <ele>1340.22</ele>
        <time>2014-02-02T12:02:17Z</time>
      </trkpt>
      <trkpt lat="46.027725264430046" lon="8.615521816536784">
        <ele>1340.22</ele>
        <time>2014-02-02T12:02:19Z</time>
      </trkpt>
      <trkpt lat="46.027711015194654" lon="8.615545956417918">
        <ele>1339.73</ele>
        <time>2014-02-02T12:02:21Z</time>
      </trkpt>
      <trkpt lat="46.027638930827379" lon="8.615747541189194">
        <ele>1338.29</ele>
        <time>2014-02-02T12:02:35Z</time>
      </trkpt>
      <trkpt lat="46.027603978291154" lon="8.615838149562478">
        <ele>1337.3299999999999</ele>
        <time>2014-02-02T12:02:42Z</time>
      </trkpt>
      <trkpt lat="46.027525272220373" lon="8.61602146178484">
        <ele>1335.4100000000001</ele>
        <time>2014-02-02T12:02:56Z</time>
      </trkpt>
      <trkpt lat="46.027429047971964" lon="8.616197146475315">
        <ele>1333.97</ele>
        <time>2014-02-02T12:03:10Z</time>
      </trkpt>
      <trkpt lat="46.027359561994672" lon="8.616334106773138">
        <ele>1333.01</ele>
        <time>2014-02-02T12:03:23Z</time>
      </trkpt>
      <trkpt lat="46.027337769046426" lon="8.616393031552434">
        <ele>1332.04</ele>
        <time>2014-02-02T12:03:28Z</time>
      </trkpt>
      <trkpt lat="46.02727398276329" lon="8.616600735113025">
        <ele>1330.1199999999999</ele>
        <time>2014-02-02T12:03:43Z</time>
      </trkpt>
      <trkpt lat="46.027259733527899" lon="8.616689834743738">
        <ele>1330.1199999999999</ele>
        <time>2014-02-02T12:03:52Z</time>
      </trkpt>
      <trkpt lat="46.027265097945929" lon="8.616723027080298">
        <ele>1329.6400000000001</ele>
        <time>2014-02-02T12:03:54Z</time>
      </trkpt>
      <trkpt lat="46.027217824012041" lon="8.616952104493976">
        <ele>1327.24</ele>
        <time>2014-02-02T12:04:08Z</time>
      </trkpt>
      <trkpt lat="46.027208520099521" lon="8.617017399519682">
        <ele>1327.24</ele>
        <time>2014-02-02T12:04:21Z</time>
      </trkpt>
      <trkpt lat="46.027207430452108" lon="8.6170251108706">
        <ele>1326.76</ele>
        <time>2014-02-02T12:04:37Z</time>
      </trkpt>
      <trkpt lat="46.027193013578653" lon="8.617112701758742">
        <ele>1326.28</ele>
        <time>2014-02-02T12:04:56Z</time>
      </trkpt>
      <trkpt lat="46.027168789878488" lon="8.617146229371429">
        <ele>1326.28</ele>
        <time>2014-02-02T12:04:59Z</time>
      </trkpt>
      <trkpt lat="46.027107685804367" lon="8.617366589605808">
        <ele>1324.8299999999999</ele>
        <time>2014-02-02T12:05:15Z</time>
      </trkpt>
      <trkpt lat="46.027094274759293" lon="8.617543028667569">
        <ele>1322.4300000000001</ele>
        <time>2014-02-02T12:05:27Z</time>
      </trkpt>
      <trkpt lat="46.027082540094852" lon="8.617729442194104">
        <ele>1321.47</ele>
        <time>2014-02-02T12:05:39Z</time>
      </trkpt>
      <trkpt lat="46.027083294466138" lon="8.617747882381082">
        <ele>1321.47</ele>
        <time>2014-02-02T12:05:40Z</time>
      </trkpt>
      <trkpt lat="46.027089832350612" lon="8.617976037785411">
        <ele>1320.03</ele>
        <time>2014-02-02T12:05:55Z</time>
      </trkpt>
      <trkpt lat="46.027085389941931" lon="8.618087265640497">
        <ele>1318.0999999999999</ele>
        <time>2014-02-02T12:06:02Z</time>
      </trkpt>
      <trkpt lat="46.027099220082164" lon="8.618210395798087">
        <ele>1317.6199999999999</ele>
        <time>2014-02-02T12:06:16Z</time>
      </trkpt>
      <trkpt lat="46.027103830128908" lon="8.618220454081893">
        <ele>1317.6199999999999</ele>
        <time>2014-02-02T12:06:36Z</time>
      </trkpt>
      <trkpt lat="46.027097627520561" lon="8.618227746337652">
        <ele>1317.6199999999999</ele>
        <time>2014-02-02T12:06:57Z</time>
      </trkpt>
      <trkpt lat="46.027085557579994" lon="8.618267392739654">
        <ele>1318.0999999999999</ele>
        <time>2014-02-02T12:07:12Z</time>
      </trkpt>
      <trkpt lat="46.027128472924232" lon="8.618435449898243">
        <ele>1316.6600000000001</ele>
        <time>2014-02-02T12:07:25Z</time>
      </trkpt>
      <trkpt lat="46.027214722707868" lon="8.618586491793394">
        <ele>1315.22</ele>
        <time>2014-02-02T12:07:36Z</time>
      </trkpt>
      <trkpt lat="46.027225451543927" lon="8.618616499006748">
        <ele>1314.74</ele>
        <time>2014-02-02T12:07:39Z</time>
      </trkpt>
      <trkpt lat="46.027299044653773" lon="8.618764607235789">
        <ele>1313.3</ele>
        <time>2014-02-02T12:07:51Z</time>
      </trkpt>
      <trkpt lat="46.027395436540246" lon="8.618965605273843">
        <ele>1311.8599999999999</ele>
        <time>2014-02-02T12:08:05Z</time>
      </trkpt>
      <trkpt lat="46.027489313855767" lon="8.619127292186022">
        <ele>1310.4100000000001</ele>
        <time>2014-02-02T12:08:17Z</time>
      </trkpt>
      <trkpt lat="46.027478165924549" lon="8.619334492832422">
        <ele>1309.45</ele>
        <time>2014-02-02T12:08:31Z</time>
      </trkpt>
      <trkpt lat="46.027454026043415" lon="8.619343126192689">
        <ele>1308.97</ele>
        <time>2014-02-02T12:08:47Z</time>
      </trkpt>
      <trkpt lat="46.027451762929559" lon="8.619366679340601">
        <ele>1308.97</ele>
        <time>2014-02-02T12:08:51Z</time>
      </trkpt>
      <trkpt lat="46.02738244459033" lon="8.619576981291175">
        <ele>1307.05</ele>
        <time>2014-02-02T12:09:06Z</time>
      </trkpt>
      <trkpt lat="46.027346821501851" lon="8.619791893288493">
        <ele>1305.6099999999999</ele>
        <time>2014-02-02T12:09:20Z</time>
      </trkpt>
      <trkpt lat="46.027347156777978" lon="8.619864648208022">
        <ele>1305.1300000000001</ele>
        <time>2014-02-02T12:09:32Z</time>
      </trkpt>
      <trkpt lat="46.027304492890835" lon="8.620066987350583">
        <ele>1303.2</ele>
        <time>2014-02-02T12:09:46Z</time>
      </trkpt>
      <trkpt lat="46.027298206463456" lon="8.620077045634389">
        <ele>1303.2</ele>
        <time>2014-02-02T12:09:47Z</time>
      </trkpt>
      <trkpt lat="46.027168789878488" lon="8.620147285982966">
        <ele>1301.76</ele>
        <time>2014-02-02T12:10:02Z</time>
      </trkpt>
      <trkpt lat="46.027056723833084" lon="8.620312325656414">
        <ele>1300.3199999999999</ele>
        <time>2014-02-02T12:10:16Z</time>
      </trkpt>
      <trkpt lat="46.026989752426744" lon="8.620516927912831">
        <ele>1298.8800000000001</ele>
        <time>2014-02-02T12:10:30Z</time>
      </trkpt>
      <trkpt lat="46.026901742443442" lon="8.62072697840631">
        <ele>1296.96</ele>
        <time>2014-02-02T12:10:45Z</time>
      </trkpt>
      <trkpt lat="46.026828149333596" lon="8.620895873755217">
        <ele>1295.03</ele>
        <time>2014-02-02T12:11:00Z</time>
      </trkpt>
      <trkpt lat="46.026773247867823" lon="8.621043981984258">
        <ele>1293.5899999999999</ele>
        <time>2014-02-02T12:11:12Z</time>
      </trkpt>
      <trkpt lat="46.026694625616074" lon="8.621278591454029">
        <ele>1292.1500000000001</ele>
        <time>2014-02-02T12:11:27Z</time>
      </trkpt>
      <trkpt lat="46.026642071083188" lon="8.621496940031648">
        <ele>1290.23</ele>
        <time>2014-02-02T12:11:42Z</time>
      </trkpt>
      <trkpt lat="46.026582308113575" lon="8.621708583086729">
        <ele>1288.3</ele>
        <time>2014-02-02T12:11:56Z</time>
      </trkpt>
      <trkpt lat="46.026540985330939" lon="8.621834898367524">
        <ele>1287.3399999999999</ele>
        <time>2014-02-02T12:12:05Z</time>
      </trkpt>
      <trkpt lat="46.026473343372345" lon="8.622057354077697">
        <ele>1285.4200000000001</ele>
        <time>2014-02-02T12:12:20Z</time>
      </trkpt>
      <trkpt lat="46.026421710848808" lon="8.622144609689713">
        <ele>1283.98</ele>
        <time>2014-02-02T12:12:29Z</time>
      </trkpt>
      <trkpt lat="46.02623512968421" lon="8.622166151180863">
        <ele>1282.54</ele>
        <time>2014-02-02T12:12:45Z</time>
      </trkpt>
      <trkpt lat="46.026155333966017" lon="8.622182328253985">
        <ele>1281.5699999999999</ele>
        <time>2014-02-02T12:12:52Z</time>
      </trkpt>
      <trkpt lat="46.026108311489224" lon="8.622232619673014">
        <ele>1281.5699999999999</ele>
        <time>2014-02-02T12:12:57Z</time>
      </trkpt>
      <trkpt lat="46.026080483570695" lon="8.622484160587192">
        <ele>1279.6500000000001</ele>
        <time>2014-02-02T12:13:12Z</time>
      </trkpt>
      <trkpt lat="46.026082327589393" lon="8.622534703463316">
        <ele>1279.1700000000001</ele>
        <time>2014-02-02T12:13:15Z</time>
      </trkpt>
      <trkpt lat="46.026093643158674" lon="8.622600333765149">
        <ele>1278.21</ele>
        <time>2014-02-02T12:13:19Z</time>
      </trkpt>
      <trkpt lat="46.026088446378708" lon="8.622641321271658">
        <ele>1278.21</ele>
        <time>2014-02-02T12:13:22Z</time>
      </trkpt>
      <trkpt lat="46.026132954284549" lon="8.622858747839928">
        <ele>1276.29</ele>
        <time>2014-02-02T12:13:36Z</time>
      </trkpt>
      <trkpt lat="46.026134546846151" lon="8.622906021773815">
        <ele>1275.8099999999999</ele>
        <time>2014-02-02T12:13:39Z</time>
      </trkpt>
      <trkpt lat="46.026058355346322" lon="8.623114647343755">
        <ele>1273.8800000000001</ele>
        <time>2014-02-02T12:13:55Z</time>
      </trkpt>
      <trkpt lat="46.026036478579044" lon="8.62315253354609">
        <ele>1273.4000000000001</ele>
        <time>2014-02-02T12:14:00Z</time>
      </trkpt>
      <trkpt lat="46.025910750031471" lon="8.623333163559437">
        <ele>1271</ele>
        <time>2014-02-02T12:14:16Z</time>
      </trkpt>
      <trkpt lat="46.025799354538321" lon="8.623540531843901">
        <ele>1269.5599999999999</ele>
        <time>2014-02-02T12:14:31Z</time>
      </trkpt>
      <trkpt lat="46.025789882987738" lon="8.623565090820193">
        <ele>1269.0799999999999</ele>
        <time>2014-02-02T12:14:33Z</time>
      </trkpt>
      <trkpt lat="46.025654934346676" lon="8.623738428577781">
        <ele>1267.1600000000001</ele>
        <time>2014-02-02T12:14:50Z</time>
      </trkpt>
      <trkpt lat="46.02554370649159" lon="8.623800035566092">
        <ele>1266.1900000000001</ele>
        <time>2014-02-02T12:15:01Z</time>
      </trkpt>
      <trkpt lat="46.02536978200078" lon="8.623866168782115">
        <ele>1263.79</ele>
        <time>2014-02-02T12:15:16Z</time>
      </trkpt>
      <trkpt lat="46.025329129770398" lon="8.623897936195135">
        <ele>1263.3099999999999</ele>
        <time>2014-02-02T12:15:21Z</time>
      </trkpt>
      <trkpt lat="46.025220584124327" lon="8.624187028035522">
        <ele>1260.4300000000001</ele>
        <time>2014-02-02T12:15:39Z</time>
      </trkpt>
      <trkpt lat="46.025130394846201" lon="8.624395402148366">
        <ele>1258.02</ele>
        <time>2014-02-02T12:15:53Z</time>
      </trkpt>
      <trkpt lat="46.02511078119278" lon="8.624455584213138">
        <ele>1257.54</ele>
        <time>2014-02-02T12:15:57Z</time>
      </trkpt>
      <trkpt lat="46.025157971307635" lon="8.62472539767623">
        <ele>1255.6199999999999</ele>
        <time>2014-02-02T12:16:11Z</time>
      </trkpt>
      <trkpt lat="46.025165766477585" lon="8.62496193498373">
        <ele>1253.22</ele>
        <time>2014-02-02T12:16:24Z</time>
      </trkpt>
      <trkpt lat="46.025155959650874" lon="8.625199729576707">
        <ele>1249.8499999999999</ele>
        <time>2014-02-02T12:16:36Z</time>
      </trkpt>
      <trkpt lat="46.02513768710196" lon="8.625415731221438">
        <ele>1248.4100000000001</ele>
        <time>2014-02-02T12:16:50Z</time>
      </trkpt>
      <trkpt lat="46.025053365156054" lon="8.625573646277189">
        <ele>1245.53</ele>
        <time>2014-02-02T12:17:04Z</time>
      </trkpt>
      <trkpt lat="46.02505068294704" lon="8.625609688460827">
        <ele>1245.04</ele>
        <time>2014-02-02T12:17:08Z</time>
      </trkpt>
      <trkpt lat="46.024968037381768" lon="8.625791659578681">
        <ele>1242.1600000000001</ele>
        <time>2014-02-02T12:17:23Z</time>
      </trkpt>
      <trkpt lat="46.024876087903976" lon="8.625917807221413">
        <ele>1240.24</ele>
        <time>2014-02-02T12:17:37Z</time>
      </trkpt>
      <trkpt lat="46.02483325637877" lon="8.625982934609056">
        <ele>1239.76</ele>
        <time>2014-02-02T12:17:43Z</time>
      </trkpt>
      <trkpt lat="46.024810038506985" lon="8.626013109460473">
        <ele>1239.28</ele>
        <time>2014-02-02T12:17:46Z</time>
      </trkpt>
      <trkpt lat="46.024730326607823" lon="8.626093911007047">
        <ele>1237.8299999999999</ele>
        <time>2014-02-02T12:17:59Z</time>
      </trkpt>
      <trkpt lat="46.024725381284952" lon="8.626089049503207">
        <ele>1237.8299999999999</ele>
        <time>2014-02-02T12:18:00Z</time>
      </trkpt>
      <trkpt lat="46.024581966921687" lon="8.626005230471492">
        <ele>1237.3499999999999</ele>
        <time>2014-02-02T12:18:15Z</time>
      </trkpt>
      <trkpt lat="46.024568388238549" lon="8.625988885760307">
        <ele>1237.3499999999999</ele>
        <time>2014-02-02T12:18:17Z</time>
      </trkpt>
      <trkpt lat="46.024569310247898" lon="8.625890566036105">
        <ele>1237.8299999999999</ele>
        <time>2014-02-02T12:18:30Z</time>
      </trkpt>
      <trkpt lat="46.02457869797945" lon="8.625896014273167">
        <ele>1237.8299999999999</ele>
        <time>2014-02-02T12:18:41Z</time>
      </trkpt>
      <trkpt lat="46.024563610553741" lon="8.625932307913899">
        <ele>1236.3900000000001</ele>
        <time>2014-02-02T12:18:50Z</time>
      </trkpt>
      <trkpt lat="46.024579200893641" lon="8.625938845798373">
        <ele>1236.8699999999999</ele>
        <time>2014-02-02T12:19:18Z</time>
      </trkpt>
      <trkpt lat="46.024595126509666" lon="8.625928871333599">
        <ele>1236.8699999999999</ele>
        <time>2014-02-02T12:19:51Z</time>
      </trkpt>
      <trkpt lat="46.024589259177446" lon="8.625923339277506">
        <ele>1236.8699999999999</ele>
        <time>2014-02-02T12:20:21Z</time>
      </trkpt>
      <trkpt lat="46.02457769215107" lon="8.625917807221413">
        <ele>1236.8699999999999</ele>
        <time>2014-02-02T12:20:53Z</time>
      </trkpt>
      <trkpt lat="46.024642484262586" lon="8.625860055908561">
        <ele>1236.8699999999999</ele>
        <time>2014-02-02T12:21:38Z</time>
      </trkpt>
      <trkpt lat="46.024655057117343" lon="8.625933481380343">
        <ele>1237.3499999999999</ele>
        <time>2014-02-02T12:22:19Z</time>
      </trkpt>
      <trkpt lat="46.024617338553071" lon="8.625895092263818">
        <ele>1237.8299999999999</ele>
        <time>2014-02-02T12:23:05Z</time>
      </trkpt>
      <trkpt lat="46.024609627202153" lon="8.625916047021747">
        <ele>1237.8299999999999</ele>
        <time>2014-02-02T12:23:44Z</time>
      </trkpt>
      <trkpt lat="46.024595210328698" lon="8.625919986516237">
        <ele>1238.3199999999999</ele>
        <time>2014-02-02T12:24:22Z</time>
      </trkpt>
      <trkpt lat="46.024598563089967" lon="8.625943036749959">
        <ele>1238.3199999999999</ele>
        <time>2014-02-02T12:25:06Z</time>
      </trkpt>
      <trkpt lat="46.024594623595476" lon="8.625928200781345">
        <ele>1238.8</ele>
        <time>2014-02-02T12:25:53Z</time>
      </trkpt>
      <trkpt lat="46.024572160094976" lon="8.625895427539945">
        <ele>1239.28</ele>
        <time>2014-02-02T12:26:35Z</time>
      </trkpt>
      <trkpt lat="46.024595964699984" lon="8.62585561349988">
        <ele>1238.8</ele>
        <time>2014-02-02T12:27:16Z</time>
      </trkpt>
      <trkpt lat="46.024602754041553" lon="8.625897439196706">
        <ele>1239.76</ele>
        <time>2014-02-02T12:27:51Z</time>
      </trkpt>
      <trkpt lat="46.024601832032204" lon="8.625868521630764">
        <ele>1239.76</ele>
        <time>2014-02-02T12:28:32Z</time>
      </trkpt>
      <trkpt lat="46.02459579706192" lon="8.62589911557734">
        <ele>1239.76</ele>
        <time>2014-02-02T12:29:15Z</time>
      </trkpt>
      <trkpt lat="46.024583894759417" lon="8.625898528844118">
        <ele>1240.24</ele>
        <time>2014-02-02T12:29:58Z</time>
      </trkpt>
      <trkpt lat="46.024548271670938" lon="8.625927865505219">
        <ele>1240.72</ele>
        <time>2014-02-02T12:30:37Z</time>
      </trkpt>
      <trkpt lat="46.024580374360085" lon="8.625938091427088">
        <ele>1241.2</ele>
        <time>2014-02-02T12:31:25Z</time>
      </trkpt>
      <trkpt lat="46.02456939406693" lon="8.625926524400711">
        <ele>1242.1600000000001</ele>
        <time>2014-02-02T12:32:09Z</time>
      </trkpt>
      <trkpt lat="46.024562604725361" lon="8.62592400982976">
        <ele>1241.6800000000001</ele>
        <time>2014-02-02T12:32:57Z</time>
      </trkpt>
      <trkpt lat="46.024571657180786" lon="8.625918058678508">
        <ele>1241.6800000000001</ele>
        <time>2014-02-02T12:33:28Z</time>
      </trkpt>
      <trkpt lat="46.0246158298105" lon="8.62594798207283">
        <ele>1241.6800000000001</ele>
        <time>2014-02-02T12:34:07Z</time>
      </trkpt>
      <trkpt lat="46.02459185756743" lon="8.625909341499209">
        <ele>1241.6800000000001</ele>
        <time>2014-02-02T12:34:54Z</time>
      </trkpt>
      <trkpt lat="46.02459286339581" lon="8.625929206609726">
        <ele>1242.1600000000001</ele>
        <time>2014-02-02T12:35:32Z</time>
      </trkpt>
      <trkpt lat="46.024603676050901" lon="8.62592400982976">
        <ele>1241.6800000000001</ele>
        <time>2014-02-02T12:36:09Z</time>
      </trkpt>
      <trkpt lat="46.024520946666598" lon="8.625998524948955">
        <ele>1242.1600000000001</ele>
        <time>2014-02-02T12:36:49Z</time>
      </trkpt>
      <trkpt lat="46.024562437087297" lon="8.625922836363316">
        <ele>1242.6400000000001</ele>
        <time>2014-02-02T12:37:21Z</time>
      </trkpt>
      <trkpt lat="46.024557994678617" lon="8.62595971673727">
        <ele>1242.6400000000001</ele>
        <time>2014-02-02T12:37:56Z</time>
      </trkpt>
      <trkpt lat="46.024602251127362" lon="8.625983353704214">
        <ele>1242.6400000000001</ele>
        <time>2014-02-02T12:38:22Z</time>
      </trkpt>
      <trkpt lat="46.024584649130702" lon="8.625917388126254">
        <ele>1243.1199999999999</ele>
        <time>2014-02-02T12:38:52Z</time>
      </trkpt>
      <trkpt lat="46.024524215608835" lon="8.625998441129923">
        <ele>1243.1199999999999</ele>
        <time>2014-02-02T12:39:22Z</time>
      </trkpt>
      <trkpt lat="46.024566125124693" lon="8.625985030084848">
        <ele>1243.5999999999999</ele>
        <time>2014-02-02T12:39:57Z</time>
      </trkpt>
      <trkpt lat="46.024545170366764" lon="8.625995423644781">
        <ele>1243.1199999999999</ele>
        <time>2014-02-02T12:40:27Z</time>
      </trkpt>
      <trkpt lat="46.024502506479621" lon="8.626007912680507">
        <ele>1243.5999999999999</ele>
        <time>2014-02-02T12:40:54Z</time>
      </trkpt>
      <trkpt lat="46.024576686322689" lon="8.625982431694865">
        <ele>1244.0799999999999</ele>
        <time>2014-02-02T12:41:29Z</time>
      </trkpt>
      <trkpt lat="46.024546176195145" lon="8.625959632918239">
        <ele>1245.04</ele>
        <time>2014-02-02T12:41:49Z</time>
      </trkpt>
      <trkpt lat="46.024535363540053" lon="8.62594990991056">
        <ele>1245.53</ele>
        <time>2014-02-02T12:42:06Z</time>
      </trkpt>
      <trkpt lat="46.024506194517016" lon="8.625964913517237">
        <ele>1246.01</ele>
        <time>2014-02-02T12:42:32Z</time>
      </trkpt>
      <trkpt lat="46.024502171203494" lon="8.625984527170658">
        <ele>1245.53</ele>
        <time>2014-02-02T12:42:51Z</time>
      </trkpt>
      <trkpt lat="46.024497225880623" lon="8.62594697624445">
        <ele>1245.53</ele>
        <time>2014-02-02T12:43:09Z</time>
      </trkpt>
      <trkpt lat="46.024496806785464" lon="8.625980671495199">
        <ele>1246.49</ele>
        <time>2014-02-02T12:43:36Z</time>
      </trkpt>
      <trkpt lat="46.024506948888302" lon="8.625980922952294">
        <ele>1246.01</ele>
        <time>2014-02-02T12:43:59Z</time>
      </trkpt>
      <trkpt lat="46.024524886161089" lon="8.625984024256468">
        <ele>1246.49</ele>
        <time>2014-02-02T12:44:17Z</time>
      </trkpt>
      <trkpt lat="46.024534776806831" lon="8.625884279608727">
        <ele>1245.53</ele>
        <time>2014-02-02T12:44:34Z</time>
      </trkpt>
      <trkpt lat="46.024550115689635" lon="8.625863241031766">
        <ele>1246.49</ele>
        <time>2014-02-02T12:44:53Z</time>
      </trkpt>
      <trkpt lat="46.024518264457583" lon="8.625941947102547">
        <ele>1246.97</ele>
        <time>2014-02-02T12:45:10Z</time>
      </trkpt>
      <trkpt lat="46.024499153718352" lon="8.625955274328589">
        <ele>1246.97</ele>
        <time>2014-02-02T12:45:31Z</time>
      </trkpt>
      <trkpt lat="46.024506445974112" lon="8.625963404774666">
        <ele>1246.97</ele>
        <time>2014-02-02T12:45:59Z</time>
      </trkpt>
      <trkpt lat="46.024525137618184" lon="8.625965164974332">
        <ele>1246.97</ele>
        <time>2014-02-02T12:46:23Z</time>
      </trkpt>
      <trkpt lat="46.024515330791473" lon="8.625940773636103">
        <ele>1246.97</ele>
        <time>2014-02-02T12:46:53Z</time>
      </trkpt>
      <trkpt lat="46.024522539228201" lon="8.625966422259808">
        <ele>1246.97</ele>
        <time>2014-02-02T12:47:16Z</time>
      </trkpt>
      <trkpt lat="46.024515917524695" lon="8.625989472493529">
        <ele>1246.97</ele>
        <time>2014-02-02T12:47:38Z</time>
      </trkpt>
      <trkpt lat="46.024512480944395" lon="8.626006739214063">
        <ele>1246.97</ele>
        <time>2014-02-02T12:48:01Z</time>
      </trkpt>
      <trkpt lat="46.024522790685296" lon="8.626001626253128">
        <ele>1247.45</ele>
        <time>2014-02-02T12:48:21Z</time>
      </trkpt>
      <trkpt lat="46.024529580026865" lon="8.625959800556302">
        <ele>1247.45</ele>
        <time>2014-02-02T12:48:37Z</time>
      </trkpt>
      <trkpt lat="46.024503679946065" lon="8.625938929617405">
        <ele>1247.45</ele>
        <time>2014-02-02T12:49:05Z</time>
      </trkpt>
      <trkpt lat="46.024514492601156" lon="8.62592794932425">
        <ele>1247.9300000000001</ele>
        <time>2014-02-02T12:49:29Z</time>
      </trkpt>
      <trkpt lat="46.024524634703994" lon="8.625923758372665">
        <ele>1247.45</ele>
        <time>2014-02-02T12:49:49Z</time>
      </trkpt>
      <trkpt lat="46.024524886161089" lon="8.62592694349587">
        <ele>1247.9300000000001</ele>
        <time>2014-02-02T12:50:12Z</time>
      </trkpt>
      <trkpt lat="46.024506529793143" lon="8.625937253236771">
        <ele>1247.9300000000001</ele>
        <time>2014-02-02T12:50:33Z</time>
      </trkpt>
      <trkpt lat="46.024496890604496" lon="8.625964829698205">
        <ele>1247.9300000000001</ele>
        <time>2014-02-02T12:51:00Z</time>
      </trkpt>
      <trkpt lat="46.024505104869604" lon="8.625947898253799">
        <ele>1248.4100000000001</ele>
        <time>2014-02-02T12:51:20Z</time>
      </trkpt>
      <trkpt lat="46.024492029100657" lon="8.625928703695536">
        <ele>1248.8900000000001</ele>
        <time>2014-02-02T12:51:38Z</time>
      </trkpt>
      <trkpt lat="46.024492029100657" lon="8.625901294872165">
        <ele>1248.4100000000001</ele>
        <time>2014-02-02T12:51:58Z</time>
      </trkpt>
      <trkpt lat="46.024513486772776" lon="8.625898947939277">
        <ele>1248.4100000000001</ele>
        <time>2014-02-02T12:52:16Z</time>
      </trkpt>
      <trkpt lat="46.024493621662259" lon="8.625908922404051">
        <ele>1248.8900000000001</ele>
        <time>2014-02-02T12:52:42Z</time>
      </trkpt>
      <trkpt lat="46.024488341063261" lon="8.625907078385353">
        <ele>1248.4100000000001</ele>
        <time>2014-02-02T12:52:52Z</time>
      </trkpt>
      <trkpt lat="46.024467889219522" lon="8.625910598784685">
        <ele>1248.8900000000001</ele>
        <time>2014-02-02T12:53:12Z</time>
      </trkpt>
      <trkpt lat="46.024455400183797" lon="8.625903893262148">
        <ele>1248.8900000000001</ele>
        <time>2014-02-02T12:53:26Z</time>
      </trkpt>
      <trkpt lat="46.024453639984131" lon="8.625901713967323">
        <ele>1249.8499999999999</ele>
        <time>2014-02-02T12:53:42Z</time>
      </trkpt>
      <trkpt lat="46.024455651640892" lon="8.625891907140613">
        <ele>1249.3699999999999</ele>
        <time>2014-02-02T12:54:01Z</time>
      </trkpt>
      <trkpt lat="46.024467889219522" lon="8.625904312357307">
        <ele>1249.3699999999999</ele>
        <time>2014-02-02T12:54:16Z</time>
      </trkpt>
      <trkpt lat="46.024462608620524" lon="8.625920154154301">
        <ele>1249.8499999999999</ele>
        <time>2014-02-02T12:54:32Z</time>
      </trkpt>
      <trkpt lat="46.02446579374373" lon="8.625886123627424">
        <ele>1249.3699999999999</ele>
        <time>2014-02-02T12:54:47Z</time>
      </trkpt>
      <trkpt lat="46.024450873956084" lon="8.62587614916265">
        <ele>1249.8499999999999</ele>
        <time>2014-02-02T12:54:59Z</time>
      </trkpt>
      <trkpt lat="46.024441234767437" lon="8.62588495016098">
        <ele>1249.8499999999999</ele>
        <time>2014-02-02T12:55:14Z</time>
      </trkpt>
      <trkpt lat="46.024443665519357" lon="8.625920908525586">
        <ele>1249.8499999999999</ele>
        <time>2014-02-02T12:55:41Z</time>
      </trkpt>
      <trkpt lat="46.024443749338388" lon="8.625916885212064">
        <ele>1249.8499999999999</ele>
        <time>2014-02-02T12:56:04Z</time>
      </trkpt>
      <trkpt lat="46.024458920583129" lon="8.625905737280846">
        <ele>1250.3299999999999</ele>
        <time>2014-02-02T12:56:24Z</time>
      </trkpt>
      <trkpt lat="46.024444671347737" lon="8.625896349549294">
        <ele>1250.3299999999999</ele>
        <time>2014-02-02T12:56:36Z</time>
      </trkpt>
      <trkpt lat="46.024423465132713" lon="8.625865252688527">
        <ele>1251.29</ele>
        <time>2014-02-02T12:56:53Z</time>
      </trkpt>
      <trkpt lat="46.024308046326041" lon="8.625887045636773">
        <ele>1250.8099999999999</ele>
        <time>2014-02-02T12:57:07Z</time>
      </trkpt>
      <trkpt lat="46.024160943925381" lon="8.625910766422749">
        <ele>1250.8099999999999</ele>
        <time>2014-02-02T12:57:22Z</time>
      </trkpt>
      <trkpt lat="46.024032030254602" lon="8.625934822484851">
        <ele>1250.8099999999999</ele>
        <time>2014-02-02T12:57:36Z</time>
      </trkpt>
      <trkpt lat="46.024001268669963" lon="8.625936498865485">
        <ele>1251.29</ele>
        <time>2014-02-02T12:57:39Z</time>
      </trkpt>
      <trkpt lat="46.023873947560787" lon="8.625903474166989">
        <ele>1250.3299999999999</ele>
        <time>2014-02-02T12:57:52Z</time>
      </trkpt>
      <trkpt lat="46.023742770776153" lon="8.625857708975673">
        <ele>1250.3299999999999</ele>
        <time>2014-02-02T12:58:07Z</time>
      </trkpt>
      <trkpt lat="46.023618886247277" lon="8.625799454748631">
        <ele>1250.8099999999999</ele>
        <time>2014-02-02T12:58:19Z</time>
      </trkpt>
      <trkpt lat="46.023575216531754" lon="8.625782104209065">
        <ele>1251.77</ele>
        <time>2014-02-02T12:58:23Z</time>
      </trkpt>
      <trkpt lat="46.023438340052962" lon="8.625681269913912">
        <ele>1251.29</ele>
        <time>2014-02-02T12:58:37Z</time>
      </trkpt>
      <trkpt lat="46.023317305371165" lon="8.625596193596721">
        <ele>1252.25</ele>
        <time>2014-02-02T12:58:50Z</time>
      </trkpt>
      <trkpt lat="46.023218566551805" lon="8.625522349029779">
        <ele>1252.25</ele>
        <time>2014-02-02T12:59:02Z</time>
      </trkpt>
      <trkpt lat="46.023120330646634" lon="8.62545688636601">
        <ele>1252.74</ele>
        <time>2014-02-02T12:59:15Z</time>
      </trkpt>
      <trkpt lat="46.023015640676022" lon="8.625387903302908">
        <ele>1252.74</ele>
        <time>2014-02-02T12:59:28Z</time>
      </trkpt>
      <trkpt lat="46.022902317345142" lon="8.625347251072526">
        <ele>1253.22</ele>
        <time>2014-02-02T12:59:41Z</time>
      </trkpt>
      <trkpt lat="46.022777007892728" lon="8.625354710966349">
        <ele>1254.1800000000001</ele>
        <time>2014-02-02T12:59:56Z</time>
      </trkpt>
      <trkpt lat="46.02266812697053" lon="8.62539678812027">
        <ele>1254.1800000000001</ele>
        <time>2014-02-02T13:00:10Z</time>
      </trkpt>
      <trkpt lat="46.022617667913437" lon="8.62556928768754">
        <ele>1255.1400000000001</ele>
        <time>2014-02-02T13:00:26Z</time>
      </trkpt>
      <trkpt lat="46.022622780874372" lon="8.625708008185029">
        <ele>1255.6199999999999</ele>
        <time>2014-02-02T13:00:38Z</time>
      </trkpt>
      <trkpt lat="46.022599982097745" lon="8.625937923789024">
        <ele>1255.6199999999999</ele>
        <time>2014-02-02T13:00:53Z</time>
      </trkpt>
      <trkpt lat="46.022551702335477" lon="8.626070357859135">
        <ele>1256.5799999999999</ele>
        <time>2014-02-02T13:01:05Z</time>
      </trkpt>
      <trkpt lat="46.022495795041323" lon="8.626250317320228">
        <ele>1257.0599999999999</ele>
        <time>2014-02-02T13:01:20Z</time>
      </trkpt>
      <trkpt lat="46.022477438673377" lon="8.626288957893848">
        <ele>1257.0599999999999</ele>
        <time>2014-02-02T13:01:23Z</time>
      </trkpt>
      <trkpt lat="46.02245413698256" lon="8.6263208091259">
        <ele>1257.0599999999999</ele>
        <time>2014-02-02T13:01:26Z</time>
      </trkpt>
      <trkpt lat="46.022392781451344" lon="8.626448633149266">
        <ele>1257.0599999999999</ele>
        <time>2014-02-02T13:01:37Z</time>
      </trkpt>
      <trkpt lat="46.022298401221633" lon="8.62663596868515">
        <ele>1258.02</ele>
        <time>2014-02-02T13:01:52Z</time>
      </trkpt>
      <trkpt lat="46.022269483655691" lon="8.626697491854429">
        <ele>1258.02</ele>
        <time>2014-02-02T13:01:57Z</time>
      </trkpt>
      <trkpt lat="46.02219371125102" lon="8.626867895945907">
        <ele>1258.5</ele>
        <time>2014-02-02T13:02:13Z</time>
      </trkpt>
      <trkpt lat="46.022168984636664" lon="8.626906452700496">
        <ele>1258.98</ele>
        <time>2014-02-02T13:02:17Z</time>
      </trkpt>
      <trkpt lat="46.022094720974565" lon="8.62701122649014">
        <ele>1259.46</ele>
        <time>2014-02-02T13:02:34Z</time>
      </trkpt>
      <trkpt lat="46.021982990205288" lon="8.62710552290082">
        <ele>1259.46</ele>
        <time>2014-02-02T13:02:50Z</time>
      </trkpt>
      <trkpt lat="46.021867319941521" lon="8.627172326669097">
        <ele>1259.9400000000001</ele>
        <time>2014-02-02T13:03:05Z</time>
      </trkpt>
      <trkpt lat="46.021727677434683" lon="8.627215744927526">
        <ele>1260.4300000000001</ele>
        <time>2014-02-02T13:03:17Z</time>
      </trkpt>
      <trkpt lat="46.021537324413657" lon="8.627270730212331">
        <ele>1260.9100000000001</ele>
        <time>2014-02-02T13:03:34Z</time>
      </trkpt>
      <trkpt lat="46.021405225619674" lon="8.627383131533861">
        <ele>1261.8699999999999</ele>
        <time>2014-02-02T13:03:51Z</time>
      </trkpt>
      <trkpt lat="46.021340349689126" lon="8.627506261691451">
        <ele>1262.3499999999999</ele>
        <time>2014-02-02T13:04:02Z</time>
      </trkpt>
      <trkpt lat="46.021286873146892" lon="8.627555966377258">
        <ele>1262.3499999999999</ele>
        <time>2014-02-02T13:04:08Z</time>
      </trkpt>
      <trkpt lat="46.021138429641724" lon="8.627646742388606">
        <ele>1262.8299999999999</ele>
        <time>2014-02-02T13:04:24Z</time>
      </trkpt>
      <trkpt lat="46.020984789356589" lon="8.627705750986934">
        <ele>1263.79</ele>
        <time>2014-02-02T13:04:38Z</time>
      </trkpt>
      <trkpt lat="46.02095209993422" lon="8.627709774300456">
        <ele>1263.79</ele>
        <time>2014-02-02T13:04:41Z</time>
      </trkpt>
      <trkpt lat="46.020783288404346" lon="8.627670211717486">
        <ele>1263.79</ele>
        <time>2014-02-02T13:04:56Z</time>
      </trkpt>
      <trkpt lat="46.020740959793329" lon="8.627630481496453">
        <ele>1263.79</ele>
        <time>2014-02-02T13:05:00Z</time>
      </trkpt>
      <trkpt lat="46.020615650340915" lon="8.627454712986946">
        <ele>1264.75</ele>
        <time>2014-02-02T13:05:15Z</time>
      </trkpt>
      <trkpt lat="46.020513726398349" lon="8.627332840114832">
        <ele>1265.23</ele>
        <time>2014-02-02T13:05:29Z</time>
      </trkpt>
      <trkpt lat="46.020375173538923" lon="8.627250278368592">
        <ele>1265.71</ele>
        <time>2014-02-02T13:05:43Z</time>
      </trkpt>
      <trkpt lat="46.02022890932858" lon="8.627177355811">
        <ele>1266.1900000000001</ele>
        <time>2014-02-02T13:05:59Z</time>
      </trkpt>
      <trkpt lat="46.020078286528587" lon="8.627121699973941">
        <ele>1267.1600000000001</ele>
        <time>2014-02-02T13:06:14Z</time>
      </trkpt>
      <trkpt lat="46.020031180232763" lon="8.62711139023304">
        <ele>1267.1600000000001</ele>
        <time>2014-02-02T13:06:18Z</time>
      </trkpt>
      <trkpt lat="46.019887933507562" lon="8.627109965309501">
        <ele>1267.6400000000001</ele>
        <time>2014-02-02T13:06:31Z</time>
      </trkpt>
      <trkpt lat="46.019736640155315" lon="8.627092111855745">
        <ele>1268.5999999999999</ele>
        <time>2014-02-02T13:06:46Z</time>
      </trkpt>
      <trkpt lat="46.01963228546083" lon="8.627036456018686">
        <ele>1269.5599999999999</ele>
        <time>2014-02-02T13:06:58Z</time>
      </trkpt>
      <trkpt lat="46.01961812004447" lon="8.627017177641392">
        <ele>1269.5599999999999</ele>
        <time>2014-02-02T13:07:00Z</time>
      </trkpt>
      <trkpt lat="46.019623233005404" lon="8.626806037500501">
        <ele>1269.5599999999999</ele>
        <time>2014-02-02T13:07:14Z</time>
      </trkpt>
      <trkpt lat="46.019650725647807" lon="8.62658467143774">
        <ele>1270.52</ele>
        <time>2014-02-02T13:07:28Z</time>
      </trkpt>
      <trkpt lat="46.019616024568677" lon="8.626426421105862">
        <ele>1271.48</ele>
        <time>2014-02-02T13:07:42Z</time>
      </trkpt>
      <trkpt lat="46.019574115052819" lon="8.626093911007047">
        <ele>1271.96</ele>
        <time>2014-02-02T13:07:57Z</time>
      </trkpt>
      <trkpt lat="46.019555507227778" lon="8.625946054235101">
        <ele>1272.9200000000001</ele>
        <time>2014-02-02T13:08:11Z</time>
      </trkpt>
      <trkpt lat="46.019508736208081" lon="8.625749498605728">
        <ele>1272.9200000000001</ele>
        <time>2014-02-02T13:08:29Z</time>
      </trkpt>
      <trkpt lat="46.019465904682875" lon="8.625675654038787">
        <ele>1273.4000000000001</ele>
        <time>2014-02-02T13:08:35Z</time>
      </trkpt>
      <trkpt lat="46.019389210268855" lon="8.625489324331284">
        <ele>1273.4000000000001</ele>
        <time>2014-02-02T13:08:48Z</time>
      </trkpt>
      <trkpt lat="46.019314611330628" lon="8.62530785612762">
        <ele>1274.3599999999999</ele>
        <time>2014-02-02T13:09:04Z</time>
      </trkpt>
      <trkpt lat="46.019242694601417" lon="8.62515983171761">
        <ele>1275.3299999999999</ele>
        <time>2014-02-02T13:09:19Z</time>
      </trkpt>
      <trkpt lat="46.01913683116436" lon="8.624929748475552">
        <ele>1275.3299999999999</ele>
        <time>2014-02-02T13:09:37Z</time>
      </trkpt>
      <trkpt lat="46.019062818959355" lon="8.624730678275228">
        <ele>1275.8099999999999</ele>
        <time>2014-02-02T13:09:53Z</time>
      </trkpt>
      <trkpt lat="46.018989561125636" lon="8.624543845653534">
        <ele>1276.77</ele>
        <time>2014-02-02T13:10:06Z</time>
      </trkpt>
      <trkpt lat="46.018936671316624" lon="8.624328766018152">
        <ele>1277.25</ele>
        <time>2014-02-02T13:10:21Z</time>
      </trkpt>
      <trkpt lat="46.018890906125307" lon="8.624131288379431">
        <ele>1277.73</ele>
        <time>2014-02-02T13:10:36Z</time>
      </trkpt>
      <trkpt lat="46.018813624978065" lon="8.623918052762747">
        <ele>1278.21</ele>
        <time>2014-02-02T13:10:51Z</time>
      </trkpt>
      <trkpt lat="46.018698792904615" lon="8.623755360022187">
        <ele>1278.6900000000001</ele>
        <time>2014-02-02T13:11:06Z</time>
      </trkpt>
      <trkpt lat="46.018589241430163" lon="8.623657794669271">
        <ele>1279.1700000000001</ele>
        <time>2014-02-02T13:11:20Z</time>
      </trkpt>
      <trkpt lat="46.018437445163727" lon="8.623568192124367">
        <ele>1279.6500000000001</ele>
        <time>2014-02-02T13:11:37Z</time>
      </trkpt>
      <trkpt lat="46.018414981663227" lon="8.623556457459927">
        <ele>1279.6500000000001</ele>
        <time>2014-02-02T13:11:39Z</time>
      </trkpt>
      <trkpt lat="46.018279697746038" lon="8.623462831601501">
        <ele>1280.1300000000001</ele>
        <time>2014-02-02T13:11:53Z</time>
      </trkpt>
      <trkpt lat="46.018152376636863" lon="8.623371301218867">
        <ele>1281.0899999999999</ele>
        <time>2014-02-02T13:12:08Z</time>
      </trkpt>
      <trkpt lat="46.018011476844549" lon="8.623311454430223">
        <ele>1281.5699999999999</ele>
        <time>2014-02-02T13:12:21Z</time>
      </trkpt>
      <trkpt lat="46.017859932035208" lon="8.62319603562355">
        <ele>1282.0599999999999</ele>
        <time>2014-02-02T13:12:35Z</time>
      </trkpt>
      <trkpt lat="46.017711320891976" lon="8.623121604323387">
        <ele>1282.54</ele>
        <time>2014-02-02T13:12:49Z</time>
      </trkpt>
      <trkpt lat="46.017642086371779" lon="8.623079443350434">
        <ele>1283.02</ele>
        <time>2014-02-02T13:12:55Z</time>
      </trkpt>
      <trkpt lat="46.017501689493656" lon="8.622950362041593">
        <ele>1283.02</ele>
        <time>2014-02-02T13:13:10Z</time>
      </trkpt>
      <trkpt lat="46.017404878512025" lon="8.62289504148066">
        <ele>1283.5</ele>
        <time>2014-02-02T13:13:19Z</time>
      </trkpt>
      <trkpt lat="46.017261715605855" lon="8.622791692614555">
        <ele>1284.46</ele>
        <time>2014-02-02T13:13:33Z</time>
      </trkpt>
      <trkpt lat="46.017125006765127" lon="8.622666550800204">
        <ele>1284.9400000000001</ele>
        <time>2014-02-02T13:13:47Z</time>
      </trkpt>
      <trkpt lat="46.017012186348438" lon="8.622535625472665">
        <ele>1285.9000000000001</ele>
        <time>2014-02-02T13:14:00Z</time>
      </trkpt>
      <trkpt lat="46.016926690936089" lon="8.622411238029599">
        <ele>1286.3800000000001</ele>
        <time>2014-02-02T13:14:11Z</time>
      </trkpt>
      <trkpt lat="46.016820073127747" lon="8.622257262468338">
        <ele>1286.8599999999999</ele>
        <time>2014-02-02T13:14:25Z</time>
      </trkpt>
      <trkpt lat="46.016817223280668" lon="8.622267320752144">
        <ele>1286.8599999999999</ele>
        <time>2014-02-02T13:14:41Z</time>
      </trkpt>
      <trkpt lat="46.016703145578504" lon="8.622152740135789">
        <ele>1288.3</ele>
        <time>2014-02-02T13:14:59Z</time>
      </trkpt>
      <trkpt lat="46.016632905229926" lon="8.622096413746476">
        <ele>1288.3</ele>
        <time>2014-02-02T13:15:06Z</time>
      </trkpt>
      <trkpt lat="46.016482366248965" lon="8.622029861435294">
        <ele>1288.78</ele>
        <time>2014-02-02T13:15:20Z</time>
      </trkpt>
      <trkpt lat="46.016439199447632" lon="8.622021311894059">
        <ele>1288.78</ele>
        <time>2014-02-02T13:15:24Z</time>
      </trkpt>
      <trkpt lat="46.016418412327766" lon="8.622012929990888">
        <ele>1288.78</ele>
        <time>2014-02-02T13:15:26Z</time>
      </trkpt>
      <trkpt lat="46.016259910538793" lon="8.622031537815929">
        <ele>1289.75</ele>
        <time>2014-02-02T13:15:41Z</time>
      </trkpt>
      <trkpt lat="46.016119094565511" lon="8.622091552242637">
        <ele>1290.23</ele>
        <time>2014-02-02T13:15:55Z</time>
      </trkpt>
      <trkpt lat="46.016029072925448" lon="8.622232703492045">
        <ele>1291.1900000000001</ele>
        <time>2014-02-02T13:16:07Z</time>
      </trkpt>
      <trkpt lat="46.015943912789226" lon="8.622447028756142">
        <ele>1291.6700000000001</ele>
        <time>2014-02-02T13:16:24Z</time>
      </trkpt>
      <trkpt lat="46.01585129275918" lon="8.62261600792408">
        <ele>1292.6300000000001</ele>
        <time>2014-02-02T13:16:38Z</time>
      </trkpt>
      <trkpt lat="46.015807371586561" lon="8.622688762843609">
        <ele>1292.6300000000001</ele>
        <time>2014-02-02T13:16:55Z</time>
      </trkpt>
      <trkpt lat="46.015757499262691" lon="8.622824549674988">
        <ele>1292.6300000000001</ele>
        <time>2014-02-02T13:17:14Z</time>
      </trkpt>
      <trkpt lat="46.015713829547167" lon="8.6230000667274">
        <ele>1293.1099999999999</ele>
        <time>2014-02-02T13:17:27Z</time>
      </trkpt>
      <trkpt lat="46.015706034377217" lon="8.623075420036912">
        <ele>1293.5899999999999</ele>
        <time>2014-02-02T13:17:32Z</time>
      </trkpt>
      <trkpt lat="46.01570469327271" lon="8.623304832726717">
        <ele>1294.0699999999999</ele>
        <time>2014-02-02T13:17:46Z</time>
      </trkpt>
      <trkpt lat="46.015718188136816" lon="8.623504992574453">
        <ele>1294.55</ele>
        <time>2014-02-02T13:17:59Z</time>
      </trkpt>
      <trkpt lat="46.015741573646665" lon="8.623685454949737">
        <ele>1295.03</ele>
        <time>2014-02-02T13:18:11Z</time>
      </trkpt>
      <trkpt lat="46.015726402401924" lon="8.623872036114335">
        <ele>1295.51</ele>
        <time>2014-02-02T13:18:23Z</time>
      </trkpt>
      <trkpt lat="46.015679212287068" lon="8.623949065804482">
        <ele>1296.48</ele>
        <time>2014-02-02T13:18:30Z</time>
      </trkpt>
      <trkpt lat="46.015657167881727" lon="8.623978737741709">
        <ele>1296.48</ele>
        <time>2014-02-02T13:18:33Z</time>
      </trkpt>
      <trkpt lat="46.015522889792919" lon="8.624131372198463">
        <ele>1296.96</ele>
        <time>2014-02-02T13:18:48Z</time>
      </trkpt>
      <trkpt lat="46.015437478199601" lon="8.624312337487936">
        <ele>1296.96</ele>
        <time>2014-02-02T13:19:02Z</time>
      </trkpt>
      <trkpt lat="46.015440747141838" lon="8.624548790976405">
        <ele>1297.9200000000001</ele>
        <time>2014-02-02T13:19:17Z</time>
      </trkpt>
      <trkpt lat="46.015466311946511" lon="8.624712321907282">
        <ele>1298.4000000000001</ele>
        <time>2014-02-02T13:19:29Z</time>
      </trkpt>
      <trkpt lat="46.015480561181903" lon="8.62490183673799">
        <ele>1299.3599999999999</ele>
        <time>2014-02-02T13:19:42Z</time>
      </trkpt>
      <trkpt lat="46.015494894236326" lon="8.625081209465861">
        <ele>1299.8399999999999</ele>
        <time>2014-02-02T13:19:53Z</time>
      </trkpt>
      <trkpt lat="46.015460360795259" lon="8.625280950218439">
        <ele>1299.8399999999999</ele>
        <time>2014-02-02T13:20:07Z</time>
      </trkpt>
      <trkpt lat="46.015416355803609" lon="8.62549401819706">
        <ele>1300.3199999999999</ele>
        <time>2014-02-02T13:20:21Z</time>
      </trkpt>
      <trkpt lat="46.015412164852023" lon="8.625634415075183">
        <ele>1300.8</ele>
        <time>2014-02-02T13:20:34Z</time>
      </trkpt>
      <trkpt lat="46.015436975285411" lon="8.625780427828431">
        <ele>1300.8</ele>
        <time>2014-02-02T13:20:51Z</time>
      </trkpt>
      <trkpt lat="46.015444351360202" lon="8.625919064506888">
        <ele>1301.28</ele>
        <time>2014-02-02T13:21:07Z</time>
      </trkpt>
      <trkpt lat="46.015467988327146" lon="8.626030124723911">
        <ele>1300.3199999999999</ele>
        <time>2014-02-02T13:21:28Z</time>
      </trkpt>
      <trkpt lat="46.015512580052018" lon="8.626287616789341">
        <ele>1301.28</ele>
        <time>2014-02-02T13:21:45Z</time>
      </trkpt>
      <trkpt lat="46.015554741024971" lon="8.626493895426393">
        <ele>1301.28</ele>
        <time>2014-02-02T13:22:00Z</time>
      </trkpt>
      <trkpt lat="46.015570750460029" lon="8.62654167227447">
        <ele>1301.28</ele>
        <time>2014-02-02T13:22:11Z</time>
      </trkpt>
      <trkpt lat="46.015613749623299" lon="8.626751471310854">
        <ele>1301.76</ele>
        <time>2014-02-02T13:22:26Z</time>
      </trkpt>
      <trkpt lat="46.015655910596251" lon="8.626958252862096">
        <ele>1301.76</ele>
        <time>2014-02-02T13:22:40Z</time>
      </trkpt>
      <trkpt lat="46.015652474015951" lon="8.627003096044064">
        <ele>1301.76</ele>
        <time>2014-02-02T13:22:54Z</time>
      </trkpt>
      <trkpt lat="46.015660939738154" lon="8.627107199281454">
        <ele>1302.24</ele>
        <time>2014-02-02T13:23:07Z</time>
      </trkpt>
      <trkpt lat="46.015585334971547" lon="8.627319261431694">
        <ele>1302.72</ele>
        <time>2014-02-02T13:23:22Z</time>
      </trkpt>
      <trkpt lat="46.015500007197261" lon="8.627542136237025">
        <ele>1302.72</ele>
        <time>2014-02-02T13:23:39Z</time>
      </trkpt>
      <trkpt lat="46.015475112944841" lon="8.627709858119488">
        <ele>1303.2</ele>
        <time>2014-02-02T13:23:51Z</time>
      </trkpt>
      <trkpt lat="46.015472346916795" lon="8.627913286909461">
        <ele>1303.6900000000001</ele>
        <time>2014-02-02T13:24:05Z</time>
      </trkpt>
      <trkpt lat="46.015396574512124" lon="8.628092994913459">
        <ele>1303.2</ele>
        <time>2014-02-02T13:24:19Z</time>
      </trkpt>
      <trkpt lat="46.015377631410956" lon="8.628101795911789">
        <ele>1303.6900000000001</ele>
        <time>2014-02-02T13:24:33Z</time>
      </trkpt>
      <trkpt lat="46.015372266992927" lon="8.628112692385912">
        <ele>1303.6900000000001</ele>
        <time>2014-02-02T13:24:50Z</time>
      </trkpt>
      <trkpt lat="46.015349300578237" lon="8.628087295219302">
        <ele>1303.6900000000001</ele>
        <time>2014-02-02T13:25:06Z</time>
      </trkpt>
      <trkpt lat="46.015352234244347" lon="8.628083523362875">
        <ele>1303.6900000000001</ele>
        <time>2014-02-02T13:25:26Z</time>
      </trkpt>
      <trkpt lat="46.015339661389589" lon="8.628105651587248">
        <ele>1303.6900000000001</ele>
        <time>2014-02-02T13:25:35Z</time>
      </trkpt>
      <trkpt lat="46.015208316966891" lon="8.62835543230176">
        <ele>1304.1700000000001</ele>
        <time>2014-02-02T13:25:54Z</time>
      </trkpt>
      <trkpt lat="46.015087449923158" lon="8.628541762009263">
        <ele>1303.2</ele>
        <time>2014-02-02T13:26:09Z</time>
      </trkpt>
      <trkpt lat="46.014925595372915" lon="8.628694396466017">
        <ele>1301.76</ele>
        <time>2014-02-02T13:26:24Z</time>
      </trkpt>
      <trkpt lat="46.014770278707147" lon="8.628813168033958">
        <ele>1300.3199999999999</ele>
        <time>2014-02-02T13:26:39Z</time>
      </trkpt>
      <trkpt lat="46.014608843252063" lon="8.62891836091876">
        <ele>1297.9200000000001</ele>
        <time>2014-02-02T13:26:54Z</time>
      </trkpt>
      <trkpt lat="46.014444557949901" lon="8.62903319299221">
        <ele>1296.48</ele>
        <time>2014-02-02T13:27:10Z</time>
      </trkpt>
      <trkpt lat="46.014280272647738" lon="8.629141403362155">
        <ele>1294.0699999999999</ele>
        <time>2014-02-02T13:27:27Z</time>
      </trkpt>
      <trkpt lat="46.014199303463101" lon="8.629132099449635">
        <ele>1293.1099999999999</ele>
        <time>2014-02-02T13:27:35Z</time>
      </trkpt>
      <trkpt lat="46.014177510514855" lon="8.629136541858316">
        <ele>1293.1099999999999</ele>
        <time>2014-02-02T13:27:37Z</time>
      </trkpt>
      <trkpt lat="46.013983134180307" lon="8.629164369776845">
        <ele>1290.71</ele>
        <time>2014-02-02T13:27:52Z</time>
      </trkpt>
      <trkpt lat="46.013798397034407" lon="8.629174595698714">
        <ele>1289.27</ele>
        <time>2014-02-02T13:28:07Z</time>
      </trkpt>
      <trkpt lat="46.013641823083162" lon="8.62916219048202">
        <ele>1287.8199999999999</ele>
        <time>2014-02-02T13:28:20Z</time>
      </trkpt>
      <trkpt lat="46.013489020988345" lon="8.629162106662989">
        <ele>1286.3800000000001</ele>
        <time>2014-02-02T13:28:34Z</time>
      </trkpt>
      <trkpt lat="46.013350384309888" lon="8.629160430282354">
        <ele>1284.46</ele>
        <time>2014-02-02T13:28:46Z</time>
      </trkpt>
      <trkpt lat="46.013241922482848" lon="8.629178870469332">
        <ele>1283.5</ele>
        <time>2014-02-02T13:28:56Z</time>
      </trkpt>
      <trkpt lat="46.013171263039112" lon="8.629148444160819">
        <ele>1282.54</ele>
        <time>2014-02-02T13:29:09Z</time>
      </trkpt>
      <trkpt lat="46.013179058209062" lon="8.629136709496379">
        <ele>1283.02</ele>
        <time>2014-02-02T13:29:25Z</time>
      </trkpt>
      <trkpt lat="46.013186853379011" lon="8.629142409190536">
        <ele>1283.02</ele>
        <time>2014-02-02T13:29:37Z</time>
      </trkpt>
      <trkpt lat="46.013198001310229" lon="8.629129081964493">
        <ele>1283.02</ele>
        <time>2014-02-02T13:29:55Z</time>
      </trkpt>
      <trkpt lat="46.013183584436774" lon="8.62912992015481">
        <ele>1283.02</ele>
        <time>2014-02-02T13:30:11Z</time>
      </trkpt>
      <trkpt lat="46.013176124542952" lon="8.629141319543123">
        <ele>1282.54</ele>
        <time>2014-02-02T13:30:24Z</time>
      </trkpt>
      <trkpt lat="46.013165563344955" lon="8.629149198532105">
        <ele>1282.54</ele>
        <time>2014-02-02T13:30:43Z</time>
      </trkpt>
      <trkpt lat="46.013178639113903" lon="8.629125561565161">
        <ele>1283.5</ele>
        <time>2014-02-02T13:31:00Z</time>
      </trkpt>
      <trkpt lat="46.013205125927925" lon="8.629134865477681">
        <ele>1283.5</ele>
        <time>2014-02-02T13:31:19Z</time>
      </trkpt>
      <trkpt lat="46.013211412355304" lon="8.629121538251638">
        <ele>1283.98</ele>
        <time>2014-02-02T13:31:39Z</time>
      </trkpt>
      <trkpt lat="46.013213088735938" lon="8.629139475524426">
        <ele>1284.46</ele>
        <time>2014-02-02T13:32:06Z</time>
      </trkpt>
      <trkpt lat="46.013248711824417" lon="8.629132686182857">
        <ele>1284.9400000000001</ele>
        <time>2014-02-02T13:32:28Z</time>
      </trkpt>
      <trkpt lat="46.013265727087855" lon="8.629138134419918">
        <ele>1285.4200000000001</ele>
        <time>2014-02-02T13:32:54Z</time>
      </trkpt>
      <trkpt lat="46.013215770944953" lon="8.629124639555812">
        <ele>1285.4200000000001</ele>
        <time>2014-02-02T13:33:15Z</time>
      </trkpt>
      <trkpt lat="46.013221889734268" lon="8.629099074751139">
        <ele>1284.9400000000001</ele>
        <time>2014-02-02T13:33:33Z</time>
      </trkpt>
      <trkpt lat="46.013239994645119" lon="8.629141068086028">
        <ele>1284.46</ele>
        <time>2014-02-02T13:33:54Z</time>
      </trkpt>
      <trkpt lat="46.013224069029093" lon="8.629153976216912">
        <ele>1283.98</ele>
        <time>2014-02-02T13:34:13Z</time>
      </trkpt>
      <trkpt lat="46.013222392648458" lon="8.629162777215242">
        <ele>1283.5</ele>
        <time>2014-02-02T13:34:30Z</time>
      </trkpt>
      <trkpt lat="46.013208562508225" lon="8.629126735031605">
        <ele>1283.98</ele>
        <time>2014-02-02T13:34:47Z</time>
      </trkpt>
      <trkpt lat="46.013182075694203" lon="8.629146013408899">
        <ele>1283.98</ele>
        <time>2014-02-02T13:35:11Z</time>
      </trkpt>
      <trkpt lat="46.013237563893199" lon="8.629178535193205">
        <ele>1283.5</ele>
        <time>2014-02-02T13:35:40Z</time>
      </trkpt>
      <trkpt lat="46.01324837654829" lon="8.629165040329099">
        <ele>1283.5</ele>
        <time>2014-02-02T13:36:01Z</time>
      </trkpt>
      <trkpt lat="46.013214346021414" lon="8.629153138026595">
        <ele>1283.5</ele>
        <time>2014-02-02T13:36:21Z</time>
      </trkpt>
      <trkpt lat="46.013196911662817" lon="8.629122460260987">
        <ele>1283.5</ele>
        <time>2014-02-02T13:36:45Z</time>
      </trkpt>
      <trkpt lat="46.013205042108893" lon="8.629143917933106">
        <ele>1283.02</ele>
        <time>2014-02-02T13:37:03Z</time>
      </trkpt>
      <trkpt lat="46.013233121484518" lon="8.62917241640389">
        <ele>1283.02</ele>
        <time>2014-02-02T13:37:27Z</time>
      </trkpt>
      <trkpt lat="46.013248125091195" lon="8.629153892397881">
        <ele>1282.54</ele>
        <time>2014-02-02T13:37:54Z</time>
      </trkpt>
      <trkpt lat="46.013213004916906" lon="8.629194628447294">
        <ele>1283.02</ele>
        <time>2014-02-02T13:38:11Z</time>
      </trkpt>
      <trkpt lat="46.013204120099545" lon="8.629215331748128">
        <ele>1283.02</ele>
        <time>2014-02-02T13:38:19Z</time>
      </trkpt>
      <trkpt lat="46.013102950528264" lon="8.629238465800881">
        <ele>1282.54</ele>
        <time>2014-02-02T13:38:32Z</time>
      </trkpt>
      <trkpt lat="46.013091886416078" lon="8.629240728914738">
        <ele>1282.54</ele>
        <time>2014-02-02T13:38:33Z</time>
      </trkpt>
      <trkpt lat="46.012919470667839" lon="8.62920418381691">
        <ele>1280.6099999999999</ele>
        <time>2014-02-02T13:38:49Z</time>
      </trkpt>
      <trkpt lat="46.012795083224773" lon="8.62919881939888">
        <ele>1279.1700000000001</ele>
        <time>2014-02-02T13:39:02Z</time>
      </trkpt>
      <trkpt lat="46.012669857591391" lon="8.629198484122753">
        <ele>1277.25</ele>
        <time>2014-02-02T13:39:18Z</time>
      </trkpt>
      <trkpt lat="46.012549996376038" lon="8.629212146624923">
        <ele>1276.29</ele>
        <time>2014-02-02T13:39:30Z</time>
      </trkpt>
      <trkpt lat="46.012392165139318" lon="8.629286913201213">
        <ele>1274.8499999999999</ele>
        <time>2014-02-02T13:39:45Z</time>
      </trkpt>
      <trkpt lat="46.01233659312129" lon="8.629336450248957">
        <ele>1274.8499999999999</ele>
        <time>2014-02-02T13:39:53Z</time>
      </trkpt>
      <trkpt lat="46.01226232945919" lon="8.629416329786181">
        <ele>1274.3599999999999</ele>
        <time>2014-02-02T13:40:07Z</time>
      </trkpt>
      <trkpt lat="46.012114807963371" lon="8.629535436630249">
        <ele>1273.8800000000001</ele>
        <time>2014-02-02T13:40:22Z</time>
      </trkpt>
      <trkpt lat="46.011989330872893" lon="8.62959804944694">
        <ele>1273.8800000000001</ele>
        <time>2014-02-02T13:40:35Z</time>
      </trkpt>
      <trkpt lat="46.011960664764047" lon="8.629613053053618">
        <ele>1274.3599999999999</ele>
        <time>2014-02-02T13:40:38Z</time>
      </trkpt>
      <trkpt lat="46.011830326169729" lon="8.629726460203528">
        <ele>1273.8800000000001</ele>
        <time>2014-02-02T13:40:52Z</time>
      </trkpt>
      <trkpt lat="46.011820938438177" lon="8.629733668640256">
        <ele>1273.8800000000001</ele>
        <time>2014-02-02T13:40:53Z</time>
      </trkpt>
      <trkpt lat="46.011801073327661" lon="8.629742721095681">
        <ele>1273.8800000000001</ele>
        <time>2014-02-02T13:40:55Z</time>
      </trkpt>
      <trkpt lat="46.011725468561053" lon="8.629767615348101">
        <ele>1273.8800000000001</ele>
        <time>2014-02-02T13:41:02Z</time>
      </trkpt>
      <trkpt lat="46.011681379750371" lon="8.629768453538418">
        <ele>1273.4000000000001</ele>
        <time>2014-02-02T13:41:07Z</time>
      </trkpt>
      <trkpt lat="46.011657910421491" lon="8.629754204303026">
        <ele>1273.4000000000001</ele>
        <time>2014-02-02T13:41:09Z</time>
      </trkpt>
      <trkpt lat="46.011568810790777" lon="8.62972553819418">
        <ele>1272.4400000000001</ele>
        <time>2014-02-02T13:41:17Z</time>
      </trkpt>
      <trkpt lat="46.011416763067245" lon="8.62955748103559">
        <ele>1270.52</ele>
        <time>2014-02-02T13:41:33Z</time>
      </trkpt>
      <trkpt lat="46.011290615424514" lon="8.629424711689353">
        <ele>1269.0799999999999</ele>
        <time>2014-02-02T13:41:46Z</time>
      </trkpt>
      <trkpt lat="46.011198163032532" lon="8.629346424713731">
        <ele>1268.1199999999999</ele>
        <time>2014-02-02T13:41:55Z</time>
      </trkpt>
      <trkpt lat="46.011015186086297" lon="8.629349442198873">
        <ele>1265.71</ele>
        <time>2014-02-02T13:42:12Z</time>
      </trkpt>
      <trkpt lat="46.010869927704334" lon="8.629397302865982">
        <ele>1263.79</ele>
        <time>2014-02-02T13:42:28Z</time>
      </trkpt>
      <trkpt lat="46.010694578289986" lon="8.629423873499036">
        <ele>1261.8699999999999</ele>
        <time>2014-02-02T13:42:44Z</time>
      </trkpt>
      <trkpt lat="46.01053942926228" lon="8.629364697262645">
        <ele>1260.4300000000001</ele>
        <time>2014-02-02T13:42:57Z</time>
      </trkpt>
      <trkpt lat="46.010457454249263" lon="8.629303844645619">
        <ele>1258.5</ele>
        <time>2014-02-02T13:43:05Z</time>
      </trkpt>
      <trkpt lat="46.01040355861187" lon="8.629270400851965">
        <ele>1258.5</ele>
        <time>2014-02-02T13:43:10Z</time>
      </trkpt>
      <trkpt lat="46.010240949690342" lon="8.629174595698714">
        <ele>1256.0999999999999</ele>
        <time>2014-02-02T13:43:25Z</time>
      </trkpt>
      <trkpt lat="46.0101636685431" lon="8.629111731424928">
        <ele>1255.6199999999999</ele>
        <time>2014-02-02T13:43:35Z</time>
      </trkpt>
      <trkpt lat="46.010077251121402" lon="8.628980638459325">
        <ele>1253.7</ele>
        <time>2014-02-02T13:43:49Z</time>
      </trkpt>
      <trkpt lat="46.009966023266315" lon="8.628789782524109">
        <ele>1251.29</ele>
        <time>2014-02-02T13:44:05Z</time>
      </trkpt>
      <trkpt lat="46.009809365496039" lon="8.628595573827624">
        <ele>1249.8499999999999</ele>
        <time>2014-02-02T13:44:21Z</time>
      </trkpt>
      <trkpt lat="46.009768210351467" lon="8.628559531643987">
        <ele>1249.8499999999999</ele>
        <time>2014-02-02T13:44:26Z</time>
      </trkpt>
      <trkpt lat="46.009607193991542" lon="8.628462301567197">
        <ele>1249.3699999999999</ele>
        <time>2014-02-02T13:44:42Z</time>
      </trkpt>
      <trkpt lat="46.009432347491384" lon="8.628474455326796">
        <ele>1248.8900000000001</ele>
        <time>2014-02-02T13:44:58Z</time>
      </trkpt>
      <trkpt lat="46.009409548714757" lon="8.628449141979218">
        <ele>1248.8900000000001</ele>
        <time>2014-02-02T13:45:01Z</time>
      </trkpt>
      <trkpt lat="46.009421199560165" lon="8.628201205283403">
        <ele>1249.3699999999999</ele>
        <time>2014-02-02T13:45:16Z</time>
      </trkpt>
      <trkpt lat="46.009400077164173" lon="8.627944299951196">
        <ele>1249.3699999999999</ele>
        <time>2014-02-02T13:45:33Z</time>
      </trkpt>
      <trkpt lat="46.009442070499063" lon="8.62785461358726">
        <ele>1249.3699999999999</ele>
        <time>2014-02-02T13:45:42Z</time>
      </trkpt>
      <trkpt lat="46.009450368583202" lon="8.62783064134419">
        <ele>1248.8900000000001</ele>
        <time>2014-02-02T13:45:44Z</time>
      </trkpt>
      <trkpt lat="46.009503677487373" lon="8.627832653000951">
        <ele>1248.4100000000001</ele>
        <time>2014-02-02T13:45:59Z</time>
      </trkpt>
      <trkpt lat="46.009499318897724" lon="8.627823516726494">
        <ele>1248.4100000000001</ele>
        <time>2014-02-02T13:46:11Z</time>
      </trkpt>
      <trkpt lat="46.009510383009911" lon="8.627829384058714">
        <ele>1247.9300000000001</ele>
        <time>2014-02-02T13:46:30Z</time>
      </trkpt>
      <trkpt lat="46.009507449343801" lon="8.627835335209966">
        <ele>1247.9300000000001</ele>
        <time>2014-02-02T13:46:40Z</time>
      </trkpt>
      <trkpt lat="46.009489512071013" lon="8.627842627465725">
        <ele>1247.9300000000001</ele>
        <time>2014-02-02T13:46:51Z</time>
      </trkpt>
      <trkpt lat="46.009502252563834" lon="8.627848997712135">
        <ele>1248.4100000000001</ele>
        <time>2014-02-02T13:47:06Z</time>
      </trkpt>
      <trkpt lat="46.009483560919762" lon="8.627815218642354">
        <ele>1248.4100000000001</ele>
        <time>2014-02-02T13:47:16Z</time>
      </trkpt>
      <trkpt lat="46.009490769356489" lon="8.627833407372236">
        <ele>1248.4100000000001</ele>
        <time>2014-02-02T13:47:20Z</time>
      </trkpt>
      <trkpt lat="46.009522452950478" lon="8.627865258604288">
        <ele>1247.9300000000001</ele>
        <time>2014-02-02T13:47:34Z</time>
      </trkpt>
      <trkpt lat="46.009538965299726" lon="8.627861486747861">
        <ele>1247.9300000000001</ele>
        <time>2014-02-02T13:47:59Z</time>
      </trkpt>
      <trkpt lat="46.009536534547806" lon="8.627872299402952">
        <ele>1247.9300000000001</ele>
        <time>2014-02-02T13:48:25Z</time>
      </trkpt>
      <trkpt lat="46.009508203715086" lon="8.627867521718144">
        <ele>1247.9300000000001</ele>
        <time>2014-02-02T13:48:53Z</time>
      </trkpt>
      <trkpt lat="46.009515998885036" lon="8.627858720719814">
        <ele>1247.9300000000001</ele>
        <time>2014-02-02T13:49:20Z</time>
      </trkpt>
      <trkpt lat="46.009516753256321" lon="8.62787758000195">
        <ele>1247.9300000000001</ele>
        <time>2014-02-02T13:49:51Z</time>
      </trkpt>
      <trkpt lat="46.009482638910413" lon="8.627819325774908">
        <ele>1247.9300000000001</ele>
        <time>2014-02-02T13:50:19Z</time>
      </trkpt>
    </trkseg>
  </trk>

</gpx>